[[{"header":{"parameterUnit":"m.s-1","parameterCategory":1,"la1":30.6,"la2":28.766,"lo1":-90.7593,"lo2":-88.6598,"dy":0.0162,"dx":0.0183,"nx":116,"ny":114,"refTime":"2024-05-06T12:00:00:Z","depth":0,"parameterNumber":2,"parameterNumberName":"U-component_of_WINDS"},"data":[0.0,0.0,0.0,0.0,0.0,0.0,0.0,0.0,0.0,0.0,0.0,0.0,0.0,0.0,0.0,0.0,0.0,0.0,0.0,0.0,0.0,0.0,0.0,0.0,0.0,0.0,0.0,0.0,0.0,0.0,0.0,0.0,0.0,0.0,0.0,0.0,0.0,0.0,0.0,0.0,0.0,0.0,0.0,0.0,0.0,0.0,0.0,0.0,0.0,0.0,0.0,0.0,0.0,0.0,0.0,0.0,0.0,0.0,0.0,0.0,0.0,0.0,0.0,0.0,0.0,0.0,0.0,0.0,0.0,0.0,0.0,0.0,0.0,0.0,0.0,0.0,0.0,0.0,0.0,0.0,0.0,0.0,0.0,0.0,0.0,0.0,0.0,0.0,0.0,0.0,0.0,0.0,0.0,0.0,0.0,0.0,0.0,0.0,0.0,0.0,0.0,0.0,0.0,0.0,0.0,0.0,0.0,0.0,0.0,0.0,0.0,0.0,0.0,0.0,0.0,0.0,0.0,0.0,0.0,0.0,0.0,0.0,0.0,0.0,0.0,0.0,0.0,0.0,0.0,0.0,0.0,0.0,0.0,0.0,0.0,0.0,0.0,0.0,0.0,0.0,0.0,0.0,0.0,0.0,0.0,0.0,0.0,0.0,0.0,0.0,0.0,0.0,0.0,0.0,0.0,0.0,0.0,0.0,0.0,0.0,0.0,0.0,0.0,0.0,0.0,0.0,0.0,0.0,0.0,0.0,0.0,0.0,0.0,0.0,0.0,0.0,0.0,0.0,0.0,0.0,0.0,0.0,0.0,0.0,0.0,0.0,0.0,0.0,0.0,0.0,0.0,0.0,0.0,0.0,0.0,0.0,0.0,0.0,0.0,0.0,0.0,0.0,0.0,0.0,0.0,0.0,0.0,0.0,0.0,0.0,0.0,0.0,0.0,0.0,0.0,0.0,0.0,0.0,0.0,0.0,0.0,0.0,0.0,0.0,0.0,0.0,0.0,0.0,0.0,0.0,0.0,0.0,0.0,0.0,0.0,0.0,0.0,0.0,0.0,0.0,0.0,0.0,0.0,0.0,0.0,0.0,0.0,0.0,0.0,0.0,0.0,0.0,0.0,0.0,0.0,0.0,0.0,0.0,0.0,0.0,0.0,0.0,0.0,0.0,0.0,0.0,0.0,0.0,0.0,0.0,0.0,0.0,0.0,0.0,0.0,0.0,0.0,0.0,0.0,0.0,0.0,0.0,0.0,0.0,0.0,0.0,0.0,0.0,0.0,0.0,0.0,0.0,0.0,0.0,0.0,0.0,0.0,0.0,0.0,0.0,0.0,0.0,0.0,0.0,0.0,0.0,0.0,0.0,0.0,0.0,0.0,0.0,0.0,0.0,0.0,0.0,0.0,0.0,0.0,0.0,0.0,0.0,0.0,0.0,0.0,0.0,0.0,0.0,0.0,0.0,0.0,0.0,0.0,0.0,0.0,0.0,0.0,0.0,0.0,0.0,0.0,0.0,0.0,0.0,0.0,0.0,0.0,0.0,0.0,0.0,0.0,0.0,0.0,0.0,0.0,0.0,0.0,0.0,0.0,0.0,0.0,0.0,0.0,0.0,0.0,0.0,0.0,0.0,0.0,0.0,0.0,0.0,0.0,0.0,0.0,0.0,0.0,0.0,0.0,0.0,0.0,0.0,0.0,0.0,0.0,0.0,0.0,0.0,0.0,0.0,0.0,0.0,0.0,0.0,0.0,0.0,0.0,0.0,0.0,0.0,0.0,0.0,0.0,0.0,0.0,0.0,0.0,0.0,0.0,0.0,0.0,0.0,0.0,0.0,0.0,0.0,0.0,0.0,0.0,0.0,0.0,0.0,0.0,0.0,0.0,0.0,0.0,0.0,0.0,0.0,0.0,0.0,0.0,0.0,0.0,0.0,0.0,0.0,0.0,0.0,0.0,0.0,0.0,0.0,0.0,0.0,0.0,0.0,0.0,0.0,0.0,0.0,0.0,0.0,0.0,0.0,0.0,0.0,0.0,0.0,0.0,0.0,0.0,0.0,0.0,0.0,0.0,0.0,0.0,0.0,0.0,0.0,0.0,0.0,0.0,0.0,0.0,0.0,0.0,0.0,0.0,0.0,0.0,0.0,0.0,0.0,0.0,0.0,0.0,0.0,0.0,0.0,0.0,0.0,0.0,0.0,0.0,0.0,0.0,0.0,0.0,0.0,0.0,0.0,0.0,0.0,0.0,0.0,0.0,0.0,0.0,0.0,0.0,0.0,0.0,0.0,0.0,0.0,0.0,0.0,0.0,0.0,0.0,0.0,0.0,0.0,0.0,0.0,0.0,0.0,0.0,0.0,0.0,0.0,0.0,0.0,0.0,0.0,0.0,0.0,0.0,0.0,0.0,0.0,0.0,0.0,0.0,0.0,0.0,0.0,0.0,0.0,0.0,0.0,0.0,0.0,0.0,0.0,0.0,0.0,0.0,0.0,0.0,0.0,0.0,0.0,0.0,0.0,0.0,0.0,0.0,0.0,0.0,0.0,0.0,0.0,0.0,0.0,0.0,0.0,0.0,0.0,0.0,0.0,0.0,0.0,0.0,0.0,0.0,0.0,0.0,0.0,0.0,0.0,0.0,0.0,0.0,0.0,0.0,0.0,0.0,0.0,0.0,0.0,0.0,0.0,0.0,0.0,0.0,0.0,0.0,0.0,0.0,0.0,0.0,0.0,0.0,0.0,0.0,0.0,0.0,0.0,0.0,0.0,0.0,0.0,0.0,0.0,0.0,0.0,0.0,0.0,0.0,0.0,0.0,0.0,0.0,0.0,0.0,0.0,0.0,0.0,0.0,0.0,0.0,0.0,0.0,0.0,0.0,0.0,0.0,0.0,0.0,0.0,0.0,0.0,0.0,0.0,0.0,0.0,0.0,0.0,0.0,0.0,0.0,0.0,0.0,0.0,0.0,0.0,0.0,0.0,0.0,0.0,0.0,0.0,0.0,0.0,0.0,0.0,0.0,0.0,0.0,0.0,0.0,0.0,0.0,0.0,0.0,0.0,0.0,0.0,0.0,0.0,0.0,0.0,0.0,0.0,0.0,0.0,0.0,0.0,0.0,0.0,0.0,0.0,0.0,0.0,0.0,0.0,0.0,0.0,0.0,0.0,0.0,0.0,0.0,0.0,0.0,0.0,0.0,0.0,0.0,0.0,0.0,0.0,0.0,0.0,0.0,0.0,0.0,0.0,0.0,0.0,0.0,0.0,0.0,0.0,0.0,0.0,0.0,0.0,0.0,0.0,0.0,0.0,0.0,0.0,0.0,0.0,0.0,0.0,0.0,0.0,0.0,0.0,0.0,0.0,0.0,0.0,0.0,0.0,0.0,0.0,0.0,0.0,0.0,0.0,0.0,0.0,0.0,0.0,0.0,0.0,0.0,0.0,0.0,0.0,0.0,0.0,0.0,0.0,0.0,0.0,0.0,0.0,0.0,0.0,0.0,0.0,0.0,0.0,0.0,0.0,0.0,0.0,0.0,0.0,0.0,0.0,0.0,0.0,0.0,0.0,0.0,0.0,0.0,0.0,0.0,0.0,0.0,0.0,0.0,0.0,0.0,0.0,0.0,0.0,0.0,0.0,0.0,0.0,0.0,0.0,0.0,0.0,0.0,0.0,0.0,0.0,0.0,0.0,0.0,0.0,0.0,0.0,0.0,0.0,0.0,0.0,0.0,0.0,0.0,0.0,0.0,0.0,0.0,0.0,0.0,0.0,0.0,0.0,0.0,0.0,0.0,0.0,0.0,0.0,0.0,0.0,0.0,0.0,0.0,0.0,0.0,0.0,0.0,0.0,0.0,0.0,0.0,0.0,0.0,0.0,0.0,0.0,0.0,0.0,0.0,0.0,0.0,0.0,0.0,0.0,0.0,0.0,0.0,0.0,0.0,0.0,0.0,0.0,0.0,0.0,0.0,0.0,0.0,0.0,0.0,0.0,0.0,0.0,0.0,0.0,0.0,0.0,0.0,0.0,0.0,0.0,0.0,0.0,0.0,0.0,0.0,0.0,0.0,0.0,0.0,0.0,0.0,0.0,0.0,0.0,0.0,0.0,0.0,0.0,0.0,0.0,0.0,0.0,0.0,0.0,0.0,0.0,0.0,0.0,0.0,0.0,0.0,0.0,0.0,0.0,0.0,0.0,0.0,0.0,0.0,0.0,0.0,0.0,0.0,0.0,0.0,0.0,0.0,0.0,0.0,0.0,0.0,0.0,0.0,0.0,0.0,0.0,0.0,0.0,0.0,0.0,0.0,0.0,0.0,0.0,0.0,0.0,0.0,0.0,0.0,0.0,0.0,0.0,0.0,0.0,0.0,0.0,0.0,0.0,0.0,0.0,0.0,0.0,0.0,0.0,0.0,0.0,0.0,0.0,0.0,0.0,0.0,0.0,0.0,0.0,0.0,0.0,0.0,0.0,0.0,0.0,0.0,0.0,0.0,0.0,0.0,0.0,0.0,0.0,0.0,0.0,0.0,0.0,0.0,0.0,0.0,0.0,0.0,0.0,0.0,0.0,0.0,0.0,0.0,0.0,0.0,0.0,0.0,0.0,0.0,0.0,0.0,0.0,0.0,0.0,0.0,0.0,0.0,0.0,0.0,0.0,0.0,0.0,0.0,0.0,0.0,0.0,0.0,0.0,0.0,0.0,0.0,0.0,0.0,0.0,0.0,0.0,0.0,0.0,0.0,0.0,0.0,0.0,0.0,0.0,0.0,0.0,0.0,0.0,0.0,0.0,0.0,0.0,0.0,0.0,0.0,0.0,0.0,0.0,0.0,0.0,0.0,0.0,0.0,0.0,0.0,0.0,0.0,0.0,0.0,0.0,0.0,0.0,0.0,0.0,0.0,0.0,0.0,0.0,0.0,0.0,0.0,0.0,0.0,0.0,0.0,0.0,0.0,0.0,0.0,0.0,0.0,0.0,0.0,0.0,0.0,0.0,0.0,0.0,0.0,0.0,0.0,0.0,0.0,0.0,0.0,0.0,0.0,0.0,0.0,0.0,0.0,0.0,0.0,0.0,0.0,0.0,0.0,0.0,0.0,0.0,0.0,0.0,0.0,0.0,0.0,0.0,0.0,0.0,0.0,0.0,0.0,0.0,0.0,0.0,0.0,0.0,0.0,0.0,0.0,0.0,0.0,0.0,0.0,0.0,0.0,0.0,0.0,0.0,0.0,0.0,0.0,0.0,0.0,0.0,0.0,0.0,0.0,0.0,0.0,0.0,0.0,0.0,0.0,0.0,0.0,0.0,0.0,0.0,0.0,0.0,0.0,0.0,0.0,0.0,0.0,0.0,0.0,0.0,0.0,0.0,0.0,0.0,0.0,0.0,0.0,0.0,0.0,0.0,0.0,0.0,0.0,0.0,0.0,0.0,0.0,0.0,0.0,0.0,0.0,0.0,0.0,0.0,0.0,0.0,0.0,0.0,0.0,0.0,0.0,0.0,0.0,0.0,0.0,0.0,0.0,0.0,0.0,0.0,0.0,0.0,0.0,0.0,0.0,0.0,0.0,0.0,0.0,0.0,0.0,0.0,0.0,0.0,0.0,0.0,0.0,0.0,0.0,0.0,0.0,0.0,0.0,0.0,0.0,0.0,0.0,0.0,0.0,0.0,0.0,0.0,0.0,0.0,0.0,0.0,0.0,0.0,0.0,0.0,0.0,0.0,0.0,0.0,0.0,0.0,0.0,0.0,0.0,0.0,0.0,0.0,0.0,0.0,0.0,0.0,0.0,0.0,0.0,0.0,0.0,0.0,0.0,0.0,0.0,0.0,0.0,0.0,0.0,0.0,0.0,0.0,0.0,0.0,0.0,0.0,0.0,0.0,0.0,0.0,0.0,0.0,0.0,0.0,0.0,0.0,0.0,0.0,0.0,0.0,0.0,0.0,0.0,0.0,0.0,0.0,0.0,0.0,0.0,0.0,0.0,0.0,0.0,0.0,0.0,0.0,0.0,0.0,0.0,0.0,0.0,0.0,0.0,0.0,0.0,0.0,0.0,0.0,0.0,0.0,0.0,0.0,0.0,0.0,0.0,0.0,0.0,0.0,0.0,0.0,0.0,0.0,-0.0976,0.0,0.0,0.0,0.0,0.0,0.0,0.0,0.0,0.0,0.0,0.0,0.0,0.0,0.0,0.0,0.0,0.0,0.0,0.0,0.0,0.0,0.0,0.0,0.0,0.3851,0.407,0.4159,0.4271,0.4326,0.4346,0.0,0.0,0.0,0.0,0.0,0.3952,0.385,0.3759,0.3717,0.3703,0.3565,0.3346,0.3075,0.2753,0.2429,0.0,0.0,0.0,0.0,0.0,0.0,0.0,0.0,0.0,0.0,0.0,0.0,0.0,0.0,0.0,0.0,0.0,0.0,0.0,0.0,0.0,0.0,0.0,0.0,0.0,0.0,0.0,0.0,0.0,0.0,0.0,0.0,0.0,0.0,0.0,0.0,0.0,0.0,0.0,0.0,0.0,0.0,0.0,0.0,0.0,0.0,0.0,0.0,0.0,0.0,0.0,0.0,0.0,0.0,0.0,0.0,0.0,0.0,0.0,0.0,0.0,0.0,0.0,0.0,0.0,0.0,0.0,0.0,0.0,0.0,0.0,-0.1155,0.0,0.0,0.0,0.0,0.0,0.0,0.0,0.0,0.0,0.0,0.0,0.0,0.0,0.0,0.0,0.0,0.0,0.0,0.0,0.0,0.0,0.4029,0.4131,0.4417,0.4672,0.4845,0.4883,0.4866,0.4852,0.4812,0.0,0.0,0.0,0.4324,0.4311,0.4163,0.414,0.4242,0.4047,0.3809,0.3525,0.3403,0.3202,0.2927,0.264,0.0,0.0,0.0,0.0,0.0,0.0,0.0,0.0,0.0,0.0,0.0,0.0,0.0,0.0,0.0,0.0,0.0,0.0,0.0,0.0,0.0,0.0,0.0,0.0,0.0,0.0,0.0,0.0,0.0,0.0,0.0,0.0,0.0,0.0,0.0,0.0,0.0,0.0,0.0,0.0,0.0,0.0,0.0,0.0,0.0,0.0,0.0,0.0,0.0,0.0,0.0,0.0,0.0,0.0,0.0,0.0,0.0,0.0,0.0,0.0,0.0,0.0,0.0,0.0,-0.0385,-0.0977,-0.0984,-0.103,-0.1074,-0.1117,-0.1225,-0.1392,0.0,0.0,0.0,0.0,0.0,0.0,0.0,0.0,0.0,0.0,0.0,0.0,0.0,0.0,0.0,0.0,0.0,0.0,0.0,0.0,0.4417,0.4661,0.4945,0.5097,0.5068,0.5168,0.5199,0.5068,0.4896,0.4811,0.4831,0.4669,0.4602,0.4712,0.453,0.4404,0.4366,0.4218,0.4094,0.3999,0.3861,0.3691,0.3467,0.2797,0.2493,0.2441,0.0,0.0,0.0,0.0,0.0,0.0,0.0,0.0,0.0,0.0,0.0,0.0,0.0,0.0,0.0,0.0,0.0,0.0,0.0,0.0,0.0,0.0,0.0,0.0,0.0,0.0,0.0,0.0,0.0,0.0,0.0,0.0,0.0,0.0,0.0,0.0,0.0,0.0,0.0,0.0,0.0,-0.0501,-0.0433,0.0,0.0,0.0,0.0,0.0,0.0,0.0,0.0,0.0,0.0,0.0,0.0,0.0,0.0,0.0665,0.0795,0.0679,0.0371,0.0392,0.039,0.0345,0.0288,0.0257,0.0211,-0.0529,0.0,-0.1754,-0.1945,0.0,0.0,0.0,0.0,0.0,0.0,0.0,0.0,0.0,0.0,0.0,0.0,0.0,0.0,0.0,0.0,0.0,0.0,0.0,0.0,0.0,0.5465,0.5568,0.5515,0.5452,0.5408,0.5438,0.5252,0.5181,0.5305,0.5099,0.5027,0.5068,0.4877,0.4767,0.4805,0.4781,0.4688,0.4534,0.4294,0.4109,0.3917,0.3458,0.3008,0.2604,0.2321,0.0,0.0,0.0,0.0,0.0,0.0,0.0,0.0,0.0,0.0,0.0,0.0,0.0,0.0,0.0,0.0,0.0,0.0,0.0,0.0,0.0,0.0,0.0,0.0,0.0,0.0,0.0,0.0,0.0,0.0,0.0,0.0,0.0,0.0,0.0,0.0,0.0,0.0,0.0,-0.0508,-0.0342,-0.019,-0.0159,-0.0082,0.0,0.0,0.0,0.0,0.0,0.0,0.0,0.0,0.0,0.1008,0.1109,0.1099,0.1056,0.1224,0.1125,0.0725,0.0872,0.0785,0.0489,0.0455,0.044,0.042,-0.0037,-0.0365,-0.0636,-0.1704,-0.2218,-0.2367,0.0,0.0,0.0,0.0,0.0,-0.3168,0.0,0.0,0.0,0.0,0.0,0.0,0.0,0.0,0.0,0.0,0.0,0.0,0.5805,0.5922,0.5943,0.585,0.5695,0.5641,0.5739,0.5611,0.5564,0.5687,0.5477,0.5432,0.5528,0.5339,0.5233,0.5189,0.5193,0.5112,0.4907,0.4561,0.4367,0.4221,0.3916,0.3497,0.2909,0.2731,0.2409,0.2106,0.0,0.0,0.0,0.0,0.0,0.0,0.0,0.0,0.0,0.0,0.0,0.0,0.0,0.0,0.0,0.0,0.0,0.0,0.0,0.0,0.0,0.0,0.0,0.0,0.0,0.0,0.0,0.0,0.0,0.0,0.0,0.0,0.0,0.0,0.0,0.0,0.0,-0.031,-0.016,0.0,0.0042,0.0174,0.0,0.0,0.0,0.0,0.0,0.0,0.1022,0.1125,0.1284,0.1402,0.1452,0.153,0.1586,0.1805,0.1701,0.1318,0.1502,0.1379,0.0998,0.1043,0.109,0.1103,0.0816,0.0743,0.071,-0.0913,-0.1649,-0.1763,-0.1838,-0.2183,0.0,-0.2719,-0.3044,-0.3465,0.0,0.0,0.0,0.0,0.0,0.0,0.0,0.0,0.0,0.0,0.0,0.6035,0.6251,0.6229,0.6122,0.592,0.5934,0.5909,0.5793,0.5835,0.592,0.5961,0.5745,0.5775,0.6123,0.6029,0.5761,0.5389,0.526,0.5117,0.5009,0.461,0.4412,0.4363,0.3963,0.3708,0.3547,0.3343,0.3026,0.2633,0.2303,0.0,0.0,0.0,0.0,0.0,0.0,0.0,0.0,0.0,0.0,0.0,0.0,0.0,0.0,0.0,0.0,0.0,0.0,0.0,0.0,0.0,0.0,0.0,0.0,0.0,0.0,0.0,0.0,0.0,0.0,0.0,0.0,0.0,0.0,0.0,0.0,0.0,0.0,0.0,0.0226,0.0,0.0,0.0,0.0,0.1056,0.1209,0.1281,0.1273,0.1382,0.1566,0.1786,0.1896,0.2095,0.2342,0.2342,0.2361,0.24,0.246,0.2498,0.258,0.2807,0.2924,0.3046,0.23,0.201,0.1927,0.0612,0.015,0.0242,0.0112,-0.0721,-0.1859,-0.2003,-0.2863,-0.4003,0.0,0.0,0.0,0.0,0.0,0.4633,0.4633,0.4958,0.5299,0.5574,0.5932,0.6202,0.6397,0.6299,0.6238,0.6269,0.6097,0.6159,0.6484,0.6296,0.6251,0.646,0.6214,0.6107,0.6065,0.6146,0.6056,0.5747,0.5752,0.5764,0.5714,0.5282,0.505,0.505,0.4652,0.432,0.3941,0.3473,0.3097,0.2763,0.2529,0.2268,0.0,0.0,0.0,0.0,0.0,0.0,0.0,0.0,0.0,0.0,0.0,0.0,0.0,0.0,0.0,0.0,0.0,0.0,0.0,0.0,0.0,0.0,0.0,0.0,0.0,0.0,0.0,0.0,0.0,0.0,0.0,0.0,0.0,0.0,0.0,0.0,0.0,0.0502,0.0623,0.0,0.1038,0.1125,0.1202,0.136,0.1496,0.1703,0.1873,0.1991,0.2137,0.2266,0.2268,0.2339,0.2486,0.2548,0.2683,0.2833,0.2895,0.302,0.3206,0.3265,0.3326,0.3367,0.3108,0.3044,0.3105,0.2788,0.1799,0.053,0.0571,0.0246,-0.0243,-0.0166,-0.1225,-0.2728,0.0,0.0,0.0,0.4742,0.4742,0.4787,0.4921,0.5227,0.5571,0.5899,0.6211,0.6432,0.6496,0.6337,0.6316,0.6502,0.6289,0.6362,0.6873,0.6607,0.655,0.6749,0.6648,0.6433,0.6106,0.64,0.6391,0.6016,0.6128,0.6173,0.6115,0.5592,0.5404,0.5404,0.5039,0.468,0.4216,0.3837,0.3392,0.2924,0.2771,0.2511,0.2227,0.0,0.0,0.0,0.0,0.0,0.0,0.0,0.0,0.0,0.0,0.0,0.0,0.0,0.0,0.0,0.0,0.0,0.0,0.0,0.0,0.0,0.0,0.0,0.0,0.0,0.0,0.0,0.0,0.0,0.0,0.0,0.0,0.0,0.0,0.0,0.0633,0.0874,0.1004,0.1131,0.1336,0.1449,0.1599,0.1764,0.1935,0.2107,0.2269,0.2451,0.2536,0.2649,0.2713,0.2787,0.288,0.2943,0.3082,0.3297,0.3362,0.3488,0.3617,0.3617,0.3682,0.3682,0.3809,0.393,0.399,0.4181,0.3363,0.2015,0.2044,0.1726,0.1256,0.1397,0.0365,-0.1204,0.0,0.4793,0.4793,0.4793,0.4793,0.494,0.5333,0.5634,0.596,0.6339,0.6629,0.672,0.6521,0.6384,0.6372,0.6484,0.6464,0.6549,0.6862,0.677,0.6762,0.6896,0.6919,0.6735,0.6339,0.6769,0.6768,0.6324,0.6347,0.6319,0.6125,0.5654,0.5419,0.5419,0.5053,0.4742,0.4424,0.4424,0.3967,0.3202,0.3091,0.2814,0.2463,0.0,0.0,0.0,0.0,0.0,0.0,0.0,0.0,0.0,0.0,0.0,0.0,0.0,0.0,0.0,0.0,0.0,0.0,0.0,0.0,0.0,0.0,0.0,0.0,0.0,0.0,0.0,0.0,0.0,0.0,0.0,0.0,0.0,0.062,0.0789,0.096,0.1111,0.1254,0.1336,0.1443,0.1703,0.2002,0.2297,0.2426,0.253,0.2533,0.2657,0.2841,0.3024,0.3149,0.3319,0.3613,0.3616,0.3663,0.3825,0.3825,0.3825,0.3825,0.3961,0.4028,0.4028,0.4428,0.4625,0.4625,0.4761,0.4831,0.4803,0.46,0.3736,0.2587,0.2587,0.183,0.0493,0.4793,0.4793,0.4793,0.4793,0.4793,0.494,0.5333,0.5673,0.6002,0.6366,0.6629,0.672,0.6521,0.6498,0.6584,0.6699,0.6757,0.683,0.697,0.6978,0.6994,0.7069,0.6867,0.6791,0.6799,0.6869,0.6721,0.6525,0.6537,0.6448,0.6333,0.5958,0.5754,0.5758,0.5434,0.4983,0.4568,0.4568,0.42,0.3661,0.3347,0.3039,0.2672,0.0,0.0,0.0,0.0,0.0,0.0,0.0,0.0,0.0,0.0,0.0,0.0,0.0,0.0,0.0,0.0,0.0,0.0,0.0,0.0,0.0,0.0,0.0,0.0,0.0,0.0,0.0,0.0,0.0,0.0,0.0,0.0966,0.1075,0.0847,0.1026,0.126,0.1523,0.1661,0.1832,0.212,0.2259,0.2436,0.2559,0.2761,0.2923,0.3118,0.3312,0.3407,0.3603,0.3607,0.3687,0.3718,0.3718,0.3799,0.3961,0.3961,0.4028,0.4164,0.4361,0.4428,0.4428,0.4628,0.4761,0.4761,0.4957,0.5024,0.5014,0.4938,0.4797,0.4623,0.473,0.3705,0.2027,0.4762,0.4762,0.4762,0.4762,0.4762,0.4942,0.5478,0.5708,0.6004,0.6512,0.6665,0.6651,0.6429,0.6513,0.6655,0.6753,0.6848,0.6914,0.7001,0.7026,0.702,0.7081,0.6981,0.6942,0.6991,0.6939,0.6847,0.6603,0.6611,0.6514,0.633,0.604,0.5822,0.5752,0.5491,0.5114,0.4708,0.4708,0.444,0.3942,0.3691,0.3355,0.2991,0.269,0.2469,0.2258,0.1978,0.1787,0.161,0.1446,0.0,0.0,0.0,0.0,0.0,0.0,0.0,0.0,0.0,0.0,0.0,0.0,0.0,0.0,0.0,0.0,0.0,0.0,0.0,0.0,0.0,0.0,0.0,0.0,0.1314,0.1443,0.1346,0.1411,0.1643,0.1944,0.207,0.2246,0.2636,0.2714,0.289,0.3205,0.3301,0.3412,0.3538,0.367,0.3765,0.3892,0.3892,0.3894,0.4028,0.4092,0.4159,0.4228,0.4295,0.4364,0.45,0.4631,0.4694,0.0,0.4827,0.4894,0.496,0.516,0.5289,0.0,0.0,0.0,0.0,0.0,0.5212,0.4109,0.4691,0.4691,0.4691,0.4691,0.4691,0.4927,0.5679,0.5709,0.5934,0.6678,0.6665,0.6513,0.6315,0.648,0.6624,0.668,0.6838,0.6943,0.7016,0.6927,0.6942,0.7075,0.7148,0.7115,0.7032,0.7077,0.6912,0.6619,0.666,0.6539,0.621,0.602,0.5818,0.5617,0.5425,0.5163,0.4831,0.4764,0.4498,0.4137,0.3993,0.3663,0.327,0.2977,0.2686,0.2397,0.2259,0.2034,0.1786,0.1682,0.0,0.0,0.0,0.0,0.0,0.0,0.0,0.0,0.0,0.0,0.0,0.0,0.0,0.0,0.0,0.0,0.0,0.0,0.0,0.0,0.0,0.0,0.0,0.0,0.1613,0.1818,0.1983,0.1958,0.2066,0.2418,0.2434,0.2643,0.3085,0.3179,0.3365,0.3823,0.3843,0.3825,0.3825,0.0,0.0,0.0,0.0,0.4164,0.4367,0.4561,0.4625,0.4625,0.4761,0.4831,0.4831,0.4827,0.4831,0.4831,0.5024,0.5156,0.5153,0.5359,0.5488,0.5683,0.5683,0.5683,0.5749,0.6079,0.6346,0.0,0.4662,0.4691,0.4691,0.4633,0.4613,0.4854,0.5531,0.5583,0.5793,0.6533,0.6482,0.6337,0.6315,0.6537,0.6637,0.6556,0.6792,0.6996,0.7099,0.6847,0.6862,0.7105,0.7072,0.7077,0.7082,0.6969,0.6926,0.6824,0.6724,0.6539,0.621,0.602,0.5818,0.5617,0.5286,0.5027,0.4764,0.4694,0.448,0.4257,0.4092,0.3727,0.3285,0.3129,0.2895,0.2597,0.2452,0.2306,0.2232,0.2069,0.185,0.1599,0.1495,0.1366,0.0,0.0,0.0,0.0,0.0,0.0,0.0,0.0,0.0,0.0,0.0,0.0,0.0,0.0,0.0,0.0,0.0,0.0,0.0,0.1715,0.2046,0.232,0.2466,0.263,0.273,0.2627,0.2808,0.3046,0.3319,0.3538,0.3727,0.3796,0.3882,0.3961,0.3961,0.4292,0.0,0.4492,0.4561,0.4697,0.4697,0.4764,0.4764,0.4764,0.0,0.0,0.4831,0.4957,0.5024,0.5024,0.5226,0.5422,0.5484,0.555,0.5749,0.6079,0.6079,0.6079,0.6145,0.6474,0.6609,0.6616,0.4419,0.4472,0.4492,0.446,0.457,0.4826,0.5315,0.5528,0.5803,0.6318,0.6237,0.6122,0.606,0.64,0.6563,0.6336,0.6533,0.6805,0.7062,0.6713,0.669,0.7063,0.7089,0.7037,0.6966,0.6908,0.685,0.6811,0.6544,0.6346,0.6017,0.5818,0.562,0.5352,0.5153,0.4957,0.4694,0.4625,0.4495,0.4295,0.4235,0.3911,0.3439,0.3271,0.3027,0.2748,0.2599,0.2483,0.2387,0.2295,0.2076,0.1915,0.1865,0.1792,0.1667,0.0,0.0,0.0,0.0,0.0,0.0,0.0,0.0,0.0,0.0,0.0,0.0,0.0,0.0,0.1513,0.1645,0.0,0.1978,0.2014,0.2362,0.2659,0.2763,0.309,0.3214,0.309,0.3257,0.3434,0.3612,0.3796,0.4028,0.4225,0.4292,0.4361,0.4428,0.4561,0.4694,0.4694,0.4764,0.4831,0.4831,0.4894,0.496,0.496,0.5027,0.5096,0.5096,0.5226,0.5226,0.5292,0.5422,0.5554,0.5617,0.5815,0.6013,0.6214,0.6408,0.6478,0.6478,0.6609,0.6806,0.6937,0.4125,0.4158,0.4219,0.4236,0.4458,0.4751,0.508,0.5405,0.5748,0.6067,0.6029,0.5905,0.5749,0.6193,0.6391,0.6161,0.6319,0.6546,0.6919,0.6525,0.6494,0.6956,0.7029,0.6966,0.6791,0.6812,0.6811,0.6609,0.6342,0.6083,0.5822,0.562,0.5418,0.5087,0.502,0.4824,0.4625,0.4558,0.4428,0.4233,0.4233,0.398,0.3554,0.3364,0.3093,0.2815,0.2723,0.2589,0.2471,0.2471,0.2312,0.2145,0.2145,0.2134,0.2073,0.197,0.192,0.0,0.0,0.0,0.0,0.0,0.0,0.0,0.0,0.1478,0.1482,0.1596,0.1741,0.183,0.1987,0.2198,0.2301,0.2315,0.2729,0.2996,0.3092,0.3443,0.3639,0.3572,0.3637,0.3736,0.3954,0.4095,0.4295,0.4694,0.4694,0.4694,0.4764,0.4831,0.4827,0.4827,0.4897,0.4897,0.4897,0.5093,0.5156,0.5156,0.5292,0.5428,0.5428,0.5428,0.5425,0.5425,0.5617,0.5749,0.5749,0.6079,0.628,0.6346,0.6609,0.6741,0.6806,0.6806,0.6937,0.7204,0.3863,0.3842,0.3884,0.4009,0.4252,0.4537,0.4807,0.514,0.5473,0.5798,0.5795,0.5669,0.5561,0.5896,0.6213,0.6366,0.638,0.6419,0.6401,0.6336,0.6344,0.647,0.6682,0.6791,0.6602,0.6676,0.6613,0.6416,0.628,0.6013,0.5617,0.5491,0.5292,0.5087,0.4758,0.4625,0.4558,0.4431,0.4231,0.4028,0.4028,0.3823,0.3469,0.3423,0.3149,0.2815,0.2723,0.2685,0.2674,0.2674,0.2559,0.238,0.238,0.2228,0.2073,0.2073,0.2071,0.2071,0.2021,0.2021,0.2021,0.2021,0.2021,0.2038,0.0,0.2114,0.208,0.2146,0.2111,0.2171,0.2171,0.2458,0.2659,0.2791,0.312,0.3406,0.3512,0.3811,0.4013,0.4148,0.401,0.3949,0.4231,0.4498,0.4694,0.4764,0.4764,0.4764,0.4831,0.4957,0.5087,0.5087,0.5226,0.5362,0.5362,0.5359,0.5362,0.5362,0.5362,0.5428,0.5428,0.5428,0.5491,0.5617,0.5947,0.6145,0.6145,0.6284,0.6478,0.6675,0.6675,0.6872,0.7134,0.7134,0.7138,0.7269,0.3563,0.3541,0.3567,0.3748,0.4159,0.4477,0.4559,0.4997,0.5352,0.5484,0.5435,0.5302,0.5214,0.5491,0.5853,0.6228,0.6105,0.6058,0.631,0.6142,0.6092,0.6263,0.6567,0.6487,0.6121,0.6361,0.6416,0.609,0.5951,0.5749,0.5491,0.5292,0.509,0.4824,0.4691,0.4561,0.4431,0.4231,0.4097,0.3961,0.3892,0.3761,0.348,0.3323,0.3151,0.3011,0.2803,0.2792,0.0,0.2805,0.283,0.2793,0.2793,0.2767,0.2683,0.2683,0.2683,0.263,0.2471,0.2418,0.2309,0.2202,0.2148,0.2155,0.2186,0.2193,0.2256,0.2345,0.2465,0.2521,0.2577,0.28,0.2999,0.0,0.3378,0.367,0.3911,0.4153,0.4428,0.4564,0.4564,0.4564,0.4564,0.4697,0.4894,0.516,0.5027,0.5027,0.5163,0.5226,0.5292,0.5292,0.5359,0.5428,0.5428,0.5428,0.5428,0.5428,0.5491,0.5488,0.5488,0.5624,0.5756,0.5947,0.6145,0.6214,0.635,0.635,0.6548,0.6741,0.6811,0.6942,0.7204,0.7204,0.7335,0.7531,0.3302,0.3272,0.3315,0.3442,0.3954,0.4346,0.4359,0.4838,0.5157,0.5157,0.5087,0.5042,0.5067,0.5192,0.5471,0.5967,0.5798,0.5789,0.6067,0.5898,0.5839,0.6105,0.6222,0.6186,0.5824,0.6058,0.604,0.576,0.562,0.5422,0.5229,0.5024,0.4824,0.4625,0.4492,0.4361,0.4231,0.4028,0.3894,0.383,0.3761,0.3629,0.3411,0.3244,0.3164,0.3186,0.2888,0.286,0.297,0.297,0.3023,0.3074,0.3074,0.3074,0.3074,0.3074,0.3074,0.3074,0.2856,0.2745,0.2631,0.2462,0.2462,0.2462,0.2462,0.2462,0.2462,0.2631,0.2745,0.2856,0.2914,0.3079,0.3232,0.3487,0.3698,0.3988,0.4338,0.4504,0.4694,0.4894,0.503,0.5096,0.496,0.496,0.5093,0.5425,0.5289,0.5355,0.5557,0.5561,0.5561,0.5561,0.5561,0.5561,0.5561,0.5561,0.5561,0.5561,0.562,0.5683,0.5683,0.5885,0.6086,0.6214,0.6214,0.6284,0.642,0.6482,0.6613,0.6745,0.6942,0.7138,0.7335,0.7335,0.7466,0.7727,0.3019,0.3106,0.3176,0.3128,0.3569,0.4005,0.4276,0.4599,0.4812,0.4812,0.4806,0.49,0.5179,0.5103,0.5152,0.5497,0.5491,0.556,0.5629,0.5609,0.5691,0.5832,0.5697,0.5701,0.582,0.5751,0.5599,0.5428,0.5428,0.5229,0.4831,0.4694,0.4625,0.4558,0.4161,0.4028,0.4028,0.3892,0.3694,0.3498,0.3498,0.3362,0.3215,0.3122,0.3158,0.3177,0.2989,0.2972,0.3074,0.3074,0.3074,0.3074,0.3074,0.3074,0.3074,0.3074,0.3074,0.3074,0.3074,0.3074,0.3074,0.3074,0.3074,0.3074,0.3074,0.3074,0.3074,0.3074,0.3074,0.3074,0.3074,0.3244,0.3542,0.3892,0.4119,0.4335,0.4722,0.4761,0.4894,0.5087,0.5292,0.5425,0.0,0.5488,0.5425,0.555,0.5617,0.5683,0.5888,0.5888,0.5888,0.5888,0.5888,0.5888,0.5888,0.5888,0.5888,0.5888,0.5888,0.5888,0.5888,0.6083,0.621,0.6214,0.635,0.642,0.6416,0.6609,0.6745,0.6946,0.7138,0.74,0.7666,0.7666,0.7666,0.7727,0.3144,0.3108,0.3128,0.3263,0.3438,0.3645,0.3862,0.4237,0.4479,0.4479,0.4388,0.0,0.0,0.0,0.0,0.0,0.5106,0.5094,0.5274,0.5233,0.5224,0.532,0.5402,0.5358,0.5181,0.5253,0.5222,0.5087,0.5048,0.4897,0.4694,0.4498,0.4298,0.4161,0.3959,0.3892,0.3825,0.3696,0.3563,0.3498,0.3362,0.3257,0.3126,0.3034,0.3129,0.3266,0.0,0.3135,0.3299,0.3299,0.3357,0.3413,0.3413,0.3466,0.3591,0.3789,0.3814,0.3831,0.3854,0.3757,0.3679,0.3487,0.3312,0.3187,0.3095,0.3074,0.3074,0.3074,0.3299,0.3413,0.3413,0.3635,0.3857,0.4089,0.4177,0.433,0.4788,0.4955,0.5114,0.5404,0.562,0.0,0.0,0.0,0.0,0.5818,0.5822,0.5822,0.5888,0.5888,0.5888,0.5888,0.5888,0.5888,0.5888,0.5888,0.5888,0.5892,0.6017,0.6148,0.6218,0.6284,0.635,0.635,0.635,0.6482,0.6609,0.6675,0.6872,0.7138,0.7204,0.74,0.7731,0.7857,0.7987,0.8042,0.0,0.3023,0.306,0.3184,0.3295,0.0,0.0,0.0,0.0,0.0,0.0,0.0,0.0,0.0,0.0,0.0,0.0,0.4754,0.4848,0.4855,0.4893,0.4972,0.5033,0.4984,0.481,0.4817,0.4781,0.4696,0.4587,0.4518,0.4361,0.4228,0.4028,0.3894,0.3761,0.3694,0.3694,0.3496,0.3409,0.3379,0.3245,0.3124,0.3032,0.2942,0.3111,0.0,0.3168,0.3244,0.3471,0.3524,0.358,0.3691,0.3747,0.3834,0.3996,0.4143,0.4259,0.4317,0.4281,0.4241,0.4091,0.3867,0.3728,0.3582,0.3442,0.3408,0.3408,0.3408,0.3577,0.3749,0.3749,0.3858,0.4067,0.432,0.44,0.4542,0.5026,0.5164,0.5357,0.5585,0.5847,0.602,0.0,0.0,0.0,0.602,0.602,0.602,0.6086,0.6086,0.6086,0.6086,0.6086,0.6086,0.6086,0.6086,0.6086,0.6086,0.6218,0.635,0.642,0.642,0.642,0.642,0.642,0.6548,0.6675,0.6741,0.6942,0.7204,0.7265,0.7526,0.7792,0.7922,0.8117,0.8306,0.0,0.0,0.2978,0.0,0.0,0.0,0.0,0.0,0.0,0.0,0.0,0.0,0.0,0.0,0.0,0.0,0.0,0.0,0.4376,0.4505,0.458,0.4647,0.4534,0.4524,0.4677,0.4339,0.4234,0.4359,0.4171,0.4038,0.3944,0.3808,0.3742,0.3742,0.3547,0.3482,0.3416,0.3213,0.3097,0.3083,0.3083,0.303,0.294,0.2858,0.2997,0.327,0.3168,0.3302,0.3638,0.3744,0.3796,0.3852,0.3965,0.4116,0.4229,0.4235,0.4389,0.4555,0.4562,0.4565,0.4479,0.432,0.421,0.4201,0.4054,0.4024,0.4024,0.4024,0.4024,0.4021,0.4021,0.0,0.4176,0.4653,0.4738,0.4848,0.5306,0.5519,0.5616,0.0,0.0,0.0,0.0,0.0,0.0,0.628,0.0,0.628,0.6416,0.6416,0.6416,0.6416,0.642,0.642,0.642,0.642,0.642,0.642,0.642,0.642,0.642,0.642,0.642,0.642,0.642,0.6548,0.6741,0.6881,0.7012,0.7269,0.7456,0.7722,0.7987,0.7987,0.8247,0.8517,0.0,0.0,0.0,0.0,0.0,0.0,0.0,0.0,0.0,0.0,0.0,0.0,0.0,0.0,0.0,0.0,0.0,0.0,0.3891,0.3951,0.4014,0.4016,0.4007,0.4041,0.4185,0.3998,0.3904,0.3966,0.3755,0.3628,0.3593,0.3465,0.3274,0.3212,0.2965,0.2841,0.2776,0.2713,0.2638,0.2682,0.2746,0.2757,0.2738,0.2777,0.2956,0.3168,0.3084,0.3352,0.3744,0.3796,0.3852,0.4021,0.4298,0.4455,0.4656,0.5005,0.5207,0.5413,0.5535,0.5373,0.5122,0.4996,0.4743,0.4433,0.4191,0.4132,0.4128,0.4135,0.4245,0.4408,0.4522,0.4629,0.0,0.4845,0.4853,0.0,0.5133,0.5424,0.0,0.5923,0.0,0.6587,0.6732,0.6811,0.0,0.0,0.6749,0.6749,0.6749,0.6679,0.6609,0.6609,0.6482,0.642,0.642,0.642,0.642,0.642,0.642,0.642,0.642,0.642,0.642,0.642,0.6548,0.6679,0.6881,0.7073,0.7269,0.7461,0.7596,0.7792,0.7982,0.8107,0.8371,0.877,0.0,0.0,0.0,0.0,0.0,0.0,0.0,0.0,0.0,0.0,0.0,0.0,0.0,0.0,0.0,0.0,0.0,0.0,0.0,0.3573,0.3668,0.3714,0.3646,0.3669,0.3799,0.3586,0.353,0.3579,0.3292,0.3222,0.3263,0.3018,0.2833,0.2772,0.2651,0.2591,0.253,0.253,0.2509,0.0,0.0,0.261,0.2594,0.2709,0.2902,0.3074,0.3074,0.3463,0.391,0.4073,0.4187,0.4356,0.4519,0.4738,0.4937,0.5207,0.5407,0.5568,0.5645,0.5521,0.5378,0.5197,0.498,0.4752,0.4573,0.4515,0.4512,0.4519,0.4574,0.468,0.4794,0.4846,0.4956,0.0,0.0,0.0,0.5369,0.562,0.586,0.0,0.6423,0.0,0.6741,0.6959,0.7012,0.0,0.6946,0.6881,0.6881,0.6811,0.6811,0.6811,0.6683,0.6618,0.6548,0.642,0.642,0.642,0.642,0.642,0.642,0.642,0.6416,0.6548,0.0,0.6806,0.7007,0.7138,0.733,0.7521,0.7661,0.7792,0.7987,0.8172,0.8436,0.8835,0.0,0.0,0.0,0.0,0.0,0.0,0.0,0.0,0.0,0.0,0.2646,0.2757,0.3013,0.3043,0.0,0.0,0.0,0.0,0.0,0.0,0.336,0.3494,0.3368,0.338,0.35,0.3236,0.3121,0.3212,0.2924,0.2787,0.2857,0.2618,0.2436,0.2436,0.2436,0.2438,0.2377,0.2377,0.24,0.2339,0.2456,0.2472,0.2465,0.0,0.2856,0.313,0.3186,0.3577,0.4079,0.4408,0.4632,0.4691,0.4746,0.4964,0.5147,0.5208,0.5395,0.5502,0.5527,0.5478,0.5457,0.5246,0.5236,0.5137,0.5045,0.5011,0.5011,0.5011,0.5011,0.5011,0.5011,0.5011,0.5069,0.5352,0.0,0.5466,0.574,0.5992,0.6103,0.6125,0.6426,0.6653,0.6706,0.7058,0.7237,0.733,0.7138,0.7012,0.7012,0.6946,0.6946,0.6881,0.6881,0.6811,0.6741,0.6548,0.6486,0.6486,0.642,0.642,0.6486,0.642,0.6548,0.6741,0.0,0.0,0.7204,0.7199,0.733,0.7526,0.7661,0.7857,0.8052,0.8172,0.8501,0.8835,0.0,0.0,0.0,0.0,0.0,0.0,0.0,0.0,0.0,0.0,0.2275,0.2546,0.0,0.0,0.0,0.0,0.0,0.0,0.0,0.0,0.0,0.2878,0.2894,0.2948,0.3106,0.2982,0.2867,0.2826,0.2657,0.2493,0.2334,0.2279,0.2164,0.2107,0.2107,0.2052,0.1941,0.1941,0.1935,0.1925,0.2035,0.2138,0.2296,0.2465,0.0,0.0,0.3688,0.3968,0.4193,0.4577,0.4688,0.4746,0.5077,0.5358,0.5554,0.5842,0.6045,0.6129,0.612,0.6078,0.5963,0.5927,0.5801,0.5652,0.5517,0.5454,0.5454,0.5454,0.5454,0.5513,0.5626,0.5626,0.5681,0.5686,0.574,0.574,0.5795,0.6041,0.6235,0.0,0.6712,0.7072,0.7374,0.7506,0.0,0.0,0.0,0.0,0.7396,0.7269,0.7073,0.6881,0.6881,0.6881,0.6881,0.6815,0.6815,0.6815,0.6679,0.6679,0.6815,0.6679,0.6745,0.6881,0.0,0.0,0.7204,0.7396,0.7456,0.7521,0.7857,0.7987,0.8052,0.8312,0.8635,0.8958,0.0,0.0,0.0,0.0,0.0,0.0,0.0,0.1911,0.1911,0.1911,0.2045,0.2237,0.2443,0.247,0.2564,0.0,0.0,0.0,0.0,0.0,0.0,0.2708,0.2665,0.2688,0.2736,0.2626,0.2565,0.2454,0.0,0.2184,0.2071,0.2018,0.1962,0.1906,0.185,0.1738,0.1685,0.1685,0.1685,0.174,0.1905,0.2071,0.224,0.0,0.0,0.0,0.3799,0.4079,0.4249,0.4684,0.4908,0.5022,0.5242,0.5464,0.5759,0.5871,0.6032,0.6133,0.6125,0.6164,0.6142,0.6164,0.6064,0.5996,0.5837,0.5707,0.5637,0.5579,0.5501,0.5483,0.5539,0.5591,0.5731,0.5947,0.5961,0.6051,0.6263,0.6386,0.6475,0.6577,0.6864,0.7077,0.7294,0.7461,0.7641,0.0,0.0,0.0,0.7787,0.7596,0.74,0.7199,0.7138,0.7073,0.7073,0.6946,0.6881,0.6881,0.6811,0.6811,0.6881,0.6811,0.6876,0.7073,0.0,0.0,0.7396,0.7456,0.7526,0.7657,0.7922,0.8047,0.8112,0.8382,0.8705,0.9017,0.0,0.0,0.0,0.0,0.0,0.0,0.1845,0.1845,0.1845,0.1845,0.1845,0.1924,0.2096,0.2158,0.228,0.0,0.0,0.0,0.0,0.0,0.0,0.0,0.0,0.0,0.0,0.0,0.0,0.2104,0.2016,0.0,0.0,0.0,0.0,0.0,0.1628,0.1515,0.1515,0.1515,0.1572,0.0,0.0,0.1994,0.0,0.0,0.0,0.0,0.0,0.405,0.4263,0.4689,0.5039,0.535,0.5404,0.5651,0.5905,0.59,0.6059,0.6164,0.615,0.6204,0.6317,0.6317,0.6284,0.6201,0.6098,0.5891,0.5696,0.5589,0.5512,0.5447,0.5447,0.5501,0.5705,0.6025,0.6145,0.6285,0.6663,0.6784,0.6815,0.6815,0.6975,0.0,0.7213,0.7488,0.0,0.0,0.0,0.0,0.7987,0.7857,0.7727,0.7526,0.7396,0.7269,0.7265,0.7138,0.7012,0.7012,0.7012,0.7012,0.7012,0.7012,0.7073,0.7265,0.0,0.0,0.0,0.7521,0.7591,0.7731,0.7922,0.8112,0.8236,0.8441,0.8765,0.9017,0.0,0.0,0.0,0.0,0.0,0.0,0.1642,0.1642,0.1642,0.1642,0.1642,0.1713,0.1901,0.208,0.228,0.0,0.0,0.0,0.0,0.0,0.0,0.0,0.0,0.0,0.0,0.0,0.0,0.1827,0.0,0.0,0.0,0.0,0.0,0.0,0.0,0.0,0.1347,0.1347,0.0,0.0,0.0,0.0,0.0,0.0,0.0,0.0,0.0,0.3865,0.4268,0.4515,0.5021,0.5523,0.5783,0.5965,0.6178,0.6332,0.649,0.6647,0.6647,0.6647,0.6647,0.6647,0.6448,0.6297,0.6251,0.6082,0.5878,0.5878,0.5859,0.5849,0.5849,0.5849,0.5903,0.6064,0.6283,0.653,0.6659,0.7008,0.7257,0.7257,0.0,0.0,0.7813,0.7875,0.0,0.0,0.0,0.0,0.0,0.7987,0.7857,0.7666,0.7666,0.7596,0.7456,0.7461,0.7461,0.7461,0.7265,0.7265,0.7461,0.7265,0.7265,0.7456,0.0,0.0,0.0,0.7521,0.7591,0.7731,0.7922,0.8112,0.8236,0.8635,0.8894,0.9017,0.0,0.0,0.0,0.0,0.0,0.0,0.1778,0.1709,0.1676,0.1676,0.1642,0.1656,0.1784,0.1926,0.2118,0.2315,0.233,0.0,0.0,0.0,0.0,0.0,0.0,0.0,0.0,0.0,0.1756,0.161,0.1672,0.0,0.0,0.0,0.0,0.0,0.0,0.0,0.1107,0.1107,0.0,0.0,0.0,0.0,0.0,0.0,0.0,0.0,0.0,0.0,0.4225,0.4519,0.496,0.5485,0.5673,0.5963,0.6273,0.6494,0.6756,0.6918,0.6961,0.6919,0.6927,0.6927,0.6743,0.6514,0.642,0.624,0.6081,0.5982,0.5913,0.5858,0.5858,0.5909,0.6048,0.6231,0.6503,0.6762,0.6923,0.7209,0.7419,0.7419,0.7467,0.0,0.0,0.0,0.0,0.0,0.0,0.0,0.0,0.8242,0.8047,0.7857,0.7797,0.7661,0.7596,0.7526,0.7521,0.7521,0.7396,0.7396,0.7521,0.7396,0.7396,0.7521,0.0,0.0,0.0,0.7591,0.7727,0.7922,0.8047,0.8242,0.8441,0.8705,0.8894,0.9017,0.0,0.0,0.0,0.0,0.0,0.1914,0.1911,0.1811,0.1744,0.1744,0.1709,0.1712,0.1771,0.1903,0.2067,0.2229,0.2228,0.0,0.0,0.0,0.0,0.0,0.0,0.0,0.0,0.0,0.1592,0.1451,0.1559,0.1589,0.0,0.0,0.0,0.0,0.0,0.0,0.0,0.0,0.0,0.0,0.0,0.0,0.0,0.0,0.0,0.0,0.0,0.0,0.0,0.0,0.0,0.5357,0.5588,0.5923,0.6292,0.6535,0.6775,0.6976,0.6952,0.7002,0.6985,0.6985,0.6792,0.6599,0.651,0.6279,0.6107,0.6012,0.5914,0.5879,0.5922,0.6013,0.6162,0.6387,0.6672,0.693,0.72,0.7459,0.7647,0.7777,0.0,0.7783,0.0,0.0,0.0,0.0,0.0,0.0,0.0,0.8565,0.8306,0.8047,0.7922,0.7857,0.7792,0.7661,0.7591,0.7591,0.7526,0.7521,0.7521,0.7521,0.7521,0.0,0.0,0.0,0.0,0.7661,0.7857,0.8047,0.8172,0.8306,0.8517,0.877,0.8894,0.9017,0.0,0.0,0.0,0.0,0.0,0.1981,0.1911,0.1911,0.1911,0.1911,0.1911,0.1918,0.199,0.2133,0.2237,0.2296,0.2229,0.0,0.0,0.0,0.0,0.0,0.0,0.0,0.1794,0.166,0.1524,0.139,0.1449,0.1477,0.1478,0.1439,0.1312,0.0,0.0,0.0,0.0,0.0,0.0,0.0,0.0,0.0,0.0,0.0,0.0,0.0,0.0,0.0,0.0,0.0,0.0,0.0,0.0,0.5996,0.6307,0.6316,0.6455,0.6637,0.6673,0.6707,0.6707,0.6707,0.6573,0.6396,0.6396,0.6201,0.5981,0.5981,0.5981,0.6019,0.6184,0.6179,0.627,0.6483,0.6711,0.7028,0.7449,0.7727,0.8005,0.0,0.0,0.8368,0.0,0.0,0.0,0.0,0.0,0.0,0.0,0.0,0.8635,0.8236,0.8166,0.8107,0.7987,0.7797,0.7731,0.7666,0.7591,0.7521,0.7521,0.7521,0.0,0.0,0.0,0.0,0.0,0.7731,0.7917,0.8172,0.8172,0.8306,0.8511,0.8894,0.9017,0.9017,0.0,0.0,0.0,0.0,0.0,0.0,0.2047,0.2014,0.1981,0.1981,0.1914,0.1892,0.1926,0.2026,0.2092,0.2235,0.2321,0.0,0.0,0.0,0.0,0.0,0.0,0.0,0.1928,0.1794,0.1658,0.1524,0.1544,0.1507,0.1418,0.1342,0.1304,0.1257,0.1117,0.0979,0.0,0.0979,0.0,0.0,0.0,0.0,0.0,0.0,0.0,0.0,0.0,0.0,0.0,0.0,0.0,0.0,0.0,0.0,0.0,0.6012,0.6446,0.6805,0.6846,0.6819,0.6822,0.6822,0.6726,0.6619,0.6619,0.6557,0.6496,0.6496,0.6496,0.6496,0.6538,0.6538,0.6575,0.6617,0.6849,0.7126,0.7449,0.7721,0.0,0.8336,0.8421,0.8421,0.0,0.0,0.0,0.0,0.0,0.0,0.0,0.0,0.8829,0.8635,0.8371,0.8172,0.8107,0.7987,0.7857,0.7731,0.7661,0.7591,0.7521,0.7521,0.0,0.0,0.0,0.0,0.0,0.7917,0.8107,0.8236,0.8376,0.8447,0.8511,0.8894,0.9017,0.9017,0.0,0.0,0.0,0.0,0.0,0.0,0.2117,0.2047,0.2047,0.2047,0.2014,0.1981,0.1981,0.2046,0.2154,0.2302,0.2474,0.0,0.0,0.0,0.0,0.0,0.0,0.0,0.2064,0.1928,0.1794,0.1658,0.1658,0.1614,0.1478,0.1433,0.1389,0.1299,0.1208,0.112,0.0,0.112,0.0,0.0,0.0,0.0,0.1837,0.0,0.0,0.0,0.0,0.0,0.0,0.0,0.0,0.0,0.0,0.0,0.0,0.0,0.6319,0.6672,0.6718,0.673,0.673,0.673,0.6743,0.6715,0.6715,0.6715,0.6715,0.6715,0.6715,0.6708,0.6751,0.6793,0.6793,0.6878,0.7028,0.7276,0.7714,0.0,0.0,0.8587,0.0,0.0,0.0,0.0,0.0,0.0,0.0,0.0,0.0,0.0,0.9017,0.8894,0.8501,0.8306,0.8306,0.8177,0.7982,0.7917,0.7857,0.7727,0.7591,0.0,0.0,0.0,0.0,0.0,0.0,0.8107,0.8236,0.8306,0.8447,0.8576,0.8641,0.8894,0.9017,0.9145,0.0,0.0,0.0,0.0,0.0,0.0,0.0,0.2117,0.2117,0.2117,0.2117,0.2117,0.2117,0.2216,0.2365,0.2479,0.2642,0.0,0.0,0.0,0.0,0.0,0.0,0.2284,0.2243,0.2109,0.1973,0.1839,0.1839,0.1748,0.1614,0.1614,0.1523,0.1344,0.1344,0.1254,0.1119,0.1254,0.0,0.0,0.1524,0.1703,0.0,0.0,0.0,0.0,0.0,0.0,0.0,0.0,0.0,0.0,0.0,0.0,0.0,0.0,0.0,0.0,0.0,0.6447,0.652,0.6526,0.6617,0.6708,0.6715,0.6715,0.0,0.6715,0.6715,0.6751,0.6914,0.6914,0.6999,0.7167,0.7209,0.7465,0.0,0.8329,0.0,0.0,0.0,0.0,0.0,0.0,0.0,0.0,0.0,0.0,0.0,0.0,0.0,0.9017,0.8705,0.8517,0.8517,0.8306,0.8236,0.8172,0.8047,0.7922,0.7731,0.0,0.0,0.0,0.0,0.0,0.0,0.8236,0.8306,0.8517,0.8517,0.8641,0.8835,0.8952,0.9145,0.9338,0.0,0.0,0.0,0.0,0.0,0.0,0.0,0.0,0.0,0.0,0.2117,0.2117,0.2117,0.2211,0.2344,0.0,0.0,0.0,0.0,0.0,0.0,0.0,0.246,0.246,0.2417,0.2417,0.2286,0.2109,0.2109,0.1975,0.1748,0.1748,0.1748,0.1658,0.1569,0.1433,0.1344,0.1299,0.0,0.0,0.1703,0.1839,0.0,0.0,0.0,0.0,0.2933,0.3175,0.0,0.0,0.0,0.0,0.0,0.0,0.0,0.0,0.5558,0.5685,0.6132,0.0,0.6526,0.6617,0.6751,0.6872,0.0,0.6943,0.6943,0.6943,0.6943,0.6992,0.7083,0.7125,0.7167,0.7335,0.7335,0.7587,0.821,0.0,0.0,0.8995,0.0,0.0,0.0,0.0,0.0,0.0,0.0,0.0,0.0,0.0,0.0,0.9017,0.8829,0.8641,0.8517,0.8447,0.8376,0.8172,0.8172,0.8047,0.7922,0.0,0.0,0.0,0.0,0.0,0.8236,0.8376,0.8447,0.8517,0.8517,0.8641,0.8835,0.8952,0.9145,0.9338,0.0,0.0,0.0,0.0,0.0,0.0,0.0,0.0,0.0,0.0,0.2117,0.2117,0.2183,0.2253,0.237,0.0,0.0,0.0,0.0,0.0,0.0,0.2815,0.2729,0.2684,0.2684,0.2551,0.2462,0.233,0.233,0.2239,0.2014,0.2018,0.1928,0.1884,0.1748,0.1658,0.1569,0.1524,0.1614,0.1703,0.1839,0.0,0.0,0.0,0.0,0.0,0.2771,0.2959,0.0,0.3338,0.3597,0.3833,0.0,0.0,0.0,0.0,0.5113,0.528,0.5732,0.6138,0.6489,0.6575,0.6702,0.6836,0.695,0.695,0.6943,0.6985,0.6979,0.7027,0.7076,0.7118,0.716,0.737,0.7539,0.0,0.0,0.0,0.9159,0.0,0.0,0.0,0.0,0.0,0.0,0.0,0.0,0.0,0.0,0.0,0.0,0.0,0.8899,0.8705,0.8517,0.8517,0.8447,0.8306,0.8306,0.8242,0.8112,0.0,0.0,0.0,0.0,0.0,0.8376,0.8447,0.8517,0.8517,0.8582,0.877,0.8894,0.9081,0.9274,0.9408,0.0,0.0,0.0,0.0,0.0,0.0,0.0,0.0,0.0,0.0,0.0,0.0,0.0,0.0,0.0,0.0,0.0,0.0,0.0,0.0,0.0,0.3258,0.3043,0.2954,0.2954,0.2729,0.2593,0.2593,0.2549,0.2504,0.2368,0.2286,0.2152,0.2062,0.1927,0.1837,0.1839,0.1839,0.1839,0.1839,0.1973,0.0,0.0,0.0,0.0,0.0,0.0,0.0,0.0,0.3042,0.334,0.3665,0.3805,0.0,0.0,0.0,0.0,0.0,0.524,0.5773,0.6228,0.6428,0.6575,0.6666,0.6829,0.6872,0.6872,0.6985,0.6985,0.6985,0.7027,0.7027,0.7112,0.737,0.0,0.0,0.8806,0.9066,0.9159,0.0,0.0,0.0,0.0,0.0,0.0,0.0,0.0,0.0,0.0,0.0,0.0,0.0,0.8829,0.8705,0.8517,0.8517,0.8517,0.8517,0.8517,0.8376,0.8236,0.8447,0.0,0.0,0.0,0.0,0.8517,0.8517,0.8511,0.8582,0.8705,0.8894,0.9081,0.921,0.9408,0.9548,0.0,0.0,0.0,0.0,0.0,0.0,0.0,0.0,0.0,0.0,0.0,0.0,0.0,0.0,0.0,0.0,0.0,0.0,0.0,0.3215,0.3357,0.3527,0.3306,0.3173,0.3173,0.3129,0.3037,0.2901,0.2862,0.2776,0.264,0.2506,0.2373,0.2237,0.2237,0.215,0.1973,0.1973,0.1973,0.1973,0.1975,0.0,0.0,0.0,0.0,0.0,0.0,0.0,0.0,0.2618,0.2723,0.2895,0.3022,0.0,0.0,0.0,0.0,0.0,0.4656,0.5076,0.5462,0.6083,0.6361,0.6453,0.6526,0.666,0.6751,0.6872,0.6914,0.6956,0.7125,0.7167,0.7209,0.7377,0.0,0.8343,0.0,0.0,0.0,0.0,0.0,0.0,0.0,0.0,0.0,0.0,0.0,0.0,0.0,0.0,0.0,0.0,0.0,0.8705,0.8517,0.8517,0.8517,0.8517,0.8517,0.8511,0.8447,0.8511,0.8511,0.0,0.0,0.8517,0.8517,0.8517,0.8582,0.877,0.877,0.8958,0.9274,0.9274,0.9408,0.9548,0.0,0.0,0.0,0.0,0.0,0.0,0.0,0.0,0.0,0.0,0.0,0.0,0.0,0.0,0.0,0.0,0.0,0.0,0.0,0.3182,0.334,0.3453,0.344,0.3435,0.3306,0.3214,0.317,0.3123,0.3084,0.304,0.2951,0.2815,0.2726,0.264,0.2551,0.2462,0.2375,0.2286,0.2284,0.2279,0.0,0.0,0.0,0.0,0.0,0.0,0.0,0.0,0.0,0.0,0.2377,0.2543,0.2606,0.0,0.0,0.0,0.0,0.0,0.4122,0.4423,0.4689,0.5275,0.575,0.6099,0.619,0.6319,0.6489,0.6653,0.6696,0.6738,0.6921,0.6921,0.7105,0.764,0.0,0.0,0.0,0.0,0.0,0.0,0.0,0.0,0.0,0.0,0.0,0.0,0.0,0.0,0.0,0.0,0.0,0.0,0.0,0.8582,0.8517,0.8517,0.8517,0.8517,0.8517,0.8517,0.8517,0.8517,0.8517,0.0,0.0,0.8517,0.8517,0.8641,0.8705,0.8835,0.9022,0.9145,0.9338,0.9472,0.9664,0.9798,0.0,0.0,0.0,0.0,0.0,0.0,0.0,0.0,0.0,0.0,0.0,0.0,0.0,0.0,0.0,0.0,0.0,0.0,0.0,0.3112,0.3273,0.3347,0.3576,0.3612,0.3483,0.3394,0.335,0.335,0.3347,0.3303,0.3306,0.317,0.3084,0.3001,0.2865,0.2818,0.2773,0.264,0.2536,0.2505,0.0,0.0,0.0,0.0,0.0,0.0,0.0,0.0,0.0,0.0,0.0,0.0,0.0,0.0,0.0,0.2739,0.2838,0.3037,0.352,0.3784,0.4009,0.4473,0.5148,0.5712,0.5804,0.597,0.6142,0.6355,0.6398,0.6441,0.6581,0.6674,0.0,0.7821,0.8062,0.0,0.0,0.0,0.0,0.0,0.0,0.0,0.0,0.0,0.0,0.0,0.0,0.0,0.0,0.0,0.0,0.0,0.0,0.0,0.8447,0.8447,0.8517,0.8517,0.8517,0.8517,0.8517,0.8517,0.8517,0.8517,0.8517,0.8517,0.8576,0.8705,0.8835,0.8958,0.921,0.9338,0.9472,0.9734,0.9926,1.011,0.0,0.0,0.0,0.0,0.0,0.0,0.0,0.0,0.0,0.0,0.0,0.0,0.0,0.0,0.0,0.0,0.0,0.0,0.29,0.3052,0.3241,0.3472,0.3619,0.3697,0.37,0.3792,0.3836,0.3836,0.3744,0.3615,0.3578,0.3442,0.3353,0.3353,0.3217,0.3081,0.299,0.2907,0.2713,0.2485,0.2349,0.0,0.0,0.0,0.0,0.0,0.0,0.0,0.0,0.0,0.0,0.0,0.0,0.0,0.2181,0.2308,0.2405,0.2539,0.2866,0.3164,0.3438,0.3775,0.4622,0.5328,0.5333,0.5545,0.5809,0.5976,0.6019,0.611,0.6367,0.6693,0.7077,0.7635,0.0,0.0,0.0,0.0,0.0,0.0,0.0,0.0,0.0,0.0,0.0,0.0,0.0,0.0,0.0,0.0,0.0,0.0,0.0,0.0,0.8236,0.8376,0.8517,0.8517,0.8517,0.8517,0.8517,0.8517,0.8517,0.8517,0.8517,0.8576,0.877,0.877,0.8958,0.9274,0.9274,0.9472,0.974,0.9804,0.9989,1.0308,0.0,0.0,0.0,0.0,0.0,0.0,0.0,0.0,0.0,0.0,0.0,0.0,0.0,0.0,0.0,0.0,0.0,0.0,0.2764,0.2936,0.3124,0.3364,0.3641,0.382,0.3924,0.3928,0.388,0.388,0.3836,0.3792,0.3796,0.3751,0.3707,0.3707,0.3568,0.348,0.3347,0.3172,0.2938,0.2713,0.2405,0.2184,0.0,0.0,0.0,0.0,0.0,0.0,0.0,0.0,0.1414,0.1512,0.1512,0.1611,0.1742,0.1876,0.1942,0.205,0.2489,0.2695,0.2866,0.3207,0.3785,0.4355,0.4753,0.5019,0.5241,0.5501,0.5545,0.5679,0.6085,0.0,0.6866,0.716,0.0,0.0,0.0,0.0,0.0,0.0,0.0,0.0,0.0,0.0,0.0,0.0,0.0,0.0,0.0,0.0,0.0,0.0,0.0,0.0,0.0,0.8242,0.8306,0.8306,0.8447,0.8517,0.8517,0.8517,0.8517,0.8517,0.8646,0.8705,0.8835,0.9022,0.921,0.9338,0.9536,0.967,0.9804,1.0053,1.018,1.0301,0.0,0.0,0.0,0.0,0.0,0.0,0.0,0.0,0.0,0.0,0.0,0.0,0.0,0.0,0.0,0.0,0.0,0.0,0.2712,0.2885,0.3089,0.3275,0.3603,0.3902,0.4069,0.4077,0.4104,0.4104,0.41,0.4144,0.4144,0.41,0.4056,0.4012,0.388,0.3796,0.3656,0.337,0.3115,0.2896,0.252,0.2233,0.0,0.0,0.0,0.0,0.0,0.0,0.0,0.0,0.1111,0.1145,0.1145,0.1209,0.1341,0.1408,0.1477,0.1615,0.1981,0.2151,0.2319,0.2621,0.299,0.3385,0.3957,0.4312,0.4666,0.4932,0.5115,0.5385,0.5856,0.6261,0.0,0.0,0.0,0.0,0.0,0.0,0.0,0.0,0.0,0.0,0.0,0.0,0.0,0.0,0.0,0.0,0.0,0.0,0.0,0.0,0.0,0.0,0.7922,0.8107,0.8172,0.8236,0.8376,0.8517,0.8517,0.8517,0.8517,0.8582,0.877,0.8835,0.8958,0.921,0.9338,0.9472,0.9734,0.9862,0.9996,1.0244,1.0371,1.0434,0.0,0.0,0.0,0.0,0.0,0.0,0.0,0.0,0.2117,0.2117,0.2117,0.0,0.0,0.0,0.0,0.0,0.0,0.0,0.2712,0.2885,0.3075,0.3186,0.3578,0.3843,0.4016,0.432,0.4504,0.4504,0.4578,0.4618,0.4618,0.4539,0.4412,0.4316,0.4148,0.402,0.3873,0.3496,0.3179,0.2988,0.2625,0.2251,0.1878,0.0,0.0,0.0,0.0,0.0,0.0,0.0,0.0808,0.0808,0.0808,0.0841,0.0908,0.0908,0.1043,0.1207,0.1373,0.1527,0.1762,0.2012,0.2279,0.2549,0.281,0.3517,0.4136,0.4276,0.4735,0.5268,0.578,0.6005,0.0,0.0,0.0,0.0,0.0,0.0,0.0,0.0,0.0,0.0,0.0,0.0,0.0,0.0,0.0,0.0,0.0,0.0,0.0,0.0,0.0,0.0,0.7666,0.8047,0.8172,0.8172,0.8376,0.8517,0.8517,0.8517,0.8641,0.877,0.877,0.9022,0.9274,0.9274,0.9472,0.9804,0.9804,0.9989,1.0301,1.0301,1.0434,1.0624,0.0,0.0,0.0,0.0,0.0,0.0,0.0,0.0,0.2117,0.2117,0.2117,0.0,0.0,0.0,0.0,0.0,0.0,0.0,0.2712,0.2851,0.3029,0.3183,0.3434,0.3722,0.4012,0.4354,0.4578,0.4578,0.4574,0.4618,0.4618,0.4578,0.4535,0.4487,0.4491,0.436,0.4168,0.3748,0.3356,0.2981,0.2596,0.2208,0.1878,0.0,0.0,0.0,0.0,0.0,0.0,0.0,0.0,0.0,0.0504,0.0538,0.0571,0.0605,0.0672,0.0758,0.0917,0.1099,0.1245,0.1489,0.1791,0.2016,0.2105,0.2812,0.3551,0.3932,0.4416,0.4848,0.5103,0.5284,0.0,0.0,0.0,0.0,0.0,0.0,0.0,0.0,0.0,0.0,0.0,0.0,0.0,0.0,0.0,0.0,0.0,0.0,0.0,0.0,0.0,0.0,0.7335,0.7787,0.8047,0.8047,0.8382,0.8517,0.8517,0.8641,0.877,0.8835,0.9022,0.921,0.9338,0.9536,0.9734,0.9804,1.0053,1.018,1.0301,1.0434,1.0624,1.0744,0.0,0.0,0.0,0.0,0.0,0.0,0.0,0.0,0.2117,0.2117,0.2117,0.2181,0.0,0.0,0.0,0.2613,0.2679,0.0,0.2712,0.2841,0.2944,0.3082,0.3337,0.3688,0.4131,0.4409,0.459,0.4757,0.4757,0.4757,0.4757,0.4757,0.4709,0.4666,0.4666,0.4578,0.4339,0.389,0.3467,0.3055,0.2584,0.2208,0.1878,0.0,0.0,0.0,0.0,0.0,0.0,0.0,0.0,0.0,0.0202,0.0202,0.0202,0.0235,0.0269,0.0344,0.0459,0.0628,0.0803,0.0922,0.121,0.1478,0.1614,0.231,0.3104,0.3566,0.3969,0.4256,0.4474,0.4566,0.0,0.0,0.0,0.0,0.0,0.0,0.0,0.0,0.0,0.0,0.0,0.0,0.0,0.0,0.0,0.0,0.0,0.0,0.0,0.0,0.0,0.0,0.7204,0.7727,0.7987,0.7987,0.8317,0.8517,0.8641,0.877,0.8835,0.8894,0.9344,0.9472,0.9536,0.9798,0.9926,0.9989,1.0244,1.0364,1.0491,1.0618,1.0807,1.0933,0.0,0.0,0.2712,0.2712,0.0,0.0,0.0,0.0,0.2117,0.2117,0.2117,0.215,0.0,0.0,0.0,0.251,0.2613,0.2712,0.2712,0.2805,0.2904,0.29,0.3278,0.3746,0.4324,0.4364,0.4601,0.4957,0.4975,0.499,0.5029,0.499,0.4941,0.4845,0.4801,0.4714,0.4478,0.3951,0.3525,0.3135,0.2641,0.2189,0.1845,0.1642,0.0,0.0,0.0,0.0,0.0,0.0,0.0,0.0,-0.0101,-0.0134,-0.0134,-0.0134,-0.0101,-0.0034,-0.0038,0.0157,0.0362,0.0352,0.0583,0.094,0.1254,0.19,0.2608,0.3097,0.3373,0.3604,0.3831,0.391,0.0,0.0,0.0,0.0,0.0,0.0,0.0,0.0,0.0,0.0,0.0,0.0,0.0,0.0,0.0,0.0,0.0,0.0,0.0,0.0,0.0,0.0,0.7204,0.7727,0.7987,0.0,0.8317,0.8576,0.877,0.8835,0.8894,0.9081,0.9606,0.9804,0.9804,0.9989,1.011,1.0301,1.0308,1.0555,1.0807,1.0807,1.0933,1.1122,0.0,0.0,0.2712,0.2712,0.0,0.0,0.0,0.0,0.2117,0.2117,0.2117,0.215,0.2286,0.2347,0.0,0.251,0.2613,0.2712,0.2712,0.2782,0.2845,0.29,0.3278,0.3629,0.3925,0.4227,0.4528,0.4776,0.4905,0.5072,0.5154,0.5029,0.5029,0.5106,0.4985,0.4806,0.4561,0.4161,0.3707,0.3149,0.267,0.2183,0.1711,0.1445,0.1211,0.0,0.0,0.0,0.0,0.0,0.0,0.0,-0.0303,-0.0336,-0.0336,-0.0403,-0.037,-0.031,-0.0306,-0.0157,0.0,-0.0044,0.0225,0.0584,0.0808,0.1091,0.1547,0.2311,0.2597,0.2828,0.307,0.0,0.0,0.0,0.0,0.0,0.0,0.0,0.0,0.0,0.0,0.0,0.0,0.0,0.0,0.0,0.0,0.0,0.0,0.0,0.0,0.0,0.0,0.6679,0.6946,0.7396,0.7722,0.0,0.8177,0.8436,0.8835,0.8894,0.9215,0.9606,0.974,0.9862,0.9989,1.018,1.0238,1.0308,1.0618,1.0744,1.0807,1.0996,1.1122,1.124,0.0,0.0,0.0,0.0,0.0,0.0,0.0,0.0,0.2117,0.2117,0.2117,0.2117,0.2183,0.2284,0.0,0.0,0.2543,0.2646,0.2679,0.2749,0.2845,0.3003,0.3234,0.3495,0.3761,0.4,0.427,0.4618,0.4777,0.4924,0.5111,0.5029,0.5029,0.5111,0.498,0.4801,0.4561,0.4165,0.3748,0.3258,0.27,0.2212,0.1744,0.1412,0.1111,0.0808,0.0538,0.0,0.0,0.0,0.0,0.0,0.0,0.0,-0.0605,-0.0639,-0.0605,-0.0586,-0.0612,-0.0511,-0.0321,-0.0308,-0.009,0.0135,0.0225,0.0382,0.0655,0.1158,0.1602,0.2017,0.0,0.0,0.0,0.0,0.0,0.0,0.0,0.0,0.0,0.0,0.0,0.0,0.0,0.0,0.0,0.0,0.0,0.0,0.0,0.0,0.0,0.0,0.6218,0.6552,0.6881,0.733,0.7657,0.7987,0.8107,0.8431,0.8894,0.9081,0.9408,0.9804,0.9868,0.9989,1.0174,1.0428,1.0555,1.0555,1.087,1.0996,1.1052,1.1185,1.1373,1.1553,0.0,0.0,0.0,0.0,0.0,0.0,0.0,0.0,0.0,0.2117,0.2117,0.2117,0.2117,0.222,0.2317,0.0,0.0,0.0,0.2646,0.2749,0.2882,0.3072,0.3142,0.3311,0.3638,0.3748,0.3989,0.4391,0.4585,0.4753,0.4933,0.4971,0.5029,0.5029,0.4888,0.4714,0.4565,0.4118,0.3708,0.3334,0.2754,0.2296,0.1847,0.1445,0.1076,0.0773,0.0471,0.0202,-0.0034,-0.0235,0.0,0.0,0.0,0.0,-0.0808,-0.0841,-0.0841,-0.0826,-0.0909,-0.0786,-0.065,-0.0485,-0.036,-0.027,-0.0225,-0.0143,-0.005,0.005,0.0641,0.0,0.0,0.0,0.0,0.0,0.0,0.0,0.0,0.0,0.0,0.0,0.0,0.0,0.0,0.0,0.0,0.0,0.0,0.0,0.0,0.0,0.5359,0.555,0.6083,0.6486,0.6881,0.7199,0.7591,0.7987,0.8236,0.856,0.9081,0.9274,0.9536,0.9868,0.9989,1.0174,1.0428,1.0681,1.0807,1.087,1.1059,1.1185,1.1303,1.1365,1.1553,1.1802,0.0,0.0,0.0,0.0,0.0,0.0,0.0,0.0,0.0,0.0,0.2117,0.2117,0.2117,0.222,0.232,0.232,0.2414,0.251,0.251,0.0,0.0,0.2933,0.3039,0.3187,0.3349,0.3608,0.3787,0.3876,0.4327,0.4546,0.4578,0.4852,0.5072,0.5154,0.4932,0.467,0.4499,0.4212,0.3727,0.3188,0.2845,0.2373,0.1847,0.1378,0.1043,0.0773,0.0437,0.0134,-0.0101,-0.0235,-0.0471,0.0,0.0,0.0,-0.0908,-0.1009,-0.0976,-0.0887,-0.098,-0.0982,-0.0887,-0.0711,-0.0629,-0.0584,-0.0405,-0.0373,-0.034,0.0,0.0,0.0,0.0,0.0,0.0,0.0,0.0,0.0,0.0,0.0,0.0,0.0,0.0,0.0,0.0,0.0,0.0,0.0,0.0,0.0,0.0,0.4561,0.496,0.5425,0.5756,0.6218,0.6741,0.6876,0.7335,0.7987,0.863,0.9017,0.9274,0.96,0.9798,0.9989,1.0174,1.0428,1.0744,1.0807,1.087,1.1059,1.1247,1.1303,1.1373,1.1615,1.174,1.1802,0.0,0.0,0.0,0.0,0.0,0.0,0.0,0.0,0.0,0.0,0.0,0.2117,0.2117,0.215,0.222,0.2286,0.235,0.2414,0.251,0.2679,0.2815,0.2845,0.294,0.3039,0.3175,0.3353,0.3513,0.3725,0.4007,0.4242,0.4459,0.4596,0.4782,0.4975,0.4718,0.4543,0.4364,0.4012,0.3621,0.3175,0.2788,0.2345,0.1869,0.1434,0.1003,0.0663,0.0404,0.0072,-0.0211,-0.0282,-0.0483,-0.0706,-0.0773,0.0,0.0,0.0,-0.1043,-0.103,-0.1043,-0.1082,-0.1065,-0.0977,-0.0942,-0.0897,-0.0807,-0.0787,-0.0814,-0.0778,0.0,0.0,0.0,0.0,0.0,0.0,0.0,0.0,0.0,0.0,0.0,0.0,0.0,0.0,0.0,0.0,0.0,0.0,0.0,0.0,0.3832,0.4231,0.4694,0.5223,0.5554,0.0,0.6675,0.6811,0.7335,0.8107,0.8694,0.9145,0.9396,0.9792,0.9926,1.0047,1.0308,1.0618,1.08,1.0989,1.1115,1.1247,1.149,1.1553,1.1615,1.1872,1.1996,1.2112,0.0,0.0,0.0,0.0,0.0,0.0,0.0,0.0,0.0,0.0,0.0,0.2117,0.2117,0.0,0.0,0.0,0.2286,0.235,0.2474,0.2613,0.2716,0.2782,0.2808,0.2904,0.3039,0.3105,0.3235,0.3512,0.3633,0.3862,0.4185,0.4237,0.44,0.4626,0.4499,0.432,0.414,0.3788,0.348,0.3084,0.2721,0.2319,0.1875,0.1432,0.099,0.061,0.036,0.0039,-0.0297,-0.0297,-0.0467,-0.0721,-0.079,-0.0851,0.0,0.0,0.0,-0.1104,-0.1148,-0.1171,-0.1218,-0.1149,-0.1164,-0.1164,-0.1119,0.0,-0.1082,0.0,0.0,0.0,0.0,0.0,0.0,0.0,0.0,0.0,0.0,0.0,0.0,0.0,0.0,0.0,0.0,0.0,0.0,0.0,0.0,0.0,0.3429,0.3966,0.4431,0.4957,0.5352,0.5947,0.6609,0.7007,0.7526,0.8306,0.8759,0.921,0.9588,0.9856,1.0047,1.0174,1.0498,1.0744,1.087,1.1178,1.1365,1.1428,1.1677,1.1802,1.1872,1.2058,1.2182,1.2305,0.0,0.0,0.0,0.0,0.0,0.0,0.0,0.0,0.0,0.0,0.0,0.2117,0.2117,0.2117,0.2117,0.2117,0.222,0.2317,0.2408,0.2408,0.251,0.2679,0.2716,0.0,0.29,0.29,0.2937,0.2948,0.3255,0.35,0.3637,0.385,0.3983,0.4152,0.4276,0.4096,0.3744,0.3619,0.3357,0.2909,0.2595,0.2279,0.1921,0.1387,0.0984,0.0665,0.0378,0.004,-0.0313,0.0,0.0,0.0,0.0,-0.0912,-0.0942,0.0,0.0,0.0,-0.1264,-0.1301,-0.129,-0.1273,-0.1299,-0.1254,-0.1119,0.0,0.0,0.0,0.0,0.0,0.0,0.0,0.0,0.0,0.0,0.0,0.0,0.0,0.0,0.0,0.0,0.0,0.0,0.0,0.0,0.0,0.0,0.0,0.3159,0.3694,0.4228,0.4625,0.5286,0.5885,0.642,0.7461,0.8117,0.8517,0.8829,0.928,0.9804,0.9926,1.0238,1.0561,1.0744,1.087,1.1122,1.1247,1.149,1.1802,1.1802,1.1934,1.2127,1.2243,1.2305,1.2305,0.0,0.0,0.0,0.0,0.0,0.0,0.0,0.0,0.0,0.0,0.0,0.0,0.0,0.2159,0.2203,0.2093,0.223,0.232,0.235,0.2377,0.2441,0.251,0.251,0.2543,0.2639,0.2639,0.2673,0.2775,0.2903,0.3011,0.3162,0.3324,0.3445,0.3517,0.3785,0.3788,0.3619,0.335,0.304,0.2732,0.2415,0.2101,0.1701,0.1387,0.0987,0.0538,0.0395,0.0,0.0,0.0,0.0,0.0,0.0,-0.087,-0.0926,-0.1111,-0.1142,-0.1138,-0.1264,-0.1298,-0.1326,-0.136,-0.1344,-0.1344,-0.1299,-0.1299,-0.1304,0.0,0.0,0.0,0.0,0.0,0.0,0.0,0.0,0.0,0.0,0.0,0.0,0.0,0.0,0.0,0.0,0.0,0.0,0.0,0.0,0.0,0.3025,0.3558,0.4092,0.4558,0.5156,0.5888,0.6683,0.747,0.8057,0.8517,0.8829,0.9344,0.9926,0.9983,1.0301,1.0744,1.0933,1.1059,1.1247,1.149,1.1677,1.1802,1.2058,1.2182,1.2243,1.2436,1.256,1.2621,0.0,0.0,0.0,0.0,0.0,0.2343,0.2258,0.2188,0.2167,0.2167,0.0,0.0,0.0,0.0,0.2209,0.2099,0.2175,0.2221,0.2215,0.2239,0.2253,0.2278,0.2275,0.2311,0.2377,0.2377,0.2411,0.2513,0.2513,0.2583,0.2753,0.286,0.2964,0.3063,0.3287,0.335,0.3357,0.3037,0.2771,0.2509,0.2237,0.188,0.1523,0.13,0.0943,0.0494,0.0,0.0,0.0,0.0,0.0,0.0,0.0,-0.0876,-0.0976,-0.1134,-0.117,-0.1196,-0.1259,-0.1286,-0.1311,-0.1365,-0.1389,-0.1389,-0.1389,0.0,0.0,0.0,0.0,0.0,0.0,0.0,0.0,0.0,0.0,0.0,0.0,0.0,0.0,0.0,0.0,0.0,0.0,0.0,0.0,0.0,0.0,0.0,0.2887,0.3424,0.4025,0.4827,0.5359,0.6086,0.6881,0.7405,0.7922,0.8376,0.8823,0.9344,0.9926,0.9983,1.0301,1.0933,1.1059,1.1185,1.1303,1.1677,1.1872,1.1934,1.2182,1.2367,1.2428,1.2621,1.2744,1.2805,0.0,0.0,0.2504,0.2504,0.2504,0.2504,0.2504,0.2373,0.2308,0.2308,0.0,0.0,0.0,0.0,0.0,0.2123,0.2119,0.2075,0.2013,0.2006,0.1995,0.1991,0.1986,0.2019,0.2083,0.2083,0.2083,0.2083,0.2083,0.2207,0.2396,0.2444,0.2569,0.2691,0.268,0.2732,0.2868,0.2732,0.2509,0.2201,0.202,0.1748,0.1389,0.1168,0.0855,0.0,0.0405,0.0135,0.0,-0.036,0.0,0.0,0.0,-0.0941,-0.1103,-0.1103,-0.1182,-0.1311,0.0,0.0,0.0,-0.1374,-0.1389,-0.1389,-0.1389,0.0,0.0,0.0,0.0,0.0,0.0,0.0,0.0,0.0,0.0,0.0,0.0,0.0,0.0,0.0,0.0,0.0,0.0,0.0,0.0,0.0,0.0,0.2086,0.2679,0.3224,0.4097,0.5362,0.5885,0.6412,0.6881,0.7405,0.7852,0.8236,0.8753,0.928,0.9804,0.9926,1.0428,1.1122,1.1122,1.1185,1.1365,1.1677,1.1934,1.2143,1.2259,1.2452,1.2653,1.2776,1.2838,1.2838,0.0,0.2504,0.246,0.237,0.2368,0.2326,0.2286,0.2264,0.2247,0.0,0.0,0.0,0.2167,0.2189,0.2186,0.2222,0.2158,0.2107,0.2078,0.2075,0.2067,0.1999,0.1995,0.1994,0.1947,0.1947,0.1947,0.1947,0.1947,0.2001,0.211,0.2145,0.2172,0.2273,0.2199,0.2196,0.2241,0.2333,0.2243,0.202,0.1703,0.1478,0.1299,0.1034,0.0,0.0,0.0,0.0225,-0.009,0.0,-0.0401,-0.0486,0.0,-0.0858,-0.091,-0.0993,-0.109,-0.1152,-0.1206,0.0,0.0,0.0,0.0,0.0,-0.1389,-0.1389,0.0,0.0,0.0,0.0,0.0,0.0,0.0,0.0,0.0,0.0,0.0,0.0,0.0,0.0,0.0,0.0,0.0,0.0,0.0,0.0,0.1504,0.207,0.261,0.3517,0.4492,0.5362,0.5756,0.6284,0.6881,0.7335,0.7782,0.8236,0.8753,0.928,0.9804,0.9926,1.0428,1.1122,1.1122,1.131,1.1677,1.1934,1.2265,1.2615,1.2814,1.3156,1.3567,1.3567,1.3769,1.393,0.2415,0.2373,0.2328,0.2284,0.2239,0.2239,0.2154,0.2109,0.2109,0.0,0.0,0.0,0.2201,0.2196,0.2206,0.2244,0.2151,0.2021,0.1982,0.1937,0.1897,0.1805,0.1801,0.1776,0.1723,0.1723,0.1705,0.1705,0.1705,0.1697,0.1752,0.1839,0.1884,0.1937,0.1848,0.1794,0.1748,0.1794,0.1794,0.1748,0.1478,0.1256,0.1124,0.0876,0.0642,0.0,0.0,0.0,-0.0045,-0.0225,-0.036,0.0,0.0,0.0,-0.0866,0.0,-0.102,-0.1129,-0.1159,-0.1166,-0.1215,-0.1246,0.0,0.0,-0.1344,-0.1389,-0.1389,0.0,0.0,0.0,0.0,0.0,0.0,0.0,0.0,0.0,0.0,0.0,0.0,0.0,0.0,0.0,0.0,0.0,0.0,0.0,0.1461,0.2071,0.2898,0.383,0.4622,0.5362,0.5756,0.6222,0.6881,0.733,0.7717,0.8107,0.8694,0.921,0.9606,0.9856,1.0364,1.0996,1.1059,1.1373,1.1802,1.1996,1.2382,1.2819,1.3028,1.3429,1.3933,1.3924,1.4131,1.437,0.0,0.2196,0.2154,0.2154,0.2162,0.2123,0.1988,0.1996,0.1956,0.0,0.191,0.2048,0.2184,0.2184,0.2184,0.2184,0.2084,0.1956,0.1839,0.1739,0.1658,0.1542,0.1539,0.1496,0.1488,0.143,0.1399,0.1399,0.1399,0.1402,0.1376,0.1538,0.1643,0.1653,0.1586,0.1478,0.1344,0.1299,0.1299,0.13,0.126,0.1084,0.0,0.0,0.057,0.0369,0.0247,0.0097,-0.0046,-0.018,-0.036,0.0,0.0,0.0,0.0,0.0,-0.0988,-0.1075,-0.1075,-0.1075,-0.1119,-0.1119,-0.1208,0.0,-0.1299,-0.1344,-0.1389,0.0,0.0,0.0,0.0,0.0,0.0,0.0,0.0,0.0,0.0,0.0,0.0,0.0,0.0,0.0,0.0,0.0,0.0568,0.0994,0.1467,0.2235,0.3339,0.3951,0.4607,0.5362,0.5756,0.6222,0.6881,0.7265,0.7657,0.7987,0.8694,0.9081,0.9338,0.9792,1.0301,1.0807,1.0996,1.1373,1.1809,1.1996,1.2413,1.2881,1.3083,1.3509,1.4047,1.418,1.438,1.4588,0.1927,0.1884,0.1884,0.1884,0.1937,0.1933,0.1933,0.1985,0.1976,0.1976,0.1976,0.2026,0.2026,0.2026,0.2026,0.2026,0.1968,0.1926,0.1864,0.1806,0.1738,0.1661,0.1658,0.1629,0.149,0.1475,0.143,0.1313,0.1313,0.1339,0.1309,0.1252,0.1286,0.1371,0.1248,0.1164,0.1164,0.1033,0.0944,0.0856,0.0929,0.0894,0.0708,0.0628,0.0446,0.0255,0.0207,0.0102,-0.0049,-0.0276,-0.0405,-0.0539,0.0,0.0,0.0,-0.0719,0.0,0.0,0.0,0.0,0.0,0.0,0.0,0.0,-0.1119,-0.1164,-0.1164,0.0,0.0,0.0,0.0,0.0,0.0,0.0,0.0,0.0,0.0,0.0,0.0,0.0,0.0,0.0,0.0,0.0,0.0562,0.1019,0.1798,0.26,0.3339,0.3947,0.4587,0.5359,0.5756,0.6222,0.6881,0.7138,0.7526,0.7987,0.8571,0.9022,0.9338,0.9792,1.0238,1.0681,1.0996,1.131,1.1685,1.1996,1.2559,1.3314,1.3431,1.4074,1.492,1.499,1.5217,1.547,0.1842,0.185,0.1862,0.19,0.1939,0.1915,0.1865,0.1896,0.1869,0.1817,0.1869,0.192,0.197,0.2021,0.2021,0.2021,0.1886,0.1865,0.1865,0.1702,0.1649,0.1615,0.1536,0.1459,0.1385,0.1315,0.1219,0.1138,0.1138,0.1151,0.1136,0.1118,0.1142,0.1208,0.0986,0.0897,0.0897,0.0719,0.0592,0.0557,0.0663,0.0,0.0527,0.0451,0.0309,0.021,0.0108,0.0053,-0.005,-0.029,-0.0418,0.0,0.0,-0.0731,-0.0719,0.0,-0.0764,-0.081,0.0,0.0,0.0,-0.0897,0.0,0.0,0.0,-0.1031,-0.1119,-0.1119,0.0,0.0,0.0,0.0,0.0,0.0,0.0,0.0,0.0,0.0,0.0,0.0,0.0,0.0,0.0,0.0,0.0897,0.1513,0.2139,0.2743,0.3322,0.3924,0.4592,0.5308,0.5716,0.6222,0.6881,0.7073,0.7461,0.7987,0.8447,0.8829,0.9145,0.9664,1.0117,1.0498,1.0933,1.1247,1.1498,1.1934,1.2526,1.3282,1.3526,1.4287,1.5204,1.5204,1.5426,1.5771,0.1821,0.1832,0.185,0.191,0.1931,0.1888,0.1786,0.1797,0.1759,0.1665,0.1782,0.1896,0.2001,0.1988,0.198,0.198,0.1853,0.1786,0.1786,0.1575,0.1494,0.1494,0.1345,0.1269,0.1269,0.1089,0.1024,0.0982,0.0982,0.0982,0.094,0.0971,0.0986,0.0986,0.0763,0.0629,0.063,0.0453,0.0371,0.0383,0.0,0.0391,0.0344,0.0262,0.016,0.016,0.0055,0.0,-0.0051,-0.0303,-0.0339,-0.0415,-0.0658,-0.0697,0.0,0.0,0.0,0.0,0.0,0.0,0.0,0.0,0.0,-0.081,0.0,0.0,0.0,-0.0986,0.0,0.0,0.0,0.0,0.0,0.0,0.0,0.0,0.0,0.0,0.0,0.0,0.0,0.0,0.0,0.0,0.1345,0.1959,0.2413,0.2805,0.329,0.396,0.4659,0.5198,0.5672,0.6222,0.6881,0.7073,0.74,0.7987,0.8312,0.8635,0.9017,0.9536,0.9919,1.0238,1.0807,1.1122,1.1303,1.1809,1.2462,1.314,1.3459,1.4219,1.5133,1.5204,1.5426,1.5726,0.1604,0.1655,0.1658,0.1665,0.1713,0.1749,0.1696,0.1743,0.1794,0.1843,0.1957,0.1992,0.1992,0.1942,0.1909,0.1909,0.1811,0.1696,0.1696,0.1537,0.1403,0.1403,0.1207,0.1135,0.1135,0.1091,0.1024,0.0893,0.0893,0.0848,0.0714,0.0628,0.0584,0.0584,0.0494,0.045,0.0451,0.0421,0.0333,0.0,0.0257,0.021,0.0,0.022,0.0111,0.0,0.0,0.0,0.0,0.0,-0.02,-0.0246,0.0,-0.0509,-0.0565,-0.0682,0.0,0.0,0.0,0.0,0.0,0.0,-0.0539,0.0,0.0,0.0,-0.0494,-0.0494,0.0,0.0,0.0,0.0,0.0,0.0,0.0,0.0,0.0,0.0,0.0,0.0,0.0,0.0,0.0,0.0,0.0,0.1959,0.2417,0.2913,0.3462,0.3947,0.4566,0.5325,0.5741,0.6222,0.6881,0.6946,0.7269,0.7987,0.8172,0.8495,0.9017,0.9396,0.9722,1.0047,1.0498,1.0814,1.1122,1.1498,1.2205,1.314,1.3459,1.4159,1.4935,1.5133,1.5346,1.5576,0.1412,0.1406,0.1415,0.1446,0.1469,0.1494,0.1693,0.1803,0.1907,0.1931,0.1956,0.1971,0.1971,0.195,0.1933,0.1933,0.1888,0.1846,0.0,0.0,0.1438,0.1356,0.1156,0.1023,0.1,0.0938,0.0874,0.0764,0.0719,0.0629,0.0584,0.0494,0.045,0.045,0.0315,0.027,0.027,0.0188,0.0145,0.0,0.0,0.0,0.0,0.0112,0.0056,0.0,0.0,0.0,0.0,0.0,-0.0209,0.0,0.0,0.0,0.0,0.0,0.0,0.0,0.0,0.0,0.0,0.0,0.0,0.0,-0.0405,0.0,-0.0405,0.0,0.0,0.0,0.0,0.0,0.0,0.0,0.0,0.0,0.0,0.0,0.0,0.0,0.0,0.0,0.0,0.0,0.0,0.0,0.0,0.3039,0.3542,0.3949,0.4553,0.525,0.5597,0.6116,0.6881,0.6881,0.7269,0.7987,0.8047,0.8371,0.8894,0.921,0.9524,0.9716,1.0364,1.0688,1.0877,1.1373,1.1958,1.26,1.3263,1.4037,1.4935,1.5007,1.5141,1.5346,0.121,0.1252,0.1311,0.1301,0.1309,0.1381,0.1605,0.1776,0.1871,0.1871,0.1885,0.1894,0.1894,0.1882,0.1871,0.1871,0.1859,0.1772,0.0,0.0,0.142,0.1263,0.106,0.097,0.0885,0.0828,0.0761,0.0686,0.0595,0.05,0.045,0.0405,0.036,0.036,0.0225,0.0136,0.0138,0.0048,0.0,0.0,0.0,0.0,0.0,0.0,0.0,0.0,0.0,0.0,0.0,-0.0112,-0.0163,0.0,-0.0314,0.0,0.0,0.0,0.0,0.0,-0.0421,0.0,0.0,0.0,0.0,0.0,0.0,0.0,0.0,0.0,0.0,0.0,0.0,0.0,0.0,-0.0045,0.0,0.0,0.0,0.0,0.0,0.0,0.0,0.0,0.0,0.0,0.0,0.0,0.2965,0.0,0.3635,0.4098,0.4641,0.5211,0.5557,0.6105,0.6881,0.6881,0.7274,0.7922,0.7987,0.8247,0.8705,0.9087,0.9332,0.9518,1.0174,1.0498,1.0624,1.1247,1.1745,1.227,1.2981,1.3838,1.4792,1.4864,1.5007,1.5133,0.0935,0.1146,0.1302,0.1406,0.1413,0.1428,0.1413,0.1454,0.1543,0.1543,0.1582,0.0,0.0,0.0,0.0,0.0,0.0,0.142,0.1419,0.0,0.1215,0.0,0.0,0.0881,0.0903,0.082,0.0742,0.062,0.062,0.0515,0.0405,0.027,0.0225,0.018,0.0045,0.0,0.0,0.0,0.0,0.0,0.0,0.0,0.0,0.0,0.0,0.0,0.0,0.0,0.0,0.0,0.0,0.0,0.0,0.0,0.0,0.0,0.0,0.0,0.0,0.0,0.0,-0.0238,0.0,0.0,0.0,0.0,0.0225,0.0,0.0,0.0,0.0,0.0,0.036,0.036,0.0405,0.0,0.0,0.0,0.0,0.0,0.0,0.0,0.0,0.0,0.0,0.2685,0.3249,0.0,0.3796,0.4378,0.4876,0.5396,0.5747,0.6237,0.6881,0.6881,0.7143,0.7731,0.7922,0.8182,0.8511,0.8829,0.9204,0.9518,0.9849,1.0238,1.0624,1.0996,1.1682,1.2586,1.2729,1.3477,1.4433,1.4792,1.4872,1.4935,0.0971,0.1025,0.1081,0.1153,0.1156,0.1167,0.1328,0.1521,0.0,0.0,0.1676,0.0,0.0,0.162,0.1611,0.0,0.0,0.1535,0.1375,0.1284,0.0,0.0,0.0,0.0913,0.0,0.0853,0.0771,0.0594,0.0495,0.0389,0.0281,0.014,0.0047,0.0047,0.0,0.0,0.0,0.0,0.0,0.0,0.0,0.0,0.0,0.0,0.0,0.0,0.0,0.0,0.0,0.0,0.0,0.0,-0.0055,-0.0055,-0.0055,-0.0107,-0.0161,0.0,0.0,0.0,0.005,0.0149,0.0,0.0,0.0,0.0,0.0,0.0,0.0,0.0,0.0,0.045,0.0494,0.0584,0.0673,0.0762,0.0,0.0,0.0,0.0,0.0,0.0,0.0,0.0,0.0,0.2959,0.3357,0.3694,0.0,0.4343,0.478,0.5232,0.5578,0.6121,0.6749,0.688,0.7143,0.7731,0.7922,0.8112,0.8306,0.87,0.8958,0.921,0.9524,0.9849,1.0238,1.0624,1.1175,1.1961,1.2445,1.3072,1.3767,1.4347,1.4649,1.4713,0.0939,0.0941,0.1004,0.1004,0.1022,0.1107,0.0,0.0,0.0,0.0,0.1515,0.0,0.1531,0.0,0.1531,0.0,0.1508,0.1406,0.1231,0.1208,0.0,0.1006,0.0986,0.0,0.0,0.0,0.0,0.0514,0.0462,0.0303,0.0146,0.0049,0.0,0.0,0.0,0.0,0.0,0.0,0.0,0.0,0.0,0.0,0.0,0.0,0.0,0.0,0.0,0.0,0.0,0.0,0.0,0.0,0.0056,0.0056,0.0056,0.0109,0.0165,0.0167,0.0265,0.026,0.0,0.036,0.0407,0.0,0.0539,0.0,0.0,0.0,0.0,0.0,0.0,0.0,0.0763,0.0808,0.0941,0.1119,0.0,0.1433,0.0,0.0,0.0,0.0,0.0,0.0,0.2876,0.3234,0.358,0.386,0.0,0.0,0.4811,0.5266,0.5668,0.6149,0.671,0.691,0.7204,0.7661,0.7857,0.8047,0.8172,0.8571,0.8894,0.9017,0.9332,0.9716,1.0047,1.0434,1.1047,1.1703,1.2244,1.2873,1.357,1.4204,1.4497,1.4569,0.0774,0.0909,0.0975,0.0975,0.1087,0.0,0.0,0.0,0.1168,0.0,0.117,0.1171,0.1171,0.1171,0.1171,0.1171,0.117,0.1156,0.1127,0.1124,0.0,0.0,0.1036,0.0945,0.089,0.0,0.0,0.0,0.0427,0.0262,0.0,0.0,0.0,0.0,0.0,0.0,0.0,0.0,0.0,0.0,0.0,0.0,0.0,0.0,0.0,0.0,0.0,0.0,0.0,0.0,0.0,0.0056,0.0168,0.0224,0.0224,0.0336,0.0393,0.0393,0.0393,0.0438,0.0427,0.0427,0.0,0.0,0.0,0.0,0.101,0.0,0.0,0.0,0.0,0.0,0.1125,0.1123,0.1256,0.1389,0.1614,0.1748,0.0,0.0,0.0,0.0,0.0,0.2773,0.3118,0.3566,0.3858,0.4187,0.0,0.0,0.0,0.5374,0.5842,0.6267,0.6697,0.7035,0.733,0.7521,0.7852,0.7987,0.7987,0.8571,0.8835,0.9017,0.9332,0.9652,1.0047,1.0448,1.1111,1.1983,1.2201,1.2943,1.387,1.4217,1.4497,1.4569,0.0548,0.0768,0.092,0.0,0.1073,0.1155,0.0,0.0,0.0,0.0,0.122,0.1311,0.1311,0.1311,0.1311,0.1311,0.1213,0.0,0.0,0.0,0.0,0.11,0.1077,0.1048,0.0948,0.0906,0.0,0.0459,0.0,0.0272,0.0,0.0,0.0,0.0,0.0,0.0,0.0,0.0,0.0,0.0,0.0,0.0,0.0,0.0,0.0118,0.018,0.0057,0.0056,0.0168,0.0168,0.0224,0.028,0.0336,0.0336,0.0336,0.0393,0.0393,0.0449,0.0561,0.0669,0.0775,0.0886,0.099,0.1085,0.0,0.0,0.0,0.0,0.0,0.0,0.0,0.0,0.0,0.1555,0.16,0.1703,0.1884,0.0,0.0,0.2237,0.0,0.0,0.0,0.3068,0.337,0.3724,0.4132,0.4408,0.0,0.0,0.0,0.531,0.5835,0.6263,0.6619,0.7026,0.733,0.7521,0.7852,0.7987,0.7987,0.8382,0.8705,0.9017,0.9081,0.9466,1.0002,1.0406,1.1036,1.1792,1.2304,1.2998,1.3863,1.4065,1.4201,1.4201,0.0428,0.0583,0.0,0.0741,0.0,0.0,0.119,0.0,0.0,0.125,0.1266,0.0,0.1296,0.1285,0.1277,0.1277,0.1249,0.0,0.1213,0.0,0.0,0.1142,0.1112,0.1082,0.1052,0.1006,0.0,0.0471,0.0,0.0282,0.0,0.0,0.0,0.0,0.0,0.0,0.0,0.0,0.0,0.0,0.0,0.0,0.0,0.012,0.0243,0.0369,0.0237,0.0293,0.0351,0.0351,0.0406,0.0458,0.0516,0.0511,0.0561,0.0673,0.0729,0.0729,0.0898,0.101,0.1066,0.1178,0.1234,0.134,0.1479,0.1527,0.1572,0.0,0.0,0.0,0.0,0.0,0.0,0.2059,0.211,0.2221,0.0,0.0,0.0,0.0,0.2973,0.0,0.0,0.3506,0.3628,0.4051,0.4349,0.0,0.0,0.0,0.0,0.5407,0.5985,0.6422,0.6602,0.7062,0.7396,0.7521,0.7852,0.7987,0.7987,0.8317,0.8705,0.9017,0.9017,0.9403,1.0114,1.0409,1.104,1.1859,1.2522,1.3114,1.3564,1.3775,1.392,1.4129,0.0294,0.0451,0.0,0.0,0.0,0.0,0.0,0.1252,0.0,0.1305,0.0,0.1318,0.1261,0.1324,0.1309,0.1309,0.0,0.1252,0.1226,0.1219,0.1204,0.1174,0.1147,0.1117,0.1082,0.1054,0.0885,0.0,0.0,0.035,0.0056,0.0056,0.0,0.0,0.0,0.0,0.0,0.0,0.0058,0.0059,0.0059,0.0181,0.0311,0.0311,0.0436,0.0563,0.0563,0.0559,0.0556,0.0556,0.0546,0.0593,0.0712,0.0756,0.0852,0.1076,0.1131,0.1189,0.1306,0.1365,0.142,0.1416,0.1409,0.1517,0.1807,0.1859,0.1908,0.2128,0.2242,0.0,0.0,0.0,0.0,0.2537,0.0,0.0,0.0,0.0,0.0,0.0,0.0,0.0,0.0,0.0,0.391,0.4494,0.4574,0.0,0.0,0.0,0.0,0.0,0.629,0.0,0.6703,0.0,0.7521,0.7526,0.7852,0.7987,0.8047,0.8382,0.8705,0.9022,0.9051,0.9521,1.0207,1.0482,1.1162,1.2094,1.2795,1.3119,1.3193,1.3419,1.371,1.3985,0.0077,0.0237,0.0,0.0,0.0,0.0752,0.0994,0.1162,0.1334,0.1339,0.134,0.1258,0.1263,0.1259,0.134,0.134,0.1312,0.0,0.0,0.0,0.0,0.1205,0.1199,0.117,0.1114,0.1084,0.0986,0.0,0.0,0.0603,0.0234,0.0234,0.0173,0.0,0.0,0.0,0.0,0.018,0.0,0.0245,0.0367,0.0437,0.0449,0.0449,0.0586,0.0731,0.0731,0.0773,0.0741,0.0741,0.08,0.0919,0.1164,0.1221,0.1211,0.1369,0.142,0.1426,0.1448,0.1637,0.1873,0.1902,0.2016,0.2201,0.2262,0.2229,0.2128,0.2184,0.2397,0.2611,0.2611,0.0,0.0,0.0,0.0,0.0,0.0,0.0,0.0,0.0,0.0,0.0,0.0,0.0,0.4333,0.4776,0.0,0.0,0.0,0.0,0.0,0.0,0.0,0.0,0.0,0.0,0.0,0.7661,0.7922,0.8047,0.8172,0.8382,0.8705,0.9028,0.9234,0.9687,1.0238,1.0893,1.1703,1.2451,1.2652,1.2826,1.2973,1.32,1.3193,1.3193,0.0,0.0,0.0,0.0,0.0,0.0,0.0,0.0951,0.0,0.1371,0.1369,0.1376,0.1391,0.1379,0.1369,0.1369,0.1343,0.1319,0.1303,0.1289,0.1267,0.1236,0.122,0.0,0.1169,0.1123,0.1017,0.0858,0.0,0.0685,0.0423,0.0423,0.0359,0.0236,0.0236,0.0238,0.0,0.0,0.0,0.0379,0.0442,0.0579,0.066,0.066,0.0799,0.0942,0.101,0.1059,0.1033,0.1033,0.1087,0.1199,0.1389,0.1437,0.1416,0.1585,0.1653,0.1796,0.1874,0.2051,0.2276,0.2255,0.2335,0.2479,0.2549,0.258,0.2604,0.2586,0.2813,0.2972,0.2921,0.3147,0.0,0.0,0.0,0.0,0.0,0.0,0.0,0.0,0.0,0.0,0.0,0.0,0.0,0.0,0.0,0.0,0.0,0.0,0.0,0.0,0.0,0.0,0.0,0.0,0.0,0.7857,0.8047,0.8107,0.8236,0.8376,0.8772,0.9217,0.9336,0.9814,1.0514,1.1194,1.1879,1.2452,1.2526,1.2673,1.2746,1.2973,1.2973,1.2973,0.0,0.0,0.0,0.0,0.0173,0.0,0.035,0.071,0.107,0.1315,0.1399,0.1409,0.1433,0.1414,0.1399,0.1399,0.1373,0.1346,0.1323,0.1309,0.1292,0.1268,0.1238,0.1218,0.1212,0.1165,0.1053,0.0,0.0,0.0,0.0561,0.0561,0.0559,0.0,0.0,0.0,0.0,0.0,0.0574,0.0587,0.0586,0.0726,0.0876,0.0876,0.101,0.1143,0.1277,0.1345,0.1345,0.1412,0.1391,0.143,0.1626,0.1664,0.1695,0.1821,0.1969,0.2187,0.2253,0.2481,0.264,0.264,0.2677,0.2703,0.2853,0.3017,0.3124,0.3109,0.3273,0.3409,0.3298,0.3506,0.0,0.0,0.0,0.0,0.0,0.0,0.0,0.0,0.0,0.0,0.0,0.0,0.0,0.0,0.0,0.5572,0.5845,0.6046,0.0,0.0,0.0,0.0,0.753,0.0,0.7982,0.0,0.8172,0.8236,0.8242,0.856,0.8948,0.9394,0.957,1.0154,1.0961,1.147,1.1929,1.2298,1.2452,1.2526,1.2526,1.2753,1.2826,1.282,0.0,0.0,0.0,0.0,0.0,0.0,0.0,0.0448,0.0627,0.1073,0.1252,0.1432,0.1435,0.1433,0.1431,0.1431,0.1403,0.1384,0.1382,0.1332,0.1301,0.1299,0.1269,0.124,0.1213,0.1206,0.1175,0.0,0.0,0.0949,0.0,0.0772,0.0,0.0,0.0,0.0,0.0,0.0662,0.0804,0.0806,0.0938,0.1074,0.1076,0.1211,0.1278,0.1277,0.148,0.1547,0.1614,0.1749,0.1746,0.1608,0.181,0.2007,0.2138,0.2271,0.2471,0.2606,0.2673,0.2804,0.3002,0.3135,0.3206,0.334,0.3456,0.3482,0.3456,0.3448,0.3722,0.3942,0.3937,0.4033,0.411,0.0,0.0,0.0,0.0,0.0,0.0,0.0,0.0,0.0,0.0,0.0,0.0,0.0,0.0,0.595,0.6005,0.6454,0.6827,0.6992,0.0,0.7734,0.7952,0.7977,0.0,0.8172,0.8166,0.8306,0.8452,0.8931,0.9237,0.9411,1.009,1.0888,1.1594,1.1694,1.1929,1.2305,1.2298,1.2305,1.2378,1.2526,1.2526,1.2378,0.0,0.0,0.0,0.0,0.0,0.0,0.0,0.0269,0.0448,0.0628,0.0987,0.1256,0.1346,0.1436,0.1436,0.1436,0.1424,0.141,0.1391,0.1368,0.1339,0.1304,0.1291,0.127,0.124,0.1221,0.12,0.0,0.0,0.0,0.0,0.0,0.0,0.0,0.0,0.086,0.0861,0.0938,0.101,0.1011,0.1233,0.131,0.1312,0.1544,0.1625,0.1625,0.1837,0.1909,0.1908,0.2259,0.2073,0.1817,0.2087,0.2221,0.2356,0.2555,0.2755,0.2889,0.2956,0.3159,0.3362,0.3498,0.357,0.3642,0.3733,0.3783,0.3813,0.3882,0.4094,0.4303,0.4311,0.4381,0.4505,0.0,0.0,0.0,0.0,0.0,0.0,0.0,0.0,0.5567,0.0,0.0,0.0,0.0,0.0,0.0,0.6458,0.6889,0.723,0.7461,0.0,0.7891,0.8107,0.8247,0.8317,0.8382,0.8514,0.865,0.8732,0.9179,0.9644,1.0079,1.0652,1.1089,1.1558,1.1632,1.1855,1.2157,1.2231,1.2305,1.2305,1.2378,1.2378,1.2305,0.0,0.0,0.0,0.0,0.0,0.0,0.0,0.0183,0.0274,0.0365,0.0727,0.1083,0.1257,0.1345,0.1436,0.1436,0.1436,0.1426,0.1405,0.1395,0.1371,0.133,0.1311,0.0,0.1271,0.1241,0.1221,0.1212,0.119,0.0,0.0,0.0,0.0,0.0,0.1102,0.1102,0.1102,0.1171,0.124,0.1242,0.1407,0.1489,0.1563,0.1811,0.1897,0.1897,0.2115,0.2188,0.226,0.2549,0.2416,0.2275,0.2482,0.262,0.2689,0.2823,0.3029,0.3235,0.3374,0.3513,0.3712,0.3891,0.3922,0.3959,0.4025,0.4092,0.4196,0.4282,0.4513,0.4705,0.4705,0.4775,0.4957,0.5081,0.0,0.0,0.0,0.0,0.0,0.0,0.0,0.0,0.0,0.0,0.0,0.0,0.0,0.0,0.6972,0.7354,0.0,0.0,0.0,0.0,0.0,0.0,0.8549,0.8619,0.8786,0.8967,0.9116,0.9572,1.0099,1.0706,1.0959,1.1186,1.1409,1.1558,1.1781,1.2003,1.2157,1.2231,1.2305,1.2305,1.2224,1.2224,0.0,0.0,0.0,0.0,0.0,0.0,0.0,0.0,0.0095,0.0381,0.0562,0.0826,0.1079,0.1256,0.1436,0.1436,0.1436,0.1436,0.1435,0.1407,0.139,0.0,0.0,0.1303,0.1302,0.1272,0.1242,0.1212,0.0,0.0,0.1166,0.0,0.1166,0.1166,0.1166,0.1166,0.1238,0.1384,0.153,0.153,0.1749,0.1823,0.1823,0.2042,0.2115,0.2117,0.2262,0.2407,0.262,0.262,0.2766,0.2983,0.2983,0.3058,0.3203,0.3203,0.3491,0.3779,0.3779,0.3926,0.4121,0.4154,0.4183,0.4298,0.4561,0.4558,0.4625,0.4761,0.4964,0.51,0.51,0.5286,0.5408,0.5398,0.0,0.0,0.0,0.0,0.0,0.0,0.0,0.0,0.6593,0.0,0.0,0.0,0.0,0.0,0.0,0.0,0.0,0.7902,0.826,0.0,0.8517,0.8517,0.863,0.8929,0.8929,0.9127,0.9513,1.0176,1.0718,1.1105,1.1111,1.1186,1.1409,1.1409,1.1632,1.2003,1.2003,1.2157,1.2305,1.2305,1.215,1.2003,0.0,0.0,0.0,0.0,0.0,0.0,0.0,0.0,0.0,0.0095,0.0379,0.0565,0.0842,0.1186,0.1436,0.0,0.1436,0.1436,0.0,0.1426,0.1412,0.1391,0.1372,0.1353,0.1334,0.1303,0.1284,0.1273,0.0,0.0,0.0,0.1176,0.1166,0.1239,0.1312,0.1386,0.1386,0.1604,0.1677,0.1753,0.2008,0.2097,0.2101,0.2288,0.2455,0.2608,0.2608,0.2761,0.2991,0.314,0.3293,0.337,0.3679,0.3593,0.3419,0.3566,0.3785,0.4003,0.4143,0.4287,0.4354,0.4682,0.4714,0.4824,0.5032,0.5102,0.5103,0.5163,0.5292,0.5425,0.5432,0.5627,0.5796,0.5933,0.0,0.0,0.0,0.0,0.0,0.0,0.0,0.0,0.0,0.7152,0.0,0.0,0.0,0.0,0.0,0.0,0.0,0.0,0.8409,0.0,0.8748,0.8754,0.8867,0.9098,0.9406,0.9829,1.0358,1.0586,1.0885,1.1111,1.1111,1.1111,1.1186,1.1335,1.1484,1.1632,1.1706,1.1855,1.1855,1.1855,1.1855,1.1781,0.0,0.0,0.0,0.0,0.0,0.0,0.0,0.0,0.0,0.0,0.0194,0.0482,0.0771,0.1124,0.0,0.1453,0.1442,0.1436,0.1436,0.1436,0.1427,0.1408,0.1396,0.1382,0.1364,0.0,0.0,0.132,0.1289,0.1258,0.1228,0.1285,0.1351,0.1351,0.1576,0.1651,0.1651,0.1875,0.195,0.1953,0.2213,0.2304,0.2308,0.2497,0.2668,0.2826,0.2904,0.3061,0.3295,0.3448,0.3604,0.3763,0.3999,0.3993,0.3966,0.404,0.4192,0.4343,0.4487,0.4635,0.4773,0.4953,0.5091,0.5222,0.5315,0.5527,0.5597,0.5616,0.5744,0.5822,0.5892,0.5958,0.6086,0.6362,0.0,0.6437,0.6651,0.0,0.0,0.0,0.0,0.0,0.0,0.7568,0.0,0.0,0.0,0.0,0.0,0.0,0.0,0.8641,0.8646,0.0,0.899,0.899,0.9178,0.9488,1.0025,1.0444,1.0812,1.0887,1.0962,1.1111,1.1111,1.1111,1.1111,1.126,1.1335,1.1409,1.1558,1.1632,1.1706,1.1706,1.1632,1.1558,0.0,0.0,0.0,0.0,0.0,0.0,0.0,0.0,0.0,0.0,0.0199,0.0492,0.0787,0.0967,0.1233,0.1489,0.0,0.0,0.0,0.1436,0.1436,0.1436,0.1408,0.0,0.1393,0.1365,0.1266,0.1263,0.132,0.1291,0.1342,0.1501,0.1579,0.1658,0.1816,0.1896,0.1975,0.2129,0.2207,0.2286,0.2444,0.2523,0.2523,0.2761,0.284,0.2918,0.3076,0.3312,0.3544,0.3544,0.3859,0.4178,0.4178,0.4411,0.4719,0.4467,0.4543,0.4701,0.4698,0.501,0.5292,0.517,0.5367,0.5566,0.558,0.5833,0.6083,0.6124,0.6215,0.6262,0.6382,0.637,0.6374,0.6664,0.6721,0.6836,0.7204,0.0,0.0,0.0,0.0,0.0,0.0,0.8067,0.8262,0.0,0.0,0.0,0.0,0.0,0.8662,0.8883,0.8956,0.8996,0.9227,0.9227,0.9493,0.9969,1.0553,1.0812,1.0812,1.1037,1.1111,1.1111,1.1111,1.1111,1.1111,1.1111,1.1186,1.1409,1.1409,1.1484,1.1632,1.1632,1.1571,1.144,0.0,0.0,0.0,0.0,0.0,0.0,0.0,0.0,0.0,0.0,0.0101,0.0301,0.0702,0.0888,0.1071,0.1551,0.1501,0.146,0.1437,0.1436,0.1436,0.1436,0.1428,0.1425,0.1425,0.1395,0.1369,0.1263,0.1341,0.1416,0.1573,0.1655,0.1821,0.1987,0.2153,0.2319,0.2319,0.2483,0.2566,0.2566,0.2815,0.2898,0.2898,0.3144,0.339,0.3474,0.3557,0.3804,0.4214,0.4214,0.438,0.463,0.4789,0.4953,0.492,0.4671,0.4779,0.4937,0.5087,0.5243,0.5389,0.5665,0.5893,0.612,0.6308,0.6279,0.6261,0.646,0.6535,0.6596,0.6644,0.6834,0.7069,0.7172,0.7233,0.7327,0.7452,0.74,0.0,0.0,0.7666,0.7861,0.8364,0.8446,0.8648,0.0,0.0,0.0,0.0,0.0,0.9066,0.912,0.9125,0.9308,0.9702,0.9708,1.0042,1.0582,1.0708,1.0887,1.1037,1.1111,1.1111,1.1111,1.1111,1.1111,1.1111,1.1111,1.1111,1.1186,1.1186,1.1186,1.126,1.126,1.132,1.1508,0.0,0.0,0.0,0.0,0.0,0.0,0.0,0.0,0.0,0.0,0.0101,0.0303,0.0707,0.0901,0.119,0.1573,0.1528,0.1488,0.1458,0.1456,0.145,0.1436,0.1436,0.1436,0.1436,0.1419,0.1397,0.1453,0.1538,0.1615,0.185,0.2018,0.2102,0.2271,0.2439,0.2523,0.2523,0.2692,0.2776,0.2862,0.2946,0.3112,0.3194,0.3444,0.3613,0.3697,0.3948,0.4197,0.4448,0.4532,0.4701,0.4866,0.503,0.5199,0.5344,0.5216,0.5259,0.5342,0.5577,0.5734,0.5876,0.6133,0.6305,0.6486,0.6563,0.6649,0.6734,0.6814,0.6908,0.6989,0.7064,0.717,0.7321,0.7533,0.7615,0.7654,0.7734,0.7807,0.0,0.802,0.8093,0.8341,0.8737,0.8817,0.8933,0.9195,0.0,0.0,0.9367,0.9449,0.9515,0.9515,0.9515,0.9708,1.0171,1.0245,1.0461,1.0812,1.0887,1.0962,1.1111,1.1111,1.1111,1.1111,1.1111,1.1111,1.1111,1.1111,1.1184,1.1304,1.1304,1.1377,1.1479,1.1479,1.1576,1.1709,0.0,0.0,0.0,0.0,0.0,0.0,0.0,0.0,0.0,0.0,0.0202,0.0505,0.0808,0.101,0.1305,0.1581,0.1555,0.1525,0.149,0.1487,0.1476,0.145,0.1444,0.1442,0.1442,0.1438,0.1511,0.1746,0.1834,0.199,0.2123,0.2294,0.2464,0.2464,0.2635,0.2719,0.2804,0.2804,0.2889,0.306,0.3145,0.3313,0.3479,0.3735,0.3819,0.3904,0.4324,0.4493,0.4578,0.4749,0.5002,0.5168,0.5249,0.5507,0.5765,0.5849,0.5849,0.5924,0.613,0.628,0.6496,0.6539,0.6651,0.6705,0.6758,0.6983,0.7211,0.7265,0.7295,0.7339,0.7484,0.7512,0.7552,0.7846,0.7884,0.7964,0.8105,0.0,0.8248,0.8401,0.8604,0.881,0.9053,0.9195,0.9276,0.9308,0.9314,0.0,0.0,0.9845,0.9991,1.0064,0.9991,1.016,1.0513,1.0738,1.0887,1.0887,1.1037,1.1111,1.1111,1.1154,1.1178,1.1178,1.1214,1.1232,1.1232,1.1232,1.1371,1.1588,1.1588,1.1727,1.192,1.192,1.195,1.198,0.0,0.0,0.0,0.0,0.0,0.0,0.0,0.0,0.0,0.0,0.0202,0.0505,0.0808,0.101,0.1312,0.161,0.1605,0.1579,0.1523,0.1519,0.1517,0.1512,0.1487,0.1474,0.1474,0.1629,0.1792,0.1786,0.2054,0.223,0.2401,0.249,0.2578,0.2846,0.2846,0.2933,0.3106,0.3106,0.3285,0.3553,0.3732,0.382,0.382,0.4082,0.4347,0.4526,0.4614,0.4879,0.523,0.532,0.5411,0.5676,0.5849,0.6025,0.6113,0.6552,0.6643,0.6589,0.6428,0.6695,0.7019,0.6998,0.714,0.7252,0.7263,0.7307,0.7348,0.7439,0.7621,0.7685,0.7757,0.8049,0.8263,0.8263,0.8312,0.8333,0.8312,0.0,0.8398,0.8655,0.8806,0.9085,0.9502,0.9518,0.9599,0.9793,0.9809,0.99,1.0088,1.0162,1.0312,1.0685,1.0536,1.0553,1.0738,1.0962,1.1037,1.1037,1.1111,1.1111,1.1117,1.1359,1.1467,1.1479,1.1703,1.1793,1.1793,1.1793,1.1823,1.186,1.186,1.1884,1.192,1.192,1.2065,1.2252,0.0,0.0,0.0,0.0,0.0,0.0,0.0,0.0,0.0101,0.0202,0.0404,0.0707,0.101,0.1212,0.1415,0.1617,0.1617,0.1605,0.1577,0.156,0.1543,0.1527,0.1513,0.1599,0.1693,0.1752,0.1916,0.2191,0.2346,0.2513,0.2694,0.2694,0.2784,0.2875,0.3051,0.3139,0.3227,0.3317,0.3587,0.3767,0.3857,0.3946,0.4123,0.4391,0.4569,0.475,0.5018,0.5193,0.546,0.5552,0.573,0.5908,0.6083,0.626,0.6526,0.6707,0.6881,0.6936,0.6976,0.7137,0.7238,0.7323,0.7424,0.7589,0.7589,0.7647,0.7785,0.7953,0.7936,0.8026,0.8264,0.8326,0.8403,0.8551,0.8546,0.0,0.0,0.8726,0.8864,0.9129,0.9275,0.9422,0.975,0.9766,0.9809,0.9911,0.9922,0.9992,1.0218,1.0293,1.0513,1.0812,1.0812,1.0887,1.0962,1.1037,1.119,1.1341,1.1341,1.1413,1.1552,1.1685,1.1745,1.1751,1.1872,1.192,1.192,1.192,1.2005,1.2131,1.2131,1.2216,1.2343,1.2343,1.2421,1.2524,0.0,0.0,0.0,0.0,0.0,0.0,0.0,0.0101,0.0202,0.0404,0.0707,0.101,0.1212,0.1415,0.1617,0.1617,0.1617,0.1617,0.1617,0.1595,0.1571,0.1548,0.154,0.1725,0.1908,0.1972,0.2237,0.261,0.2661,0.2732,0.2914,0.2914,0.3005,0.3007,0.3185,0.3366,0.3455,0.3638,0.3821,0.4095,0.4093,0.4274,0.4451,0.4727,0.4908,0.4999,0.5358,0.5538,0.5721,0.5814,0.6082,0.6262,0.6349,0.6619,0.6892,0.6982,0.7158,0.7324,0.7436,0.7501,0.7576,0.7658,0.7824,0.7887,0.7844,0.7998,0.8152,0.8366,0.832,0.8378,0.8702,0.8649,0.8695,0.8845,0.0,0.0,0.0,0.9089,0.9226,0.9539,0.962,0.9695,0.9916,0.9922,0.9922,0.9922,0.997,1.0149,1.0383,1.0585,1.0848,1.1071,1.1169,1.1208,1.1208,1.1268,1.1407,1.1624,1.1624,1.1727,1.1926,1.1986,1.2011,1.2017,1.2077,1.2107,1.2107,1.2107,1.2222,1.2403,1.2403,1.253,1.2705,1.2705,1.2705,1.2705,0.0,0.0,0.0,0.0,0.0,0.0,0.0,0.0202,0.0404,0.0404,0.0808,0.1212,0.1212,0.1415,0.1617,0.1617,0.1617,0.1617,0.1617,0.1615,0.1613,0.161,0.188,0.1944,0.1909,0.238,0.2661,0.2661,0.2943,0.3037,0.3132,0.3132,0.3226,0.3417,0.3512,0.37,0.4171,0.4171,0.4267,0.4553,0.4832,0.4924,0.5018,0.5211,0.5492,0.5675,0.5677,0.5959,0.6429,0.6429,0.6623,0.6907,0.7088,0.7182,0.7182,0.7473,0.775,0.7873,0.7585,0.7845,0.8093,0.8181,0.8352,0.8483,0.8312,0.8437,0.8556,0.8391,0.8669,0.8982,0.8982,0.9127,0.9275,0.928,0.0,0.0,0.9271,0.9468,0.9593,0.9599,0.976,0.9922,0.9922,0.9922,0.9922,0.9922,1.0269,1.0634,1.0806,1.1259,1.1621,1.1786,1.163,1.1498,1.1498,1.1739,1.1872,1.189,1.189,1.1902,1.1932,1.2174,1.2282,1.2294,1.2542,1.2644,1.2644,1.2644,1.2656,1.2674,1.2674,1.2687,1.2705,1.2705,1.2705,1.2705,0.0,0.0,0.0,0.0,0.0,0.0101,0.0202,0.0303,0.0505,0.0808,0.1111,0.1313,0.1415,0.1516,0.1617,0.1617,0.1617,0.1617,0.1617,0.1718,0.1819,0.1819,0.2107,0.2289,0.2471,0.2637,0.2813,0.2911,0.3067,0.3144,0.3144,0.3241,0.3431,0.3528,0.3811,0.4,0.4189,0.4379,0.4571,0.4853,0.4946,0.5135,0.5232,0.5514,0.5608,0.57,0.6078,0.6361,0.6552,0.6649,0.6932,0.712,0.7214,0.7402,0.7782,0.8063,0.8247,0.8404,0.828,0.8351,0.843,0.8412,0.8564,0.8636,0.8649,0.8715,0.8871,0.9055,0.9199,0.9196,0.9359,0.933,0.9322,0.9486,0.0,0.9665,0.9872,0.9958,1.0105,1.0195,1.0279,1.0363,1.0363,1.0363,1.0363,1.06,1.0767,1.0976,1.13,1.1632,1.1846,1.192,1.1986,1.1938,1.1775,1.1872,1.2005,1.2161,1.2161,1.2252,1.2409,1.2506,1.2554,1.256,1.2662,1.2705,1.2705,1.2705,1.2705,1.2705,1.2705,1.2705,1.2705,1.2705,1.2705,1.2705,0.0,0.0,0.0,0.0,0.0101,0.0202,0.0404,0.0505,0.0808,0.1111,0.1313,0.1415,0.1617,0.1617,0.1617,0.1617,0.1617,0.1617,0.1718,0.2021,0.2223,0.2122,0.2423,0.2623,0.2826,0.279,0.297,0.3168,0.3224,0.33,0.33,0.3494,0.3689,0.3786,0.4075,0.4266,0.4363,0.4655,0.4848,0.5037,0.5229,0.5427,0.562,0.5807,0.6,0.6096,0.648,0.6675,0.687,0.7065,0.7254,0.7442,0.7538,0.7921,0.8302,0.8592,0.8779,0.8859,0.8898,0.8893,0.8858,0.8865,0.891,0.8893,0.9097,0.9177,0.9244,0.9533,0.9584,0.9572,0.9658,0.9704,0.9687,0.9849,0.9947,1.01,1.0381,1.0411,1.0419,1.0595,1.0637,1.0638,1.0638,1.0719,1.08,1.0961,1.1196,1.1514,1.1916,1.2086,1.2168,1.2168,1.2343,1.2349,1.2168,1.2168,1.2258,1.2439,1.2439,1.253,1.2705,1.2705,1.2705,1.2705,1.2705,1.2705,1.2705,1.2705,1.2705,1.2705,1.2705,1.2705,1.2705,1.2705,1.2705,1.2705,0.0,0.0,0.0,0.0,0.0205,0.0404,0.0404,0.0808,0.1212,0.1212,0.1415,0.1617,0.1617,0.1617,0.1617,0.1617,0.1617,0.1718,0.2022,0.2524,0.2724,0.2422,0.2623,0.2826,0.2826,0.3029,0.323,0.323,0.3433,0.3636,0.3636,0.3833,0.4135,0.4438,0.4438,0.4537,0.4834,0.5039,0.524,0.524,0.5741,0.6042,0.6042,0.6339,0.6539,0.6845,0.6845,0.7144,0.7646,0.7646,0.7743,0.8038,0.8333,0.8627,0.8825,0.9133,0.9236,0.9197,0.9405,0.9644,0.9789,0.9511,0.9469,0.9511,0.9587,0.9728,0.9858,0.9648,0.9781,1.0043,1.0038,1.0207,1.0294,1.0294,1.0463,1.0636,1.0636,1.0621,1.0611,1.0611,1.0575,1.0643,1.0643,1.0886,1.1047,1.1047,1.16,1.2182,1.2693,1.2705,1.2705,1.2705,1.2705,1.2705,1.2705,1.2705,1.2705,1.2705,1.2705,1.2705,1.2705,1.2705,1.2705,1.2705,1.2705,1.2705,1.2705,1.2705,1.2705,1.2705,1.2705,1.2705,1.2705,1.2705,1.2705,1.2705,0.0,0.0109,0.0323,0.0313,0.0517,0.082,0.0911,0.1111,0.1313,0.1415,0.1516,0.1617,0.1617,0.1617,0.1718,0.1819,0.1921,0.2122,0.2524,0.2725,0.2826,0.2927,0.3029,0.313,0.313,0.313,0.3331,0.3433,0.3534,0.3736,0.3934,0.4135,0.4338,0.4438,0.4636,0.4836,0.5039,0.514,0.5441,0.5741,0.5942,0.6139,0.6339,0.6542,0.6742,0.6845,0.7244,0.7447,0.7646,0.7842,0.8038,0.8336,0.8832,0.9034,0.9133,0.943,0.9529,0.9517,0.9755,0.9836,0.9858,0.9545,0.9651,0.982,0.9942,1.0113,1.015,1.0131,1.0178,1.0219,1.0236,1.0294,1.0381,1.0743,1.0829,1.0911,1.1084,1.1079,1.1079,1.1079,1.1048,1.1139,1.1308,1.1483,1.1646,1.1972,1.2295,1.2535,1.2699,1.2705,1.2705,1.2705,1.2705,1.2705,1.2705,1.2705,1.2705,1.2705,1.2705,1.2705,1.2705,1.2705,1.2705,1.2705,1.2705,1.2705,1.2705,1.2705,1.2705,1.2705,1.2705,1.2705,1.2705,1.2705,1.2705,1.2705,0.0111,0.033,0.0435,0.0532,0.0839,0.1138,0.1228,0.132,0.1415,0.1617,0.1617,0.1617,0.1617,0.1718,0.1819,0.2022,0.2223,0.2424,0.2826,0.2927,0.3029,0.323,0.3331,0.3331,0.323,0.3331,0.3433,0.3636,0.3836,0.4036,0.4135,0.4437,0.4537,0.4537,0.4836,0.5037,0.524,0.5441,0.5741,0.6042,0.6139,0.6339,0.6539,0.6742,0.6945,0.7144,0.7447,0.7646,0.7842,0.8038,0.8475,0.8937,0.9314,0.954,0.9625,0.965,0.9829,0.9921,0.9941,1.0117,1.0258,1.0027,1.0161,1.0328,1.0439,1.0515,1.0454,1.0433,1.0481,1.0624,1.0578,1.0681,1.0823,1.1092,1.1168,1.1181,1.1267,1.1262,1.1262,1.1262,1.1262,1.144,1.1699,1.1785,1.2037,1.2448,1.2619,1.2705,1.2705,1.2705,1.2705,1.2705,1.2705,1.2705,1.2705,1.2705,1.2705,1.2705,1.2705,1.2705,1.2705,1.2705,1.2705,1.2705,1.2705,1.2705,1.2705,1.2705,1.2705,1.2705,1.2705,1.2705,1.2705,1.2705,1.2705,1.2705,0.0449,0.0443,0.0548,0.0875,0.1172,0.1355,0.1351,0.1536,0.162,0.1617,0.1617,0.1617,0.1617,0.192,0.2021,0.2021,0.2524,0.2826,0.2826,0.3029,0.323,0.323,0.3433,0.3534,0.323,0.3534,0.3635,0.3635,0.4137,0.4438,0.4438,0.4736,0.4834,0.4834,0.514,0.524,0.534,0.5842,0.6042,0.6042,0.6337,0.6539,0.6845,0.6856,0.7163,0.7666,0.7679,0.7882,0.8079,0.8375,0.8974,0.9532,0.98,0.9955,1.0128,1.0059,1.012,1.0294,1.0116,1.0465,1.0852,1.0838,1.0833,1.0877,1.0875,1.0924,1.0863,1.0739,1.0881,1.1056,1.1027,1.1273,1.1457,1.1467,1.142,1.1332,1.1348,1.1321,1.13,1.1381,1.1365,1.1435,1.1699,1.1957,1.2203,1.2705,1.2705,1.2705,1.2705,1.2705,1.2705,1.2705,1.2705,1.2705,1.2705,1.2705,1.2705,1.2705,1.2705,1.2705,1.2705,1.2705,1.2705,1.2705,1.2705,1.2705,1.2705,1.2705,1.2705,1.2705,1.2705,1.2705,1.2705,1.2705,1.2705,1.2705,0.0785,0.1007,0.1111,0.1205,0.1522,0.1715,0.1669,0.1656,0.1643,0.162,0.1819,0.1921,0.1921,0.2121,0.2423,0.2624,0.2928,0.313,0.313,0.313,0.3331,0.3534,0.3534,0.3635,0.3831,0.3934,0.4034,0.4237,0.4338,0.4537,0.4736,0.4734,0.4937,0.514,0.514,0.5441,0.5842,0.5942,0.6139,0.6337,0.6642,0.6742,0.6853,0.7459,0.7703,0.7922,0.824,0.8387,0.8491,0.8909,0.935,0.98,1.0048,1.016,1.0256,1.0422,1.0518,1.0613,1.0977,1.1173,1.1235,1.1386,1.1349,1.1292,1.1179,1.1132,1.1168,1.1153,1.1204,1.1308,1.1481,1.1578,1.1685,1.1887,1.1941,1.1941,1.1973,1.1775,1.1599,1.1628,1.1641,1.1699,1.1871,1.2289,1.2625,1.2705,1.2705,1.2705,1.2705,1.2705,1.2705,1.2705,1.2705,1.2705,1.2705,1.2705,1.2705,1.2705,1.2705,1.2705,1.2705,1.2705,1.2705,1.2705,1.2705,1.2705,1.2705,1.2705,1.2705,1.2705,1.2705,1.2705,1.2705,1.2705,1.2705,1.2705,0.1121,0.1234,0.1342,0.1552,0.1649,0.1739,0.1709,0.168,0.176,0.1844,0.193,0.2021,0.2222,0.2423,0.2724,0.2927,0.313,0.3243,0.3271,0.3375,0.3592,0.3728,0.4038,0.4142,0.4345,0.445,0.4515,0.4438,0.4537,0.4636,0.4834,0.4937,0.5037,0.5242,0.5493,0.5819,0.6129,0.6282,0.6511,0.6611,0.6921,0.7024,0.7238,0.7823,0.8056,0.817,0.8455,0.8692,0.8916,0.9414,0.9867,1.0095,1.0387,1.0416,1.0506,1.0632,1.0817,1.1006,1.1327,1.1507,1.1587,1.1587,1.1661,1.1576,1.1269,1.1296,1.1361,1.1458,1.1621,1.1849,1.2031,1.1989,1.2098,1.2172,1.216,1.2096,1.2088,1.1983,1.1908,1.2051,1.2026,1.2175,1.2319,1.265,1.285,1.2711,1.2705,1.2705,1.2705,1.2705,1.2705,1.2705,1.2705,1.2705,1.2705,1.2705,1.2705,1.2705,1.2705,1.2705,1.2705,1.2705,1.2705,1.2705,1.2705,1.2705,1.2705,1.2705,1.2705,1.2705,1.2875,1.2875,1.2881,1.2966,1.3045,1.3045,0.1346,0.1346,0.1458,0.1795,0.1774,0.1866,0.186,0.1815,0.1884,0.2189,0.2161,0.2243,0.2445,0.275,0.2955,0.3262,0.326,0.3384,0.3436,0.375,0.3984,0.4042,0.4468,0.468,0.4786,0.5,0.493,0.4482,0.4782,0.4881,0.4983,0.5187,0.5289,0.5394,0.5992,0.6241,0.6352,0.6655,0.6801,0.6907,0.7115,0.7434,0.7756,0.8094,0.8312,0.8523,0.8656,0.8987,0.9538,0.9885,1.0254,1.0505,1.0647,1.0692,1.0773,1.0953,1.1233,1.1407,1.1554,1.1713,1.1912,1.1883,1.1869,1.177,1.1463,1.157,1.1668,1.1678,1.2124,1.237,1.2467,1.2457,1.2446,1.2446,1.2337,1.2178,1.2178,1.2221,1.2292,1.2476,1.2528,1.2609,1.2856,1.3105,1.3097,1.2862,1.2801,1.2777,1.2777,1.2729,1.2705,1.2705,1.2705,1.2705,1.2705,1.2705,1.2705,1.2705,1.2705,1.2705,1.2705,1.2705,1.2705,1.2705,1.2705,1.2705,1.279,1.279,1.279,1.2875,1.3052,1.3137,1.3143,1.3313,1.3398,1.3398,0.1683,0.1683,0.1795,0.1795,0.1791,0.1891,0.2083,0.2179,0.2268,0.2447,0.2756,0.2858,0.2963,0.3176,0.3283,0.3388,0.3597,0.381,0.3819,0.4032,0.4355,0.4574,0.468,0.4786,0.5002,0.5108,0.5096,0.4966,0.5071,0.5179,0.5497,0.5492,0.5803,0.6223,0.6345,0.6458,0.6674,0.6796,0.6907,0.722,0.7434,0.7753,0.8082,0.8418,0.8679,0.8696,0.9156,0.964,1.019,1.0214,1.0441,1.0664,1.0684,1.0911,1.1122,1.1428,1.1746,1.1959,1.2149,1.2248,1.2313,1.2139,1.2096,1.2116,1.2186,1.1991,1.1976,1.2168,1.2261,1.2467,1.2662,1.2764,1.2759,1.2759,1.2727,1.27,1.27,1.2696,1.2742,1.2747,1.2923,1.3138,1.3375,1.3459,1.3447,1.3405,1.3194,1.3067,1.3067,1.2837,1.2705,1.2705,1.2705,1.2705,1.2705,1.2705,1.2705,1.2705,1.2705,1.2705,1.2705,1.2705,1.2705,1.2705,1.2705,1.279,1.3052,1.3052,1.3137,1.3307,1.3313,1.3392,1.3392,1.3392,1.3398,1.3398,0.1795,0.1795,0.1795,0.202,0.202,0.2126,0.2444,0.2421,0.2509,0.2816,0.3002,0.3091,0.3199,0.3305,0.3518,0.3623,0.3834,0.3956,0.4213,0.443,0.4664,0.4817,0.5039,0.515,0.5261,0.5368,0.5475,0.5475,0.5369,0.5426,0.5645,0.5953,0.6162,0.6376,0.6656,0.6794,0.691,0.7191,0.7328,0.7437,0.7868,0.8192,0.8307,0.8702,0.8838,0.8845,0.946,0.9926,1.0366,1.0476,1.0582,1.0692,1.0692,1.0907,1.1131,1.1459,1.1787,1.2114,1.2332,1.2441,1.2417,1.2328,1.2309,1.2378,1.2568,1.2519,1.2541,1.2715,1.2762,1.2829,1.2996,1.2883,1.2764,1.2764,1.2764,1.2861,1.2953,1.2962,1.3087,1.3379,1.3655,1.38,1.3749,1.3731,1.367,1.3525,1.3405,1.3344,1.3344,1.3085,1.294,1.294,1.2783,1.2705,1.2705,1.2705,1.2705,1.2705,1.2705,1.2705,1.2705,1.2705,1.279,1.2875,1.2875,1.3052,1.3307,1.3307,1.3313,1.3398,1.3483,1.3652,1.3828,1.3828,1.3828,1.3828]},{"header":{"parameterUnit":"m.s-1","parameterCategory":1,"la1":30.6,"la2":28.766,"lo1":-90.7593,"lo2":-88.6598,"dy":0.0162,"dx":0.0183,"nx":116,"ny":114,"refTime":"2024-05-06T12:00:00:Z","depth":0,"parameterNumber":3,"parameterNumberName":"V-component_of_WINDS"},"data":[0.0,0.0,0.0,0.0,0.0,0.0,0.0,0.0,0.0,0.0,0.0,0.0,0.0,0.0,0.0,0.0,0.0,0.0,0.0,0.0,0.0,0.0,0.0,0.0,0.0,0.0,0.0,0.0,0.0,0.0,0.0,0.0,0.0,0.0,0.0,0.0,0.0,0.0,0.0,0.0,0.0,0.0,0.0,0.0,0.0,0.0,0.0,0.0,0.0,0.0,0.0,0.0,0.0,0.0,0.0,0.0,0.0,0.0,0.0,0.0,0.0,0.0,0.0,0.0,0.0,0.0,0.0,0.0,0.0,0.0,0.0,0.0,0.0,0.0,0.0,0.0,0.0,0.0,0.0,0.0,0.0,0.0,0.0,0.0,0.0,0.0,0.0,0.0,0.0,0.0,0.0,0.0,0.0,0.0,0.0,0.0,0.0,0.0,0.0,0.0,0.0,0.0,0.0,0.0,0.0,0.0,0.0,0.0,0.0,0.0,0.0,0.0,0.0,0.0,0.0,0.0,0.0,0.0,0.0,0.0,0.0,0.0,0.0,0.0,0.0,0.0,0.0,0.0,0.0,0.0,0.0,0.0,0.0,0.0,0.0,0.0,0.0,0.0,0.0,0.0,0.0,0.0,0.0,0.0,0.0,0.0,0.0,0.0,0.0,0.0,0.0,0.0,0.0,0.0,0.0,0.0,0.0,0.0,0.0,0.0,0.0,0.0,0.0,0.0,0.0,0.0,0.0,0.0,0.0,0.0,0.0,0.0,0.0,0.0,0.0,0.0,0.0,0.0,0.0,0.0,0.0,0.0,0.0,0.0,0.0,0.0,0.0,0.0,0.0,0.0,0.0,0.0,0.0,0.0,0.0,0.0,0.0,0.0,0.0,0.0,0.0,0.0,0.0,0.0,0.0,0.0,0.0,0.0,0.0,0.0,0.0,0.0,0.0,0.0,0.0,0.0,0.0,0.0,0.0,0.0,0.0,0.0,0.0,0.0,0.0,0.0,0.0,0.0,0.0,0.0,0.0,0.0,0.0,0.0,0.0,0.0,0.0,0.0,0.0,0.0,0.0,0.0,0.0,0.0,0.0,0.0,0.0,0.0,0.0,0.0,0.0,0.0,0.0,0.0,0.0,0.0,0.0,0.0,0.0,0.0,0.0,0.0,0.0,0.0,0.0,0.0,0.0,0.0,0.0,0.0,0.0,0.0,0.0,0.0,0.0,0.0,0.0,0.0,0.0,0.0,0.0,0.0,0.0,0.0,0.0,0.0,0.0,0.0,0.0,0.0,0.0,0.0,0.0,0.0,0.0,0.0,0.0,0.0,0.0,0.0,0.0,0.0,0.0,0.0,0.0,0.0,0.0,0.0,0.0,0.0,0.0,0.0,0.0,0.0,0.0,0.0,0.0,0.0,0.0,0.0,0.0,0.0,0.0,0.0,0.0,0.0,0.0,0.0,0.0,0.0,0.0,0.0,0.0,0.0,0.0,0.0,0.0,0.0,0.0,0.0,0.0,0.0,0.0,0.0,0.0,0.0,0.0,0.0,0.0,0.0,0.0,0.0,0.0,0.0,0.0,0.0,0.0,0.0,0.0,0.0,0.0,0.0,0.0,0.0,0.0,0.0,0.0,0.0,0.0,0.0,0.0,0.0,0.0,0.0,0.0,0.0,0.0,0.0,0.0,0.0,0.0,0.0,0.0,0.0,0.0,0.0,0.0,0.0,0.0,0.0,0.0,0.0,0.0,0.0,0.0,0.0,0.0,0.0,0.0,0.0,0.0,0.0,0.0,0.0,0.0,0.0,0.0,0.0,0.0,0.0,0.0,0.0,0.0,0.0,0.0,0.0,0.0,0.0,0.0,0.0,0.0,0.0,0.0,0.0,0.0,0.0,0.0,0.0,0.0,0.0,0.0,0.0,0.0,0.0,0.0,0.0,0.0,0.0,0.0,0.0,0.0,0.0,0.0,0.0,0.0,0.0,0.0,0.0,0.0,0.0,0.0,0.0,0.0,0.0,0.0,0.0,0.0,0.0,0.0,0.0,0.0,0.0,0.0,0.0,0.0,0.0,0.0,0.0,0.0,0.0,0.0,0.0,0.0,0.0,0.0,0.0,0.0,0.0,0.0,0.0,0.0,0.0,0.0,0.0,0.0,0.0,0.0,0.0,0.0,0.0,0.0,0.0,0.0,0.0,0.0,0.0,0.0,0.0,0.0,0.0,0.0,0.0,0.0,0.0,0.0,0.0,0.0,0.0,0.0,0.0,0.0,0.0,0.0,0.0,0.0,0.0,0.0,0.0,0.0,0.0,0.0,0.0,0.0,0.0,0.0,0.0,0.0,0.0,0.0,0.0,0.0,0.0,0.0,0.0,0.0,0.0,0.0,0.0,0.0,0.0,0.0,0.0,0.0,0.0,0.0,0.0,0.0,0.0,0.0,0.0,0.0,0.0,0.0,0.0,0.0,0.0,0.0,0.0,0.0,0.0,0.0,0.0,0.0,0.0,0.0,0.0,0.0,0.0,0.0,0.0,0.0,0.0,0.0,0.0,0.0,0.0,0.0,0.0,0.0,0.0,0.0,0.0,0.0,0.0,0.0,0.0,0.0,0.0,0.0,0.0,0.0,0.0,0.0,0.0,0.0,0.0,0.0,0.0,0.0,0.0,0.0,0.0,0.0,0.0,0.0,0.0,0.0,0.0,0.0,0.0,0.0,0.0,0.0,0.0,0.0,0.0,0.0,0.0,0.0,0.0,0.0,0.0,0.0,0.0,0.0,0.0,0.0,0.0,0.0,0.0,0.0,0.0,0.0,0.0,0.0,0.0,0.0,0.0,0.0,0.0,0.0,0.0,0.0,0.0,0.0,0.0,0.0,0.0,0.0,0.0,0.0,0.0,0.0,0.0,0.0,0.0,0.0,0.0,0.0,0.0,0.0,0.0,0.0,0.0,0.0,0.0,0.0,0.0,0.0,0.0,0.0,0.0,0.0,0.0,0.0,0.0,0.0,0.0,0.0,0.0,0.0,0.0,0.0,0.0,0.0,0.0,0.0,0.0,0.0,0.0,0.0,0.0,0.0,0.0,0.0,0.0,0.0,0.0,0.0,0.0,0.0,0.0,0.0,0.0,0.0,0.0,0.0,0.0,0.0,0.0,0.0,0.0,0.0,0.0,0.0,0.0,0.0,0.0,0.0,0.0,0.0,0.0,0.0,0.0,0.0,0.0,0.0,0.0,0.0,0.0,0.0,0.0,0.0,0.0,0.0,0.0,0.0,0.0,0.0,0.0,0.0,0.0,0.0,0.0,0.0,0.0,0.0,0.0,0.0,0.0,0.0,0.0,0.0,0.0,0.0,0.0,0.0,0.0,0.0,0.0,0.0,0.0,0.0,0.0,0.0,0.0,0.0,0.0,0.0,0.0,0.0,0.0,0.0,0.0,0.0,0.0,0.0,0.0,0.0,0.0,0.0,0.0,0.0,0.0,0.0,0.0,0.0,0.0,0.0,0.0,0.0,0.0,0.0,0.0,0.0,0.0,0.0,0.0,0.0,0.0,0.0,0.0,0.0,0.0,0.0,0.0,0.0,0.0,0.0,0.0,0.0,0.0,0.0,0.0,0.0,0.0,0.0,0.0,0.0,0.0,0.0,0.0,0.0,0.0,0.0,0.0,0.0,0.0,0.0,0.0,0.0,0.0,0.0,0.0,0.0,0.0,0.0,0.0,0.0,0.0,0.0,0.0,0.0,0.0,0.0,0.0,0.0,0.0,0.0,0.0,0.0,0.0,0.0,0.0,0.0,0.0,0.0,0.0,0.0,0.0,0.0,0.0,0.0,0.0,0.0,0.0,0.0,0.0,0.0,0.0,0.0,0.0,0.0,0.0,0.0,0.0,0.0,0.0,0.0,0.0,0.0,0.0,0.0,0.0,0.0,0.0,0.0,0.0,0.0,0.0,0.0,0.0,0.0,0.0,0.0,0.0,0.0,0.0,0.0,0.0,0.0,0.0,0.0,0.0,0.0,0.0,0.0,0.0,0.0,0.0,0.0,0.0,0.0,0.0,0.0,0.0,0.0,0.0,0.0,0.0,0.0,0.0,0.0,0.0,0.0,0.0,0.0,0.0,0.0,0.0,0.0,0.0,0.0,0.0,0.0,0.0,0.0,0.0,0.0,0.0,0.0,0.0,0.0,0.0,0.0,0.0,0.0,0.0,0.0,0.0,0.0,0.0,0.0,0.0,0.0,0.0,0.0,0.0,0.0,0.0,0.0,0.0,0.0,0.0,0.0,0.0,0.0,0.0,0.0,0.0,0.0,0.0,0.0,0.0,0.0,0.0,0.0,0.0,0.0,0.0,0.0,0.0,0.0,0.0,0.0,0.0,0.0,0.0,0.0,0.0,0.0,0.0,0.0,0.0,0.0,0.0,0.0,0.0,0.0,0.0,0.0,0.0,0.0,0.0,0.0,0.0,0.0,0.0,0.0,0.0,0.0,0.0,0.0,0.0,0.0,0.0,0.0,0.0,0.0,0.0,0.0,0.0,0.0,0.0,0.0,0.0,0.0,0.0,0.0,0.0,0.0,0.0,0.0,0.0,0.0,0.0,0.0,0.0,0.0,0.0,0.0,0.0,0.0,0.0,0.0,0.0,0.0,0.0,0.0,0.0,0.0,0.0,0.0,0.0,0.0,0.0,0.0,0.0,0.0,0.0,0.0,0.0,0.0,0.0,0.0,0.0,0.0,0.0,0.0,0.0,0.0,0.0,0.0,0.0,0.0,0.0,0.0,0.0,0.0,0.0,0.0,0.0,0.0,0.0,0.0,0.0,0.0,0.0,0.0,0.0,0.0,0.0,0.0,0.0,0.0,0.0,0.0,0.0,0.0,0.0,0.0,0.0,0.0,0.0,0.0,0.0,0.0,0.0,0.0,0.0,0.0,0.0,0.0,0.0,0.0,0.0,0.0,0.0,0.0,0.0,0.0,0.0,0.0,0.0,0.0,0.0,0.0,0.0,0.0,0.0,0.0,0.0,0.0,0.0,0.0,0.0,0.0,0.0,0.0,0.0,0.0,0.0,0.0,0.0,0.0,0.0,0.0,0.0,0.0,0.0,0.0,0.0,0.0,0.0,0.0,0.0,0.0,0.0,0.0,0.0,0.0,0.0,0.0,0.0,0.0,0.0,0.0,0.0,0.0,0.0,0.0,0.0,0.0,0.0,0.0,0.0,0.0,0.0,0.0,0.0,0.0,0.0,0.0,0.0,0.0,0.0,0.0,0.0,0.0,0.0,0.0,0.0,0.0,0.0,0.0,0.0,0.0,0.0,0.0,0.0,0.0,0.0,0.0,0.0,0.0,0.0,0.0,0.0,0.0,0.0,0.0,0.0,0.0,0.0,0.0,0.0,0.0,0.0,0.0,0.0,0.0,0.0,0.0,0.0,0.0,0.0,0.0,0.0,0.0,0.0,0.0,0.0,0.0,0.0,0.0,0.0,0.0,0.0,0.0,0.0,0.0,0.0,0.0,0.0,0.0,0.0,0.0,0.0,0.0,0.0,0.0,0.0,0.0,0.0,0.0,0.0,0.0,0.0,0.0,0.0,0.0,0.0,0.0,0.0,0.0,0.0,0.0,0.0,0.0,0.0,0.0,0.0,0.0,0.0,0.0,0.0,0.0,0.0,0.0,0.0,0.0,0.0,0.0,0.0,0.0,0.0,0.0,0.0,0.0,0.0,0.0,0.0,0.0,0.0,0.0,0.0,0.0,0.0,0.0,0.0,0.0,0.0,0.0,0.0,0.0,0.0,0.0,0.0,0.0,0.0,0.0,0.0,0.0,0.0,0.0,0.0,0.0,0.0,0.0,0.0,0.0,0.0,0.0,0.0,0.0,0.0,0.0,0.0,0.0,0.0,0.0,0.0,0.0,0.0,0.0,0.0,0.0,0.0,0.0,0.0,0.0,0.0,0.0,0.0,0.0,0.0,0.0,0.0,0.0,0.0,0.0,0.0,0.0,0.0,0.0,0.0,0.0,0.0,0.0,0.0,0.0,0.0,0.0,0.0,0.0,0.0,0.0,0.0,0.0,0.0,0.0,0.0,0.0,0.0,0.0,0.0,0.0,0.0,0.0,0.0,-2.0328,0.0,0.0,0.0,0.0,0.0,0.0,0.0,0.0,0.0,0.0,0.0,0.0,0.0,0.0,0.0,0.0,0.0,0.0,0.0,0.0,0.0,0.0,0.0,0.0,1.1027,1.1654,1.2077,1.2493,1.2928,1.3374,0.0,0.0,0.0,0.0,0.0,1.5561,1.5586,1.5809,1.626,1.6704,1.6953,1.7018,1.6592,1.6451,1.6502,0.0,0.0,0.0,0.0,0.0,0.0,0.0,0.0,0.0,0.0,0.0,0.0,0.0,0.0,0.0,0.0,0.0,0.0,0.0,0.0,0.0,0.0,0.0,0.0,0.0,0.0,0.0,0.0,0.0,0.0,0.0,0.0,0.0,0.0,0.0,0.0,0.0,0.0,0.0,0.0,0.0,0.0,0.0,0.0,0.0,0.0,0.0,0.0,0.0,0.0,0.0,0.0,0.0,0.0,0.0,0.0,0.0,0.0,0.0,0.0,0.0,0.0,0.0,0.0,0.0,0.0,0.0,0.0,0.0,0.0,0.0,-2.116,0.0,0.0,0.0,0.0,0.0,0.0,0.0,0.0,0.0,0.0,0.0,0.0,0.0,0.0,0.0,0.0,0.0,0.0,0.0,0.0,0.0,1.0921,1.105,1.1735,1.2495,1.3222,1.3416,1.3837,1.4606,1.4701,0.0,0.0,0.0,1.5461,1.6376,1.6394,1.6762,1.7501,1.7707,1.792,1.8137,1.8141,1.8157,1.8223,1.7932,0.0,0.0,0.0,0.0,0.0,0.0,0.0,0.0,0.0,0.0,0.0,0.0,0.0,0.0,0.0,0.0,0.0,0.0,0.0,0.0,0.0,0.0,0.0,0.0,0.0,0.0,0.0,0.0,0.0,0.0,0.0,0.0,0.0,0.0,0.0,0.0,0.0,0.0,0.0,0.0,0.0,0.0,0.0,0.0,0.0,0.0,0.0,0.0,0.0,0.0,0.0,0.0,0.0,0.0,0.0,0.0,0.0,0.0,0.0,0.0,0.0,0.0,0.0,0.0,-1.1771,-1.8646,-1.8783,-1.8859,-1.8915,-1.9675,-2.0765,-2.1968,0.0,0.0,0.0,0.0,0.0,0.0,0.0,0.0,0.0,0.0,0.0,0.0,0.0,0.0,0.0,0.0,0.0,0.0,0.0,0.0,1.1002,1.1683,1.2474,1.3022,1.3201,1.3915,1.4382,1.4512,1.4632,1.503,1.5801,1.5891,1.6317,1.7137,1.7207,1.734,1.7511,1.8269,1.9057,1.9875,1.9863,1.9915,1.9915,1.8441,1.7736,1.7644,0.0,0.0,0.0,0.0,0.0,0.0,0.0,0.0,0.0,0.0,0.0,0.0,0.0,0.0,0.0,0.0,0.0,0.0,0.0,0.0,0.0,0.0,0.0,0.0,0.0,0.0,0.0,0.0,0.0,0.0,0.0,0.0,0.0,0.0,0.0,0.0,0.0,0.0,0.0,0.0,0.0,1.6399,1.6518,0.0,0.0,0.0,0.0,0.0,0.0,0.0,0.0,0.0,0.0,0.0,0.0,0.0,0.0,1.2697,1.1731,0.7763,0.0818,0.0808,0.0222,-0.0893,-0.1595,-0.1956,-0.2413,-0.9693,0.0,-2.2921,-2.2808,0.0,0.0,0.0,0.0,0.0,0.0,0.0,0.0,0.0,0.0,0.0,0.0,0.0,0.0,0.0,0.0,0.0,0.0,0.0,0.0,0.0,1.3275,1.3781,1.3823,1.4204,1.4659,1.5147,1.5254,1.5711,1.6574,1.6679,1.7109,1.7971,1.8044,1.8598,1.9635,2.0505,2.1147,2.156,2.1589,2.1645,2.166,2.0947,1.9832,1.8529,1.8566,0.0,0.0,0.0,0.0,0.0,0.0,0.0,0.0,0.0,0.0,0.0,0.0,0.0,0.0,0.0,0.0,0.0,0.0,0.0,0.0,0.0,0.0,0.0,0.0,0.0,0.0,0.0,0.0,0.0,0.0,0.0,0.0,0.0,0.0,0.0,0.0,0.0,0.0,0.0,1.6633,1.7438,1.7421,1.8202,1.873,0.0,0.0,0.0,0.0,0.0,0.0,0.0,0.0,0.0,2.3083,2.3098,2.1886,1.9346,1.9317,1.5604,0.8289,0.8294,0.5767,0.1086,0.0729,0.0548,0.0319,-0.3418,-0.6963,-1.0782,-1.9476,-2.3038,-2.3003,0.0,0.0,0.0,0.0,0.0,-2.2907,0.0,0.0,0.0,0.0,0.0,0.0,0.0,0.0,0.0,0.0,0.0,0.0,1.3193,1.3867,1.426,1.4299,1.455,1.4989,1.5661,1.5956,1.6509,1.7374,1.7503,1.8048,1.9119,1.9416,2.0233,2.1612,2.2274,2.2593,2.2598,2.2671,2.2729,2.2776,2.2791,2.1772,2.0064,2.0069,1.9618,1.8848,0.0,0.0,0.0,0.0,0.0,0.0,0.0,0.0,0.0,0.0,0.0,0.0,0.0,0.0,0.0,0.0,0.0,0.0,0.0,0.0,0.0,0.0,0.0,0.0,0.0,0.0,0.0,0.0,0.0,0.0,0.0,0.0,0.0,0.0,0.0,0.0,0.0,1.7771,1.8339,1.832,1.9297,1.996,0.0,0.0,0.0,0.0,0.0,0.0,2.3415,2.343,2.352,2.3767,2.3745,2.4151,2.5028,2.5033,2.224,1.6745,1.6749,1.3406,0.7216,0.719,0.7183,0.7063,0.4874,0.3914,0.2822,-1.1291,-1.7128,-1.7136,-1.7128,-1.8445,0.0,-2.0307,-2.1662,-2.3535,0.0,0.0,0.0,0.0,0.0,0.0,0.0,0.0,0.0,0.0,0.0,1.309,1.3957,1.4074,1.4163,1.4291,1.5065,1.5598,1.5704,1.6478,1.7317,1.8209,1.836,1.9189,2.0838,2.1738,2.2275,2.2448,2.2559,2.2612,2.2596,2.2661,2.27,2.271,2.2763,2.2766,2.2713,2.2704,2.2236,2.144,2.0614,0.0,0.0,0.0,0.0,0.0,0.0,0.0,0.0,0.0,0.0,0.0,0.0,0.0,0.0,0.0,0.0,0.0,0.0,0.0,0.0,0.0,0.0,0.0,0.0,0.0,0.0,0.0,0.0,0.0,0.0,0.0,0.0,0.0,0.0,0.0,0.0,0.0,0.0,1.9238,2.0721,0.0,0.0,0.0,0.0,2.3042,2.3074,2.3461,2.4283,2.4336,2.4716,2.5543,2.5516,2.5892,2.6773,2.6773,2.6987,2.7434,2.7429,2.719,2.679,2.6708,2.6696,2.623,1.8077,1.453,1.3713,0.3184,-0.1202,-0.1246,-0.1186,-0.609,-1.3229,-1.3208,-1.8332,-2.5271,0.0,0.0,0.0,0.0,0.0,0.9191,0.9191,0.9837,1.0627,1.1428,1.2231,1.3076,1.3955,1.4064,1.4347,1.495,1.5379,1.6046,1.7114,1.7537,1.8153,1.9031,1.9708,2.0618,2.187,2.2739,2.3207,2.3266,2.4429,2.4968,2.5,2.5673,2.5979,2.5979,2.6053,2.5813,2.5241,2.3593,2.2759,2.2507,2.22,2.158,0.0,0.0,0.0,0.0,0.0,0.0,0.0,0.0,0.0,0.0,0.0,0.0,0.0,0.0,0.0,0.0,0.0,0.0,0.0,0.0,0.0,0.0,0.0,0.0,0.0,0.0,0.0,0.0,0.0,0.0,0.0,0.0,0.0,0.0,0.0,0.0,0.0,2.0912,2.1944,0.0,2.2632,2.343,2.3935,2.3946,2.4466,2.5138,2.5968,2.6018,2.6418,2.7269,2.7289,2.742,2.7721,2.7735,2.7859,2.8139,2.8133,2.8139,2.8138,2.8112,2.8105,2.7923,2.4865,2.3515,2.3191,1.9529,1.1521,0.1573,0.1601,-0.0251,-0.292,-0.2925,-0.8999,-1.7227,0.0,0.0,0.0,0.9158,0.9158,0.9244,0.9505,1.0204,1.0993,1.1768,1.2595,1.3335,1.3931,1.4068,1.4441,1.5318,1.5764,1.6575,1.7906,1.8401,1.9021,1.9882,2.1086,2.207,2.279,2.3884,2.4492,2.4587,2.6026,2.6738,2.6751,2.7484,2.78,2.78,2.7868,2.7594,2.6997,2.5297,2.4138,2.3392,2.3411,2.2929,2.2115,0.0,0.0,0.0,0.0,0.0,0.0,0.0,0.0,0.0,0.0,0.0,0.0,0.0,0.0,0.0,0.0,0.0,0.0,0.0,0.0,0.0,0.0,0.0,0.0,0.0,0.0,0.0,0.0,0.0,0.0,0.0,0.0,0.0,0.0,0.0,2.2296,2.2248,2.3005,2.3547,2.3536,2.4567,2.5242,2.5231,2.6041,2.6773,2.7308,2.7332,2.7599,2.8157,2.817,2.83,2.8605,2.8599,2.8722,2.8934,2.8946,2.8931,2.8935,2.8935,2.8946,2.8946,2.893,2.8874,2.8846,2.8839,2.2168,1.1881,1.1301,0.9314,0.6779,0.6791,0.0691,-0.8055,0.0,0.9109,0.9109,0.9109,0.9109,0.934,1.0083,1.0939,1.176,1.2509,1.3369,1.3933,1.3984,1.409,1.448,1.5368,1.6305,1.7172,1.7994,1.8985,1.9919,2.076,2.2454,2.3487,2.3658,2.5261,2.617,2.6341,2.7219,2.7646,2.763,2.779,2.7877,2.7877,2.7945,2.796,2.7933,2.7933,2.6541,2.4321,2.4296,2.3779,2.2954,0.0,0.0,0.0,0.0,0.0,0.0,0.0,0.0,0.0,0.0,0.0,0.0,0.0,0.0,0.0,0.0,0.0,0.0,0.0,0.0,0.0,0.0,0.0,0.0,0.0,0.0,0.0,0.0,0.0,0.0,0.0,0.0,0.0,2.1847,2.2584,2.3144,2.3137,2.3932,2.4475,2.4469,2.5979,2.6937,2.6933,2.7726,2.8207,2.8246,2.8235,2.8217,2.8178,2.8184,2.8577,2.9427,2.9447,2.9834,3.0602,3.0602,3.0602,3.0602,3.0604,3.0595,3.0595,3.054,3.0491,3.0491,3.049,3.0499,3.0325,2.8637,2.294,1.5667,1.5667,1.0248,0.1442,0.9109,0.9109,0.9109,0.9109,0.9109,0.934,1.0083,1.0897,1.1716,1.2495,1.3369,1.3933,1.3984,1.4595,1.5325,1.6273,1.7155,1.8027,1.8892,1.9844,2.1056,2.2592,2.3184,2.408,2.5374,2.5861,2.6464,2.7177,2.8037,2.8498,2.8564,2.9283,2.9602,2.9621,2.9682,2.9385,2.884,2.884,2.8106,2.69,2.6311,2.5208,2.3914,0.0,0.0,0.0,0.0,0.0,0.0,0.0,0.0,0.0,0.0,0.0,0.0,0.0,0.0,0.0,0.0,0.0,0.0,0.0,0.0,0.0,0.0,0.0,0.0,0.0,0.0,0.0,0.0,0.0,0.0,0.0,2.3281,2.3452,2.2836,2.3493,2.4049,2.4034,2.5336,2.6205,2.6203,2.7191,2.7843,2.7851,2.8028,2.8405,2.9052,2.907,2.9334,2.9881,2.992,3.0028,3.028,3.028,3.0388,3.0604,3.0604,3.0595,3.0597,3.055,3.054,3.054,3.051,3.049,3.049,3.0439,3.0428,3.037,2.9908,2.8287,2.6217,2.6158,1.9992,1.0191,0.9147,0.9147,0.9147,0.9147,0.9147,0.9494,1.058,1.1143,1.1847,1.299,1.359,1.3944,1.4026,1.4802,1.5677,1.6609,1.7497,1.8371,1.9234,2.0551,2.1931,2.3344,2.4148,2.5032,2.6091,2.6832,2.746,2.8042,2.8922,2.9384,2.9464,3.0023,3.0305,3.0299,3.0367,3.0155,2.9727,2.9727,2.9274,2.8498,2.8039,2.6842,2.5273,2.456,2.3994,2.3446,2.2609,2.2096,2.1659,2.0672,0.0,0.0,0.0,0.0,0.0,0.0,0.0,0.0,0.0,0.0,0.0,0.0,0.0,0.0,0.0,0.0,0.0,0.0,0.0,0.0,0.0,0.0,0.0,0.0,2.4066,2.4469,2.4651,2.4843,2.5063,2.5414,2.6305,2.7036,2.7373,2.819,2.8702,2.8689,2.8973,2.9373,2.9889,2.9893,3.0117,3.0593,3.0593,3.0613,3.0595,3.0567,3.0558,3.0568,3.0559,3.0569,3.0569,3.053,3.05,0.0,3.0479,3.0469,3.0458,3.0425,3.0383,0.0,0.0,0.0,0.0,0.0,2.6504,1.9972,0.9206,0.9206,0.9206,0.9206,0.9206,0.9721,1.1267,1.1514,1.21,1.3693,1.3894,1.3966,1.41,1.4902,1.5796,1.6639,1.7584,1.8569,1.954,2.1161,2.2529,2.3509,2.5136,2.6098,2.6242,2.7865,2.8791,2.896,2.9732,3.0118,3.0188,3.0266,3.0286,3.0304,3.0379,3.0444,3.0499,3.0509,3.0095,2.9437,2.9339,2.8299,2.6636,2.5156,2.4521,2.4335,2.3466,2.2682,2.2076,2.1986,0.0,0.0,0.0,0.0,0.0,0.0,0.0,0.0,0.0,0.0,0.0,0.0,0.0,0.0,0.0,0.0,0.0,0.0,0.0,0.0,0.0,0.0,0.0,0.0,2.4615,2.5208,2.6684,2.6353,2.6247,2.6962,2.7137,2.7451,2.8171,2.9026,2.9535,2.9539,3.0206,3.0602,3.0602,0.0,0.0,0.0,0.0,3.0597,3.0588,3.052,3.0491,3.0491,3.049,3.0499,3.0499,3.0479,3.0499,3.0499,3.0428,3.0406,3.0386,3.039,3.0348,3.0292,3.0292,3.0292,3.0279,3.0215,3.018,0.0,0.9199,0.9206,0.9206,0.9191,0.9201,0.9736,1.134,1.1575,1.2146,1.3697,1.398,1.4068,1.41,1.5494,1.653,1.6751,1.8166,1.9755,2.1371,2.1883,2.2798,2.4376,2.5502,2.6412,2.7138,2.8214,2.9129,2.9855,3.0018,3.0118,3.0188,3.0266,3.0286,3.0304,3.0364,3.0447,3.0509,3.05,3.0434,3.0288,2.9582,2.831,2.6752,2.6437,2.5913,2.5238,2.4349,2.3952,2.3723,2.3071,2.2267,2.1523,2.1374,2.0834,0.0,0.0,0.0,0.0,0.0,0.0,0.0,0.0,0.0,0.0,0.0,0.0,0.0,0.0,0.0,0.0,0.0,0.0,0.0,2.5313,2.5994,2.652,2.684,2.7315,2.7717,2.7923,2.8514,2.8981,2.9128,2.9889,3.0358,3.0369,3.0516,3.0604,3.0604,3.054,0.0,3.0511,3.052,3.0519,3.0519,3.0509,3.0509,3.0509,0.0,0.0,3.0499,3.0439,3.0428,3.0428,3.0414,3.0359,3.0328,3.0316,3.0279,3.0215,3.0215,3.0215,3.0202,3.0133,3.0123,2.9842,0.9318,0.9271,0.9261,0.9298,0.9635,1.0292,1.1464,1.199,1.2659,1.3863,1.4091,1.4163,1.419,1.5741,1.6769,1.6835,1.8448,2.0193,2.1897,2.2129,2.2951,2.4632,2.6004,2.6968,2.743,2.8772,2.9669,3.0098,3.0138,3.018,3.0247,3.0286,3.0323,3.0352,3.0386,3.0439,3.05,3.0491,3.053,3.0559,3.0133,2.9212,2.8012,2.7128,2.6566,2.6145,2.5257,2.466,2.4238,2.3835,2.3149,2.2457,2.2442,2.2154,2.1792,0.0,0.0,0.0,0.0,0.0,0.0,0.0,0.0,0.0,0.0,0.0,0.0,0.0,0.0,2.3878,2.428,0.0,2.5137,2.5585,2.634,2.6998,2.7439,2.821,2.8766,2.8799,2.9154,2.9567,2.9959,3.0369,3.0595,3.0549,3.054,3.055,3.054,3.052,3.05,3.05,3.0509,3.0499,3.0499,3.0469,3.0458,3.0458,3.0447,3.0455,3.0455,3.0414,3.0414,3.0402,3.0359,3.0336,3.0304,3.0267,3.0228,3.0207,3.0147,3.0152,3.0152,3.0123,3.0079,3.0049,0.943,0.9394,0.9367,0.9403,1.0073,1.0862,1.1613,1.243,1.3219,1.4038,1.4203,1.4255,1.4319,1.5823,1.6982,1.7398,1.8749,2.0299,2.1943,2.2206,2.3027,2.4663,2.6465,2.743,2.7494,2.9216,3.0098,3.0123,3.0161,3.0234,3.0305,3.0323,3.034,3.0398,3.0409,3.046,3.0491,3.0501,3.054,3.0607,3.0607,3.0227,2.9474,2.7903,2.7149,2.6786,2.5912,2.516,2.4544,2.4544,2.401,2.3339,2.3339,2.3222,2.311,2.31,2.3104,0.0,0.0,0.0,0.0,0.0,0.0,0.0,0.0,2.3332,2.3391,2.3559,2.4136,2.462,2.4568,2.5119,2.5659,2.5814,2.652,2.7356,2.823,2.9094,2.9641,2.9629,2.9621,2.9885,3.0546,3.0586,3.0559,3.05,3.05,3.05,3.0509,3.0499,3.0479,3.0479,3.0488,3.0488,3.0488,3.0436,3.0406,3.0406,3.0402,3.0398,3.0398,3.0398,3.0379,3.0379,3.0304,3.0279,3.0279,3.0215,3.0194,3.018,3.0123,3.0094,3.0079,3.0079,3.0049,3.0007,0.9562,0.957,0.9553,0.9501,1.0141,1.0953,1.175,1.2563,1.3377,1.4172,1.4342,1.4392,1.4393,1.5874,1.7546,1.9166,1.949,2.036,2.214,2.2281,2.3069,2.4795,2.6555,2.7494,2.75,2.9208,3.0142,3.0185,3.0194,3.0228,3.0304,3.0367,3.0402,3.0398,3.0471,3.0491,3.0501,3.0559,3.0588,3.0595,3.0595,3.0582,3.0447,2.947,2.8184,2.6786,2.5912,2.5543,2.5446,2.5446,2.4869,2.416,2.416,2.3684,2.311,2.311,2.3091,2.3091,2.3095,2.3095,2.3095,2.3095,2.3095,2.329,0.0,2.4165,2.4384,2.5162,2.5401,2.5454,2.5454,2.5526,2.584,2.6553,2.7381,2.8252,2.9125,2.9954,3.0479,3.0481,3.046,3.0507,3.0588,3.055,3.05,3.0509,3.0509,3.0509,3.0499,3.0439,3.0398,3.0398,3.0414,3.041,3.041,3.039,3.041,3.041,3.041,3.0398,3.0398,3.0398,3.0367,3.0304,3.0241,3.0202,3.0202,3.0213,3.0152,3.0109,3.0109,3.0064,3.0003,3.0003,3.0022,2.9991,0.9657,0.9665,0.9801,1.0296,1.0977,1.1587,1.1953,1.3103,1.4034,1.438,1.4441,1.4469,1.4522,1.606,1.7751,1.9457,1.966,2.045,2.2187,2.2335,2.3137,2.4888,2.6584,2.7547,2.7611,2.9298,3.0185,3.0272,3.026,3.0279,3.0367,3.0402,3.0417,3.046,3.0481,3.052,3.0559,3.0588,3.0606,3.0604,3.0593,3.0629,3.0545,2.9167,2.8203,2.7492,2.6669,2.6022,0.0,2.5609,2.5331,2.5001,2.5001,2.4768,2.4502,2.4502,2.4502,2.4508,2.4544,2.4549,2.454,2.455,2.4555,2.4632,2.4983,2.506,2.5153,2.5517,2.5604,2.5599,2.5593,2.557,2.5822,0.0,2.7508,2.8357,2.9212,3.0027,3.054,3.054,3.054,3.054,3.054,3.0519,3.0469,3.0425,3.0447,3.0447,3.0444,3.0414,3.0402,3.0402,3.039,3.0398,3.0398,3.0398,3.0398,3.0398,3.0367,3.0348,3.0348,3.0343,3.0318,3.0241,3.0202,3.0207,3.0199,3.0199,3.0157,3.0094,3.0098,3.0068,3.0007,3.0007,2.9975,2.9926,0.9728,0.9924,1.0279,1.0916,1.1817,1.2446,1.2483,1.3661,1.4563,1.4563,1.4567,1.4748,1.5255,1.6466,1.7893,1.9518,1.9732,2.0527,2.2254,2.2401,2.3202,2.4947,2.6426,2.7336,2.7695,2.9123,3.0023,3.0337,3.0323,3.0359,3.0433,3.0428,3.046,3.0491,3.0511,3.055,3.0588,3.0595,3.0613,3.064,3.0629,3.0665,3.0533,2.9038,2.832,2.7964,2.6916,2.6113,2.557,2.557,2.5544,2.5499,2.5499,2.5499,2.5499,2.5499,2.5499,2.5499,2.5564,2.5576,2.5568,2.5565,2.5565,2.5565,2.5565,2.5565,2.5565,2.5568,2.5576,2.5564,2.5577,2.5538,2.5853,2.6943,2.7625,2.8373,2.9467,3.0134,3.05,3.0469,3.0466,3.0455,3.0458,3.0458,3.0436,3.0379,3.0383,3.0371,3.0355,3.0374,3.0374,3.0374,3.0374,3.0374,3.0374,3.0374,3.0374,3.0374,3.0323,3.0292,3.0292,3.0273,3.0253,3.0207,3.0207,3.0213,3.0204,3.0171,3.0142,3.0113,3.0068,3.0022,2.9975,2.9975,2.9943,2.9876,0.9799,1.0487,1.1077,1.1091,1.2448,1.3521,1.3458,1.4154,1.4701,1.4701,1.4683,1.5309,1.6941,1.7229,1.7967,1.9656,1.98,2.057,2.2369,2.2495,2.3259,2.5013,2.5964,2.6823,2.7676,2.8587,2.9493,3.0398,3.0398,3.0433,3.0499,3.05,3.0491,3.0501,3.0577,3.0595,3.0595,3.0593,3.0637,3.07,3.07,3.0695,3.0593,2.97,2.8831,2.7886,2.6236,2.559,2.5499,2.5499,2.5499,2.5499,2.5499,2.5499,2.5499,2.5499,2.5499,2.5499,2.5499,2.5499,2.5499,2.5499,2.5499,2.5499,2.5499,2.5499,2.5499,2.5499,2.5499,2.5499,2.5499,2.5498,2.603,2.7696,2.798,2.8579,3.0239,3.049,3.0469,3.0398,3.0402,3.0379,0.0,3.0348,3.0379,3.0316,3.0304,3.0292,3.0292,3.0292,3.0292,3.0292,3.0292,3.0292,3.0292,3.0292,3.0292,3.0292,3.0292,3.0292,3.0292,3.0234,3.0188,3.0207,3.0199,3.0204,3.0185,3.0123,3.0113,3.0087,3.0022,2.9959,2.9912,2.9912,2.9912,2.9876,1.1532,1.1805,1.2203,1.2733,1.3293,1.3845,1.4413,1.4654,1.4765,1.4765,1.4813,0.0,0.0,0.0,0.0,0.0,1.9922,2.0429,2.1552,2.2224,2.3088,2.4247,2.5688,2.6634,2.6968,2.8345,2.9244,2.9605,3.0166,3.0488,3.05,3.055,3.0578,3.0577,3.0585,3.0593,3.0602,3.0657,3.0673,3.07,3.0695,3.0353,2.9738,2.8864,2.8009,2.7089,0.0,2.5531,2.549,2.549,2.5503,2.5495,2.5495,2.5468,2.555,2.6133,2.6307,2.6423,2.6992,2.7163,2.7036,2.649,2.6493,2.643,2.5673,2.5499,2.5499,2.5499,2.549,2.5495,2.5495,2.5464,2.5807,2.6957,2.7141,2.773,2.9398,2.9608,2.9759,3.0263,3.0323,0.0,0.0,0.0,0.0,3.0286,3.0305,3.0305,3.0292,3.0292,3.0292,3.0292,3.0292,3.0292,3.0292,3.0292,3.0292,3.0312,3.0247,3.0221,3.0226,3.0213,3.0199,3.0199,3.0199,3.0171,3.0123,3.0109,3.0064,3.0022,3.0007,2.9959,2.9895,2.9842,2.9808,2.9753,0.0,1.2712,1.3124,1.3657,1.3992,0.0,0.0,0.0,0.0,0.0,0.0,0.0,0.0,0.0,0.0,0.0,0.0,2.0391,2.1211,2.213,2.3021,2.3902,2.5305,2.625,2.66,2.767,2.8568,2.9235,2.9805,3.0231,3.055,3.0568,3.0595,3.0613,3.0629,3.0637,3.0637,3.068,3.0513,3.0241,3.0236,2.9719,2.8845,2.799,2.7304,0.0,2.5802,2.5498,2.5507,2.548,2.5472,2.5456,2.5448,2.5653,2.5964,2.6534,2.6891,2.7258,2.7817,2.7961,2.7786,2.7089,2.695,2.6753,2.5708,2.5456,2.5456,2.5456,2.5453,2.5468,2.5468,2.5432,2.5676,2.6525,2.6651,2.7142,2.8506,2.8917,2.926,2.9774,3.0081,3.0266,0.0,0.0,0.0,3.0266,3.0266,3.0266,3.0253,3.0253,3.0253,3.0253,3.0253,3.0253,3.0253,3.0253,3.0253,3.0253,3.0226,3.0199,3.0204,3.0204,3.0204,3.0204,3.0204,3.0157,3.0109,3.0094,3.0068,3.0007,2.9972,2.9907,2.9859,2.9825,2.9773,2.97,0.0,0.0,1.3863,0.0,0.0,0.0,0.0,0.0,0.0,0.0,0.0,0.0,0.0,0.0,0.0,0.0,0.0,0.0,2.1273,2.2144,2.3025,2.3908,2.4764,2.5659,2.6524,2.6641,2.7508,2.9168,2.9215,2.9668,3.0468,3.0466,3.0474,3.0474,3.0537,3.0564,3.0571,3.0574,3.0095,2.9331,2.9331,2.8826,2.7971,2.7194,2.6825,2.6636,2.5802,2.551,2.5484,2.5429,2.5401,2.5393,2.5395,2.5985,2.6698,2.6737,2.7325,2.7971,2.801,2.8029,2.7885,2.7277,2.6958,2.6525,2.5599,2.5406,2.5406,2.5406,2.5406,2.5387,2.5387,0.0,2.5639,2.639,2.6533,2.6811,2.762,2.8394,2.8893,0.0,0.0,0.0,0.0,0.0,0.0,3.0194,0.0,3.0194,3.0185,3.0185,3.0185,3.0185,3.0204,3.0204,3.0204,3.0204,3.0204,3.0204,3.0204,3.0204,3.0204,3.0204,3.0204,3.0204,3.0204,3.0157,3.0094,3.0102,3.0072,2.9991,2.9905,2.9857,2.9808,2.9808,2.9737,2.9701,0.0,0.0,0.0,0.0,0.0,0.0,0.0,0.0,0.0,0.0,0.0,0.0,0.0,0.0,0.0,0.0,0.0,0.0,2.0493,2.1317,2.2199,2.3071,2.3944,2.481,2.5697,2.6359,2.6925,2.7351,2.805,2.852,2.8741,2.8737,2.874,2.8747,2.8813,2.8845,2.8831,2.8837,2.8707,2.8507,2.852,2.799,2.7187,2.6986,2.6456,2.5802,2.5576,2.5464,2.5429,2.5401,2.5393,2.5387,2.5341,2.5929,2.6746,2.7338,2.8096,2.8852,2.9505,2.9713,2.9421,2.7975,2.7603,2.7219,2.5735,2.5369,2.535,2.5388,2.537,2.5322,2.5322,2.5283,0.0,2.5521,2.5559,0.0,2.6718,2.696,0.0,2.8792,0.0,2.9408,3.0056,3.0098,0.0,0.0,3.0132,3.0132,3.0132,3.0128,3.0123,3.0123,3.0171,3.0204,3.0204,3.0204,3.0204,3.0204,3.0204,3.0204,3.0204,3.0204,3.0204,3.0204,3.0157,3.0128,3.0102,3.0038,2.9991,2.9924,2.991,2.9859,2.9789,2.9735,2.9682,2.9607,0.0,0.0,0.0,0.0,0.0,0.0,0.0,0.0,0.0,0.0,0.0,0.0,0.0,0.0,0.0,0.0,0.0,0.0,0.0,2.1066,2.1922,2.2805,2.3686,2.4551,2.5421,2.5925,2.6366,2.6734,2.7302,2.7743,2.8092,2.812,2.8139,2.8145,2.8176,2.8201,2.8207,2.8207,2.7974,0.0,0.0,2.7101,2.6337,2.6326,2.5971,2.5499,2.5499,2.5449,2.5404,2.5359,2.536,2.5351,2.5303,2.5878,2.6636,2.7102,2.7819,2.8644,2.9384,2.9428,2.9017,2.8038,2.7542,2.6948,2.561,2.5284,2.5264,2.5303,2.5293,2.5253,2.5252,2.5222,2.5201,0.0,0.0,0.0,2.5815,2.6161,2.6708,0.0,2.8384,0.0,2.9493,2.9844,3.0072,0.0,3.0087,3.0102,3.0102,3.0098,3.0098,3.0098,3.0147,3.0161,3.0157,3.0204,3.0204,3.0204,3.0204,3.0204,3.0204,3.0204,3.0185,3.0157,0.0,3.0079,3.0053,3.0022,2.9956,2.9888,2.9893,2.9859,2.9808,2.9717,2.9664,2.9588,0.0,0.0,0.0,0.0,0.0,0.0,0.0,0.0,0.0,0.0,1.5201,1.5836,1.7536,1.7709,0.0,0.0,0.0,0.0,0.0,0.0,2.1833,2.2701,2.3589,2.4435,2.5306,2.5439,2.5887,2.6643,2.6696,2.7083,2.7763,2.7826,2.7843,2.7843,2.7843,2.7862,2.7868,2.7868,2.7434,2.6734,2.6723,2.6271,2.5604,0.0,2.5564,2.5492,2.5485,2.5453,2.5397,2.5322,2.5302,2.5311,2.5301,2.5836,2.6477,2.6485,2.7125,2.798,2.8433,2.8183,2.775,2.7631,2.6937,2.6121,2.5362,2.519,2.519,2.519,2.519,2.519,2.519,2.519,2.5198,2.518,0.0,2.5175,2.5114,2.5697,2.6173,2.6268,2.7561,2.8531,2.876,2.9399,2.9858,2.9956,3.0022,3.0072,3.0072,3.0087,3.0087,3.0102,3.0102,3.0098,3.0094,3.0157,3.019,3.019,3.0204,3.0204,3.019,3.0204,3.0157,3.0094,0.0,0.0,3.0007,2.9988,2.9956,2.9907,2.9893,2.9842,2.979,2.9717,2.9645,2.9588,0.0,0.0,0.0,0.0,0.0,0.0,0.0,0.0,0.0,0.0,1.5222,1.5851,0.0,0.0,0.0,0.0,0.0,0.0,0.0,0.0,0.0,2.1862,2.2746,2.3586,2.4413,2.5195,2.5661,2.5803,2.5821,2.5896,2.6028,2.6053,2.6043,2.6048,2.6048,2.6072,2.6119,2.6119,2.6041,2.5905,2.5857,2.5732,2.56,2.5604,0.0,0.0,2.5437,2.5415,2.5398,2.5312,2.5292,2.5301,2.5236,2.5757,2.6414,2.6352,2.7268,2.8229,2.7891,2.77,2.7465,2.6734,2.5901,2.5234,2.5144,2.5118,2.5118,2.5118,2.5118,2.5125,2.512,2.512,2.5107,2.5126,2.5114,2.5114,2.5101,2.5164,2.5479,0.0,2.6427,2.71,2.8515,2.8763,0.0,0.0,0.0,0.0,2.994,2.9991,3.0038,3.0102,3.0102,3.0102,3.0102,3.0117,3.0117,3.0117,3.0128,3.0128,3.0117,3.0128,3.0113,3.0102,0.0,0.0,3.0007,2.994,2.9905,2.9888,2.9842,2.9808,2.979,2.9719,2.9626,2.9531,0.0,0.0,0.0,0.0,0.0,0.0,0.0,1.5291,1.5291,1.5291,1.5274,1.5918,1.7664,1.7857,1.8534,0.0,0.0,0.0,0.0,0.0,0.0,2.1667,2.2105,2.2713,2.3553,2.4469,2.4927,2.4918,0.0,2.561,2.56,2.5643,2.5648,2.5652,2.5656,2.5664,2.5707,2.5707,2.5707,2.5683,2.5632,2.56,2.5605,0.0,0.0,0.0,2.5421,2.5397,2.5389,2.5273,2.525,2.5248,2.5203,2.5435,2.5711,2.5685,2.6129,2.6567,2.6268,2.6179,2.6083,2.5677,2.5259,2.4974,2.5032,2.4721,2.4416,2.4409,2.4067,2.375,2.3757,2.3745,2.3872,2.4302,2.4359,2.4498,2.4888,2.4917,2.5036,2.5433,2.5842,2.6412,2.7223,2.8088,2.8768,0.0,0.0,0.0,2.9841,2.991,2.9959,2.9988,3.0022,3.0038,3.0038,3.0087,3.0102,3.0102,3.0098,3.0098,3.0102,3.0098,3.0083,3.0038,0.0,0.0,2.994,2.9905,2.9907,2.9874,2.9825,2.9771,2.9754,2.9719,2.9626,2.9492,0.0,0.0,0.0,0.0,0.0,0.0,1.5299,1.5299,1.5299,1.5299,1.5299,1.5959,1.7708,1.7898,1.8571,0.0,0.0,0.0,0.0,0.0,0.0,0.0,0.0,0.0,0.0,0.0,0.0,2.4049,2.4919,0.0,0.0,0.0,0.0,0.0,2.5691,2.5697,2.5697,2.5697,2.5694,0.0,0.0,2.5332,0.0,0.0,0.0,0.0,0.0,2.4868,2.4812,2.4696,2.4766,2.4901,2.4889,2.4974,2.5076,2.5057,2.4999,2.4953,2.4896,2.4883,2.4874,2.4874,2.4742,2.4642,2.4688,2.4075,2.3499,2.3505,2.2961,2.2474,2.2474,2.2481,2.2672,2.3296,2.3547,2.3874,2.444,2.467,2.4783,2.4783,2.5367,0.0,2.601,2.7231,0.0,0.0,0.0,0.0,2.9808,2.9842,2.9876,2.9907,2.994,2.9991,2.9972,3.0022,3.0072,3.0072,3.0072,3.0072,3.0072,3.0072,3.0038,2.9972,0.0,0.0,0.0,2.9888,2.9891,2.9895,2.9825,2.9754,2.9699,2.9682,2.9589,2.9492,0.0,0.0,0.0,0.0,0.0,0.0,1.5303,1.5303,1.5303,1.5303,1.5303,1.5963,1.7711,1.7907,1.8571,0.0,0.0,0.0,0.0,0.0,0.0,0.0,0.0,0.0,0.0,0.0,0.0,2.3209,0.0,0.0,0.0,0.0,0.0,0.0,0.0,0.0,2.5707,2.5707,0.0,0.0,0.0,0.0,0.0,0.0,0.0,0.0,0.0,2.3097,2.3026,2.2959,2.3373,2.3921,2.386,2.4378,2.501,2.4931,2.487,2.4808,2.4808,2.4808,2.4808,2.4808,2.4275,2.3709,2.3742,2.31,2.2527,2.2527,2.2451,2.2413,2.2413,2.2413,2.242,2.2437,2.3046,2.3545,2.361,2.4242,2.4698,2.4698,0.0,0.0,2.5755,2.5961,0.0,0.0,0.0,0.0,0.0,2.9808,2.9842,2.9912,2.9912,2.991,2.9905,2.9924,2.9924,2.9924,2.9972,2.9972,2.9924,2.9972,2.9972,2.9905,0.0,0.0,0.0,2.9888,2.9891,2.9895,2.9825,2.9754,2.9699,2.9626,2.955,2.9492,0.0,0.0,0.0,0.0,0.0,0.0,1.5307,1.5295,1.5299,1.5299,1.5303,1.5753,1.6977,1.759,1.8591,2.0318,2.0454,0.0,0.0,0.0,0.0,0.0,0.0,0.0,0.0,0.0,2.2314,2.2325,2.3182,0.0,0.0,0.0,0.0,0.0,0.0,0.0,2.4135,2.4135,0.0,0.0,0.0,0.0,0.0,0.0,0.0,0.0,0.0,0.0,2.2795,2.2719,2.2847,2.3068,2.3404,2.3695,2.4039,2.4667,2.4779,2.4734,2.4682,2.4328,2.396,2.396,2.3322,2.2717,2.2764,2.2125,2.1561,2.1569,2.1142,2.0772,2.0772,2.0778,2.0921,2.1376,2.2131,2.2828,2.3371,2.4142,2.465,2.465,2.4615,0.0,0.0,0.0,0.0,0.0,0.0,0.0,0.0,2.9718,2.9771,2.9842,2.9878,2.9893,2.991,2.9907,2.9888,2.9888,2.994,2.994,2.9888,2.994,2.994,2.9888,0.0,0.0,0.0,2.9891,2.9876,2.9825,2.9771,2.9718,2.9682,2.9626,2.955,2.9492,0.0,0.0,0.0,0.0,0.0,1.5311,1.5291,1.5303,1.5311,1.5311,1.5295,1.5629,1.6507,1.7377,1.8498,1.9954,2.0347,0.0,0.0,0.0,0.0,0.0,0.0,0.0,0.0,0.0,2.1425,2.1416,2.2289,2.2718,0.0,0.0,0.0,0.0,0.0,0.0,0.0,0.0,0.0,0.0,0.0,0.0,0.0,0.0,0.0,0.0,0.0,0.0,0.0,0.0,0.0,2.2315,2.2621,2.2697,2.2881,2.3969,2.4024,2.3742,2.3851,2.345,2.3026,2.3026,2.2391,2.1755,2.1803,2.1199,2.0618,2.0626,2.0126,1.9688,1.9675,1.9668,1.9846,2.0411,2.1161,2.198,2.2837,2.3657,2.4253,2.4478,0.0,2.4497,0.0,0.0,0.0,0.0,0.0,0.0,0.0,2.9626,2.97,2.9771,2.9825,2.9842,2.9859,2.9893,2.9891,2.9891,2.9907,2.9888,2.9888,2.9888,2.9888,0.0,0.0,0.0,0.0,2.9893,2.9842,2.9771,2.9717,2.97,2.9701,2.9607,2.955,2.9492,0.0,0.0,0.0,0.0,0.0,1.5302,1.5291,1.5291,1.5291,1.5291,1.5291,1.5625,1.6502,1.737,1.8222,1.9042,1.9954,0.0,0.0,0.0,0.0,0.0,0.0,0.0,2.0508,2.0519,2.051,2.0519,2.1396,2.1805,2.1825,2.2708,2.3107,0.0,0.0,0.0,0.0,0.0,0.0,0.0,0.0,0.0,0.0,0.0,0.0,0.0,0.0,0.0,0.0,0.0,0.0,0.0,0.0,2.126,2.1639,2.2773,2.2328,2.154,2.1998,2.2111,2.2111,2.2111,2.1498,2.0919,2.0919,2.0284,1.9718,1.9718,1.9718,1.9686,1.9614,1.9596,1.9587,1.9518,2.0204,2.1004,2.1789,2.2602,2.3415,0.0,0.0,2.4303,0.0,0.0,0.0,0.0,0.0,0.0,0.0,0.0,2.9626,2.9699,2.9698,2.9735,2.9808,2.9878,2.9895,2.9912,2.9891,2.9888,2.9888,2.9888,0.0,0.0,0.0,0.0,0.0,2.9895,2.9806,2.9717,2.9717,2.97,2.9683,2.955,2.9492,2.9492,0.0,0.0,0.0,0.0,0.0,0.0,1.5293,1.5298,1.5302,1.5302,1.5311,1.5412,1.5683,1.6497,1.7355,1.8203,1.9609,0.0,0.0,0.0,0.0,0.0,0.0,0.0,2.0495,2.0508,2.0499,2.051,2.0782,2.0903,2.0929,2.1188,2.1327,2.1311,2.1318,2.1345,0.0,2.1345,0.0,0.0,0.0,0.0,0.0,0.0,0.0,0.0,0.0,0.0,0.0,0.0,0.0,0.0,0.0,0.0,0.0,2.0626,2.1251,2.1917,2.2047,2.1626,2.1154,2.1154,2.0548,1.9926,1.9926,1.974,1.9555,1.9555,1.9555,1.9555,1.9541,1.9541,1.9508,1.9493,2.0178,2.0991,2.1789,2.2584,0.0,2.421,2.4284,2.4284,0.0,0.0,0.0,0.0,0.0,0.0,0.0,0.0,2.9569,2.9626,2.9682,2.9717,2.9735,2.9808,2.9842,2.9895,2.9893,2.9891,2.9888,2.9888,0.0,0.0,0.0,0.0,0.0,2.9806,2.9735,2.9699,2.9701,2.9701,2.9683,2.955,2.9492,2.9492,0.0,0.0,0.0,0.0,0.0,0.0,1.5303,1.5293,1.5293,1.5293,1.5298,1.5302,1.5302,1.6081,1.6934,1.7781,1.9118,0.0,0.0,0.0,0.0,0.0,0.0,0.0,2.0502,2.0495,2.0508,2.0499,2.0499,2.0503,2.0494,2.0497,2.05,2.0506,2.0492,2.0516,0.0,2.0516,0.0,0.0,0.0,0.0,2.0484,0.0,0.0,0.0,0.0,0.0,0.0,0.0,0.0,0.0,0.0,0.0,0.0,0.0,2.035,2.1161,2.1146,2.0711,2.0259,2.0259,1.9863,1.9501,1.9501,1.9501,1.9501,1.9501,1.9501,1.9483,1.9468,1.9453,1.9453,1.9424,1.9847,2.0547,2.1634,0.0,0.0,2.4081,0.0,0.0,0.0,0.0,0.0,0.0,0.0,0.0,0.0,0.0,2.9492,2.955,2.9645,2.97,2.97,2.9736,2.9789,2.9806,2.9842,2.9876,2.9891,0.0,0.0,0.0,0.0,0.0,0.0,2.9735,2.9699,2.97,2.9701,2.9664,2.9645,2.955,2.9492,2.9453,0.0,0.0,0.0,0.0,0.0,0.0,0.0,1.5303,1.5303,1.5303,1.5303,1.5303,1.5303,1.6019,1.6827,1.7639,1.8504,0.0,0.0,0.0,0.0,0.0,0.0,2.0439,2.0483,2.0497,2.0491,2.0504,2.0504,2.0492,2.0503,2.0503,2.049,2.0503,2.0503,2.0509,2.0497,2.0509,0.0,0.0,2.051,2.0496,0.0,0.0,0.0,0.0,0.0,0.0,0.0,0.0,0.0,0.0,0.0,0.0,0.0,0.0,0.0,0.0,0.0,1.955,1.9485,1.9504,1.9493,1.9483,1.9501,1.9501,0.0,1.9501,1.9501,1.9468,1.939,1.939,1.936,1.9298,1.9282,1.9833,0.0,2.1698,0.0,0.0,0.0,0.0,0.0,0.0,0.0,0.0,0.0,0.0,0.0,0.0,0.0,2.9492,2.9626,2.9701,2.9701,2.97,2.9699,2.9717,2.9771,2.9825,2.9895,0.0,0.0,0.0,0.0,0.0,0.0,2.9699,2.97,2.9701,2.9701,2.9645,2.9588,2.9512,2.9453,2.9392,0.0,0.0,0.0,0.0,0.0,0.0,0.0,0.0,0.0,0.0,1.5303,1.5303,1.5303,1.5487,1.5922,0.0,0.0,0.0,0.0,0.0,0.0,0.0,2.0399,2.0399,2.0424,2.0424,2.0459,2.0497,2.0497,2.0511,2.0492,2.0492,2.0492,2.0499,2.0506,2.0497,2.0503,2.0506,0.0,0.0,2.0496,2.0504,0.0,0.0,0.0,0.0,1.9626,1.9766,0.0,0.0,0.0,0.0,0.0,0.0,0.0,0.0,1.8764,1.889,1.9447,0.0,1.9504,1.9493,1.9468,1.9405,0.0,1.9338,1.9338,1.9338,1.9338,1.9341,1.9329,1.9314,1.9298,1.9235,1.9235,1.9766,2.1388,0.0,0.0,2.4057,0.0,0.0,0.0,0.0,0.0,0.0,0.0,0.0,0.0,0.0,0.0,2.9492,2.9569,2.9645,2.9701,2.9701,2.9701,2.9717,2.9717,2.9771,2.9825,0.0,0.0,0.0,0.0,0.0,2.9699,2.9701,2.9701,2.9701,2.9701,2.9645,2.9588,2.9512,2.9453,2.9392,0.0,0.0,0.0,0.0,0.0,0.0,0.0,0.0,0.0,0.0,1.5303,1.5303,1.5294,1.5304,1.5622,0.0,0.0,0.0,0.0,0.0,0.0,2.0353,2.0385,2.039,2.039,2.0408,2.0418,2.0454,2.0454,2.0444,2.0448,2.0487,2.0495,2.05,2.0492,2.0499,2.0506,2.051,2.0503,2.0496,2.0504,0.0,0.0,0.0,0.0,0.0,1.8821,1.895,0.0,1.7795,1.7485,1.7655,0.0,0.0,0.0,0.0,1.7978,1.8113,1.8896,1.9322,1.9536,1.9508,1.9464,1.9438,1.9357,1.9357,1.9338,1.9323,1.9305,1.9308,1.9311,1.9295,1.928,1.92,1.9512,0.0,0.0,0.0,2.4016,0.0,0.0,0.0,0.0,0.0,0.0,0.0,0.0,0.0,0.0,0.0,0.0,0.0,2.9569,2.9626,2.9701,2.9701,2.9701,2.97,2.97,2.9718,2.9754,0.0,0.0,0.0,0.0,0.0,2.9701,2.9701,2.9701,2.9701,2.9683,2.9607,2.955,2.9472,2.9412,2.939,0.0,0.0,0.0,0.0,0.0,0.0,0.0,0.0,0.0,0.0,0.0,0.0,0.0,0.0,0.0,0.0,0.0,0.0,0.0,0.0,0.0,2.0287,2.036,2.0373,2.0373,2.0385,2.0383,2.0383,2.0388,2.0394,2.039,2.0459,2.0473,2.0482,2.0476,2.0484,2.0504,2.0504,2.0504,2.0504,2.0491,0.0,0.0,0.0,0.0,0.0,0.0,0.0,0.0,1.7035,1.6601,1.6532,1.6481,0.0,0.0,0.0,0.0,0.0,1.8125,1.8883,1.9457,1.9495,1.9508,1.9497,1.942,1.9405,1.9405,1.9323,1.9323,1.9323,1.9308,1.9308,1.9277,1.92,0.0,0.0,2.2498,2.3466,2.4016,0.0,0.0,0.0,0.0,0.0,0.0,0.0,0.0,0.0,0.0,0.0,0.0,0.0,2.9569,2.9626,2.9701,2.9701,2.9701,2.9701,2.9701,2.9701,2.9699,2.9701,0.0,0.0,0.0,0.0,2.9701,2.9701,2.9683,2.9683,2.9626,2.955,2.9472,2.9433,2.939,2.9386,0.0,0.0,0.0,0.0,0.0,0.0,0.0,0.0,0.0,0.0,0.0,0.0,0.0,0.0,0.0,0.0,0.0,0.0,0.0,1.871,1.9538,2.0262,2.0299,2.032,2.032,2.0327,2.0321,2.0321,2.0366,2.0398,2.0396,2.0413,2.0429,2.0425,2.0425,2.0454,2.0491,2.0491,2.0491,2.0491,2.0511,0.0,0.0,0.0,0.0,0.0,0.0,0.0,0.0,1.5859,1.5445,1.5434,1.537,0.0,0.0,0.0,0.0,0.0,1.7375,1.8151,1.8894,1.9442,1.9578,1.9569,1.9504,1.9479,1.9468,1.9405,1.939,1.9375,1.9314,1.9298,1.9282,1.9219,0.0,2.1735,0.0,0.0,0.0,0.0,0.0,0.0,0.0,0.0,0.0,0.0,0.0,0.0,0.0,0.0,0.0,0.0,0.0,2.9626,2.9701,2.9701,2.9701,2.9701,2.9701,2.9683,2.9701,2.9683,2.9683,0.0,0.0,2.9701,2.9701,2.9701,2.9683,2.9607,2.9607,2.9531,2.9412,2.9412,2.939,2.9386,0.0,0.0,0.0,0.0,0.0,0.0,0.0,0.0,0.0,0.0,0.0,0.0,0.0,0.0,0.0,0.0,0.0,0.0,0.0,1.828,1.9184,1.9581,2.0019,2.0258,2.0299,2.0294,2.0301,2.0288,2.0334,2.034,2.0354,2.0353,2.0365,2.0396,2.0408,2.0418,2.0448,2.0459,2.0439,2.04,0.0,0.0,0.0,0.0,0.0,0.0,0.0,0.0,0.0,0.0,1.5226,1.5199,1.5168,0.0,0.0,0.0,0.0,0.0,1.7168,1.7738,1.8295,1.9515,1.9726,1.9641,1.9633,1.9592,1.9536,1.946,1.9446,1.9431,1.9408,1.9408,1.9654,2.0435,0.0,0.0,0.0,0.0,0.0,0.0,0.0,0.0,0.0,0.0,0.0,0.0,0.0,0.0,0.0,0.0,0.0,0.0,0.0,2.9683,2.9701,2.9701,2.9701,2.9701,2.9701,2.9701,2.9701,2.9701,2.9701,0.0,0.0,2.9701,2.9701,2.9645,2.9626,2.9588,2.9511,2.9453,2.9392,2.937,2.9307,2.9283,0.0,0.0,0.0,0.0,0.0,0.0,0.0,0.0,0.0,0.0,0.0,0.0,0.0,0.0,0.0,0.0,0.0,0.0,0.0,1.7876,1.8799,1.8984,1.9777,2.0227,2.0269,2.0284,2.0292,2.0292,2.0272,2.028,2.0299,2.0301,2.0334,2.0386,2.0386,2.0372,2.0379,2.0396,2.0291,2.0039,0.0,0.0,0.0,0.0,0.0,0.0,0.0,0.0,0.0,0.0,0.0,0.0,0.0,0.0,0.0,1.5145,1.5127,1.5446,1.6923,1.7426,1.7896,1.9373,1.973,1.9757,1.9751,1.9681,1.9628,1.956,1.9546,1.9532,1.9526,1.966,0.0,2.1783,2.2609,0.0,0.0,0.0,0.0,0.0,0.0,0.0,0.0,0.0,0.0,0.0,0.0,0.0,0.0,0.0,0.0,0.0,0.0,0.0,2.9701,2.9701,2.9701,2.9701,2.9701,2.9701,2.9701,2.9701,2.9701,2.9701,2.9701,2.9701,2.9664,2.9626,2.9588,2.9531,2.9433,2.9392,2.937,2.9304,2.924,2.9156,0.0,0.0,0.0,0.0,0.0,0.0,0.0,0.0,0.0,0.0,0.0,0.0,0.0,0.0,0.0,0.0,0.0,0.0,1.6445,1.7311,1.815,1.8962,1.9769,2.0192,2.0211,2.0214,2.0205,2.0205,2.0203,2.0246,2.0292,2.0296,2.0311,2.0311,2.0313,2.0314,2.0308,2.036,1.9933,1.9195,1.9134,0.0,0.0,0.0,0.0,0.0,0.0,0.0,0.0,0.0,0.0,0.0,0.0,0.0,1.5275,1.5217,1.5182,1.5378,1.6253,1.7072,1.7895,1.8765,1.9438,1.9884,1.9903,1.9825,1.977,1.9699,1.9686,1.9679,1.9597,2.0148,2.1152,2.2819,0.0,0.0,0.0,0.0,0.0,0.0,0.0,0.0,0.0,0.0,0.0,0.0,0.0,0.0,0.0,0.0,0.0,0.0,0.0,0.0,2.9699,2.9701,2.9701,2.9701,2.9701,2.9701,2.9701,2.9701,2.9701,2.9701,2.9701,2.9664,2.9607,2.9607,2.9531,2.9412,2.9412,2.937,2.9323,2.9302,2.9218,2.9108,0.0,0.0,0.0,0.0,0.0,0.0,0.0,0.0,0.0,0.0,0.0,0.0,0.0,0.0,0.0,0.0,0.0,0.0,1.5676,1.6439,1.7278,1.8148,1.895,1.9652,2.0188,2.0208,2.0197,2.0197,2.0205,2.0214,2.0233,2.0241,2.0249,2.0249,2.0235,2.025,2.0272,1.9747,1.9368,1.9006,1.7965,1.7166,0.0,0.0,0.0,0.0,0.0,0.0,0.0,0.0,1.5384,1.5355,1.5355,1.5326,1.5292,1.5276,1.5268,1.5569,1.6908,1.7509,1.8095,1.9424,1.9937,2.006,1.999,1.9945,1.9908,1.9837,1.9825,1.997,2.038,0.0,2.2634,2.3238,0.0,0.0,0.0,0.0,0.0,0.0,0.0,0.0,0.0,0.0,0.0,0.0,0.0,0.0,0.0,0.0,0.0,0.0,0.0,0.0,0.0,2.9718,2.97,2.97,2.9701,2.9701,2.9701,2.9701,2.9701,2.9701,2.9664,2.9626,2.9588,2.9511,2.9433,2.9392,2.9349,2.9326,2.9302,2.9197,2.9152,2.9089,0.0,0.0,0.0,0.0,0.0,0.0,0.0,0.0,0.0,0.0,0.0,0.0,0.0,0.0,0.0,0.0,0.0,0.0,1.5189,1.5952,1.6669,1.725,1.8321,1.9177,1.9781,2.0039,2.0173,2.0173,2.0153,2.0144,2.0144,2.0153,2.0162,2.0171,2.0197,2.0233,2.0219,1.9357,1.8866,1.8545,1.712,1.6411,0.0,0.0,0.0,0.0,0.0,0.0,0.0,0.0,1.5409,1.5407,1.5407,1.5363,1.5332,1.5326,1.5339,1.5698,1.7387,1.784,1.8232,1.9906,2.0308,2.0227,2.0122,2.0069,2.001,1.9966,2.0142,2.0637,2.1664,2.2768,0.0,0.0,0.0,0.0,0.0,0.0,0.0,0.0,0.0,0.0,0.0,0.0,0.0,0.0,0.0,0.0,0.0,0.0,0.0,0.0,0.0,0.0,2.9825,2.9735,2.9717,2.9699,2.9701,2.9701,2.9701,2.9701,2.9701,2.9683,2.9607,2.9588,2.9531,2.9433,2.9392,2.937,2.9304,2.9262,2.9237,2.913,2.9085,2.9062,0.0,0.0,0.0,0.0,0.0,0.0,0.0,0.0,1.5303,1.5303,1.5303,0.0,0.0,0.0,0.0,0.0,0.0,0.0,1.5189,1.5952,1.6394,1.6392,1.7987,1.889,1.8894,1.9688,2.0107,2.0107,2.003,2.0001,2.0001,2.0059,2.0108,2.0088,2.0164,2.0209,2.0159,1.9335,1.8498,1.7619,1.6808,1.6014,1.5295,0.0,0.0,0.0,0.0,0.0,0.0,0.0,1.5409,1.5409,1.5409,1.5407,1.5403,1.5403,1.5394,1.5774,1.7446,1.7904,1.8294,1.9977,2.04,2.0388,2.0314,2.0204,2.0106,2.0117,2.0716,2.1734,2.3398,2.3644,0.0,0.0,0.0,0.0,0.0,0.0,0.0,0.0,0.0,0.0,0.0,0.0,0.0,0.0,0.0,0.0,0.0,0.0,0.0,0.0,0.0,0.0,2.9912,2.9771,2.9717,2.9717,2.9701,2.9701,2.9701,2.9701,2.9645,2.9607,2.9607,2.9511,2.9412,2.9412,2.937,2.9302,2.9302,2.9218,2.9089,2.9089,2.9062,2.8994,0.0,0.0,0.0,0.0,0.0,0.0,0.0,0.0,1.5303,1.5303,1.5303,0.0,0.0,0.0,0.0,0.0,0.0,0.0,1.5189,1.5383,1.5766,1.6373,1.6881,1.7699,1.8875,1.964,2.003,2.003,2.0011,2.0001,2.0001,2.003,2.004,2.0031,2.005,2.0079,2.004,1.8631,1.7891,1.7581,1.616,1.5468,1.5295,0.0,0.0,0.0,0.0,0.0,0.0,0.0,0.0,0.0,1.5402,1.5401,1.54,1.5398,1.5395,1.5783,1.7495,1.7974,1.8376,2.0042,2.0469,2.0467,2.0458,2.0334,2.0396,2.0962,2.2202,2.331,2.3755,2.4335,0.0,0.0,0.0,0.0,0.0,0.0,0.0,0.0,0.0,0.0,0.0,0.0,0.0,0.0,0.0,0.0,0.0,0.0,0.0,0.0,0.0,0.0,2.9975,2.9841,2.9771,2.9771,2.9719,2.9701,2.9701,2.9645,2.9607,2.9588,2.9511,2.9433,2.9392,2.9349,2.9304,2.9302,2.9197,2.9152,2.9089,2.9062,2.8994,2.8929,0.0,0.0,0.0,0.0,0.0,0.0,0.0,0.0,1.5303,1.5303,1.5303,1.5275,0.0,0.0,0.0,1.5207,1.5195,0.0,1.5189,1.5146,1.5325,1.5856,1.6223,1.7167,1.8829,1.9288,1.9687,2.0009,2.0009,2.0009,2.0009,2.0009,2.0,2.001,2.001,2.003,1.9984,1.8302,1.7631,1.7549,1.5865,1.5231,1.5295,0.0,0.0,0.0,0.0,0.0,0.0,0.0,0.0,0.0,1.5409,1.5409,1.5409,1.5408,1.5408,1.5777,1.7533,1.7997,1.84,2.0116,2.0511,2.0494,2.0503,2.0672,2.1081,2.1899,2.3099,2.4139,2.4438,2.4937,0.0,0.0,0.0,0.0,0.0,0.0,0.0,0.0,0.0,0.0,0.0,0.0,0.0,0.0,0.0,0.0,0.0,0.0,0.0,0.0,0.0,0.0,3.0007,2.9876,2.9808,2.9808,2.9738,2.9701,2.9645,2.9607,2.9588,2.955,2.9411,2.937,2.9349,2.9283,2.924,2.9218,2.913,2.9067,2.9021,2.8975,2.8905,2.8858,0.0,0.0,1.5189,1.5189,0.0,0.0,0.0,0.0,1.5303,1.5303,1.5303,1.5299,0.0,0.0,0.0,1.5204,1.5207,1.5189,1.5189,1.5133,1.5114,1.5095,1.5936,1.7074,1.8545,1.8717,1.9162,1.988,1.9955,2.0012,1.9982,2.0012,2.0004,1.9988,1.9998,2.0019,1.9993,1.8389,1.7719,1.7554,1.5994,1.5333,1.5299,1.5303,0.0,0.0,0.0,0.0,0.0,0.0,0.0,0.0,1.539,1.541,1.541,1.541,1.539,1.5781,1.7539,1.8007,1.8414,2.0153,2.0558,2.0506,2.0509,2.1184,2.2034,2.2759,2.3628,2.4482,2.5258,2.5404,0.0,0.0,0.0,0.0,0.0,0.0,0.0,0.0,0.0,0.0,0.0,0.0,0.0,0.0,0.0,0.0,0.0,0.0,0.0,0.0,0.0,0.0,3.0007,2.9876,2.9808,0.0,2.9738,2.9664,2.9607,2.9588,2.955,2.9472,2.9347,2.9302,2.9302,2.9218,2.9156,2.9089,2.9108,2.8998,2.8905,2.8905,2.8858,2.8785,0.0,0.0,1.5189,1.5189,0.0,0.0,0.0,0.0,1.5303,1.5303,1.5303,1.5299,1.5299,1.525,0.0,1.5204,1.5207,1.5189,1.5189,1.5197,1.5165,1.5095,1.5936,1.654,1.6834,1.8127,1.8859,1.8979,1.9671,1.9971,1.993,1.9982,1.9982,1.9922,1.9993,2.0017,1.9954,1.8963,1.822,1.7631,1.686,1.6043,1.5315,1.5362,1.5382,0.0,0.0,0.0,0.0,0.0,0.0,0.0,1.5407,1.5406,1.5406,1.5405,1.5406,1.5778,1.7536,1.8007,1.8418,2.0156,2.0585,2.0578,2.057,2.173,2.2838,2.295,2.4197,2.5311,2.546,0.0,0.0,0.0,0.0,0.0,0.0,0.0,0.0,0.0,0.0,0.0,0.0,0.0,0.0,0.0,0.0,0.0,0.0,0.0,0.0,0.0,0.0,3.0128,3.0087,2.994,2.9857,0.0,2.9736,2.9664,2.9588,2.955,2.9451,2.9347,2.9323,2.9262,2.9218,2.9152,2.9112,2.9108,2.8975,2.8929,2.8905,2.8834,2.8785,2.8718,0.0,0.0,0.0,0.0,0.0,0.0,0.0,0.0,1.5303,1.5303,1.5303,1.5303,1.5294,1.5279,0.0,0.0,1.5199,1.5201,1.5195,1.5203,1.5165,1.5095,1.5546,1.593,1.629,1.7157,1.7956,1.8696,1.916,1.9566,1.9941,1.9982,1.9982,1.9941,1.9974,1.9998,1.9954,1.9182,1.8631,1.8246,1.729,1.6256,1.5311,1.5365,1.5409,1.5409,1.5401,0.0,0.0,0.0,0.0,0.0,0.0,0.0,1.5398,1.5397,1.5398,1.579,1.7528,1.8001,1.8415,2.0154,2.0605,2.0605,2.0604,2.1891,2.3096,2.3057,2.444,2.5624,0.0,0.0,0.0,0.0,0.0,0.0,0.0,0.0,0.0,0.0,0.0,0.0,0.0,0.0,0.0,0.0,0.0,0.0,0.0,0.0,0.0,0.0,3.0226,3.0176,3.0102,2.9956,2.9874,2.9808,2.9735,2.9645,2.955,2.9472,2.939,2.9302,2.928,2.9218,2.9134,2.9044,2.8998,2.8998,2.8881,2.8834,2.8791,2.8761,2.8687,2.8594,0.0,0.0,0.0,0.0,0.0,0.0,0.0,0.0,0.0,1.5303,1.5303,1.5303,1.5303,1.5309,1.5274,0.0,0.0,0.0,1.5201,1.5203,1.5178,1.5101,1.5106,1.541,1.6078,1.6233,1.6939,1.8289,1.8563,1.9065,1.9785,1.9936,1.9982,1.9982,1.9977,2.0019,1.9973,1.9372,1.9076,1.8907,1.7895,1.66,1.5319,1.5362,1.5392,1.5391,1.5403,1.5409,1.5391,1.5408,0.0,0.0,0.0,0.0,1.5409,1.5407,1.5407,1.576,1.7339,1.801,1.8602,2.0209,2.0602,2.0604,2.0604,2.1796,2.293,2.3066,2.4484,0.0,0.0,0.0,0.0,0.0,0.0,0.0,0.0,0.0,0.0,0.0,0.0,0.0,0.0,0.0,0.0,0.0,0.0,0.0,0.0,0.0,3.039,3.0316,3.0234,3.019,3.0102,2.9988,2.9891,2.9808,2.9699,2.9608,2.9472,2.9412,2.9349,2.928,2.9218,2.9134,2.9044,2.8952,2.8905,2.8881,2.881,2.8761,2.8694,2.8669,2.8594,2.8492,0.0,0.0,0.0,0.0,0.0,0.0,0.0,0.0,0.0,0.0,1.5303,1.5303,1.5303,1.5309,1.5294,1.5294,1.524,1.5204,1.5204,0.0,0.0,1.5089,1.5107,1.5157,1.5262,1.5945,1.6404,1.6624,1.8023,1.8754,1.8887,1.9644,1.9971,1.993,1.9966,2.0029,2.0088,2.0031,1.963,1.9051,1.9619,1.8028,1.5319,1.5368,1.5394,1.5391,1.5404,1.541,1.539,1.5408,1.5403,0.0,0.0,0.0,1.5403,1.5397,1.5399,1.5619,1.6612,1.7981,1.9355,2.0359,2.0596,2.0597,2.0601,2.1364,2.2263,0.0,0.0,0.0,0.0,0.0,0.0,0.0,0.0,0.0,0.0,0.0,0.0,0.0,0.0,0.0,0.0,0.0,0.0,0.0,0.0,0.0,0.0,3.052,3.0458,3.0379,3.0318,3.0226,3.0094,3.0083,2.9975,2.9808,2.9608,2.9492,2.9412,2.9328,2.9283,2.9218,2.9134,2.9044,2.8929,2.8905,2.8881,2.881,2.8737,2.8694,2.8687,2.8569,2.8518,2.8492,0.0,0.0,0.0,0.0,0.0,0.0,0.0,0.0,0.0,0.0,0.0,1.5303,1.5303,1.5299,1.5309,1.5299,1.5269,1.524,1.5204,1.5195,1.519,1.5165,1.5127,1.5107,1.5099,1.5441,1.5846,1.6298,1.7015,1.7842,1.8754,1.9143,1.9541,1.9955,2.0038,2.0078,2.0098,2.0171,2.0027,1.9766,2.016,1.9449,1.8166,1.8225,1.7667,1.6862,1.6851,1.6543,1.6131,1.613,1.5793,1.5394,1.5391,0.0,0.0,0.0,1.5394,1.5708,1.7058,1.8347,1.9502,2.0348,2.0545,2.0547,2.0531,2.1216,2.1938,2.2291,0.0,0.0,0.0,0.0,0.0,0.0,0.0,0.0,0.0,0.0,0.0,0.0,0.0,0.0,0.0,0.0,0.0,0.0,0.0,0.0,3.066,3.0588,3.05,3.0394,3.0336,0.0,3.0109,3.0098,2.9975,2.9735,2.9589,2.9453,2.9353,2.9265,2.924,2.9178,2.9108,2.8975,2.8887,2.8815,2.8767,2.8737,2.8619,2.8594,2.8569,2.8484,2.8432,2.8362,0.0,0.0,0.0,0.0,0.0,0.0,0.0,0.0,0.0,0.0,0.0,1.5303,1.5303,0.0,0.0,0.0,1.5299,1.5269,1.519,1.5207,1.5209,1.5197,1.5152,1.5114,1.5107,1.5094,1.5386,1.6006,1.6219,1.7068,1.8497,1.8726,1.925,2.0039,2.0088,2.0108,2.0125,2.0195,2.025,2.0334,2.0326,2.0357,2.0402,2.0477,1.9721,1.8623,1.8336,1.7715,1.7029,1.7029,1.6458,1.5726,1.5722,1.5582,0.0,0.0,0.0,1.5782,1.7521,1.8479,1.9219,2.0241,2.0494,2.0494,2.0497,0.0,2.1535,0.0,0.0,0.0,0.0,0.0,0.0,0.0,0.0,0.0,0.0,0.0,0.0,0.0,0.0,0.0,0.0,0.0,0.0,0.0,0.0,0.0,3.0688,3.0643,3.0559,3.0439,3.0352,3.0241,3.0123,3.0053,2.9907,2.97,2.957,2.9433,2.9291,2.9243,2.9178,2.9134,2.904,2.8929,2.8881,2.8743,2.8669,2.8644,2.8543,2.8492,2.8484,2.8406,2.8353,2.83,0.0,0.0,0.0,0.0,0.0,0.0,0.0,0.0,0.0,0.0,0.0,1.5303,1.5303,1.5303,1.5303,1.5303,1.5309,1.5274,1.5201,1.5201,1.5204,1.5195,1.5209,0.0,1.5095,1.5095,1.5108,1.5165,1.6,1.6827,1.7677,1.851,1.936,2.0183,2.0117,2.0134,2.0203,2.0265,2.033,2.0379,2.0402,2.04,2.0418,2.048,2.0484,2.0321,1.9235,1.8457,1.7927,0.0,0.0,0.0,0.0,1.6068,1.5401,0.0,0.0,0.0,1.7533,1.8039,1.8451,2.0096,2.0506,2.0509,2.0497,0.0,0.0,0.0,0.0,0.0,0.0,0.0,0.0,0.0,0.0,0.0,0.0,0.0,0.0,0.0,0.0,0.0,0.0,0.0,0.0,0.0,0.0,0.0,3.0697,3.0637,3.0568,3.0491,3.0364,3.0273,3.0204,2.9924,2.9773,2.9701,2.9569,2.9431,2.9302,2.924,2.9112,2.9017,2.8929,2.8881,2.8785,2.8737,2.8619,2.8492,2.8492,2.8458,2.8398,2.8327,2.83,2.83,0.0,0.0,0.0,0.0,0.0,0.0,0.0,0.0,0.0,0.0,0.0,0.0,0.0,1.6973,1.6731,1.6174,1.5623,1.5294,1.5269,1.5226,1.5196,1.5204,1.5204,1.5199,1.5163,1.5163,1.5157,1.5158,1.5472,1.6048,1.6854,1.7718,1.859,1.945,1.9937,2.0195,2.0265,2.0292,2.034,2.0404,2.0404,2.0419,2.0476,2.048,2.0543,2.0559,2.0133,0.0,0.0,0.0,0.0,0.0,0.0,1.7322,1.6967,1.6408,1.5838,1.5779,1.7533,1.8,1.839,2.0071,2.0503,2.0503,2.0506,2.0506,2.0584,0.0,0.0,0.0,0.0,0.0,0.0,0.0,0.0,0.0,0.0,0.0,0.0,0.0,0.0,0.0,0.0,0.0,0.0,0.0,0.0,0.0,3.0711,3.0634,3.0567,3.0501,3.0406,3.0292,3.0147,2.9962,2.9809,2.9701,2.9569,2.9411,2.924,2.92,2.9089,2.8929,2.8858,2.881,2.8737,2.8619,2.8543,2.8492,2.8406,2.8353,2.8327,2.8264,2.8209,2.8182,0.0,0.0,0.0,0.0,0.0,1.8741,1.8731,1.8484,1.831,1.831,0.0,0.0,0.0,0.0,1.7675,1.7098,1.6518,1.6058,1.5763,1.5681,1.5541,1.5241,1.5222,1.5236,1.5226,1.5226,1.522,1.5224,1.5224,1.5648,1.6451,1.7324,1.8198,1.9072,1.9906,2.0292,2.033,2.0321,2.0359,2.0432,2.0425,2.0461,2.049,2.0525,2.0564,2.0599,0.0,0.0,0.0,0.0,0.0,0.0,0.0,1.8241,1.7883,1.7307,1.6736,1.6578,1.8003,1.8393,1.8743,2.0149,2.05,2.05,2.05,0.0,0.0,0.0,0.0,0.0,0.0,0.0,0.0,0.0,0.0,0.0,0.0,0.0,0.0,0.0,0.0,0.0,0.0,0.0,0.0,0.0,0.0,0.0,3.0685,3.0649,3.0576,3.0479,3.039,3.0253,3.0102,2.9978,2.9825,2.9701,2.9551,2.9411,2.924,2.92,2.9089,2.8858,2.881,2.8761,2.8694,2.8543,2.8484,2.8458,2.8353,2.8273,2.8246,2.8182,2.8126,2.8099,0.0,0.0,2.0394,2.0394,2.0394,2.0394,2.0394,1.9682,1.9139,1.9139,0.0,0.0,0.0,0.0,0.0,1.7941,1.7902,1.7534,1.6695,1.6637,1.6245,1.5379,1.5341,1.5336,1.5308,1.5308,1.5308,1.5308,1.5308,1.5705,1.6526,1.7388,1.8277,1.9148,2.0017,2.0404,2.0405,2.0404,2.0432,2.0507,2.0506,2.0492,2.05,2.0572,2.0607,0.0,2.0601,2.0605,0.0,2.0602,0.0,0.0,0.0,1.8746,1.8033,1.8033,1.8028,1.8175,0.0,0.0,0.0,2.0286,2.05,2.05,2.05,0.0,0.0,0.0,0.0,0.0,0.0,0.0,0.0,0.0,0.0,0.0,0.0,0.0,0.0,0.0,0.0,0.0,0.0,0.0,0.0,0.0,0.0,2.9829,3.0625,3.0671,3.0606,3.041,3.0273,3.0166,3.0102,2.9978,2.9823,2.9699,2.9551,2.9431,2.9302,2.924,2.9044,2.8785,2.8785,2.8761,2.8669,2.8543,2.8458,2.8434,2.8362,2.83,2.8253,2.8198,2.817,2.817,0.0,2.0394,2.0399,2.041,2.039,2.0415,2.0459,2.0264,2.0109,0.0,0.0,0.0,1.9784,1.9212,1.8819,1.8775,1.8232,1.7805,1.7553,1.7534,1.7141,1.6284,1.6245,1.595,1.5306,1.5306,1.5306,1.5306,1.5306,1.5733,1.6585,1.7466,1.8348,1.9202,2.0075,2.0468,2.0464,2.0473,2.0483,2.0506,2.0496,2.0494,2.0506,2.0579,0.0,0.0,0.0,2.0604,2.0605,0.0,2.0445,2.0248,0.0,1.9649,1.8943,1.8939,1.8483,1.8186,1.9044,0.0,0.0,0.0,0.0,0.0,2.05,2.05,0.0,0.0,0.0,0.0,0.0,0.0,0.0,0.0,0.0,0.0,0.0,0.0,0.0,0.0,0.0,0.0,0.0,0.0,0.0,0.0,2.8691,2.9596,2.9827,3.0285,3.0511,3.041,3.0318,3.0213,3.0102,2.9975,2.9822,2.9699,2.9551,2.9431,2.9302,2.924,2.9044,2.8785,2.8785,2.8712,2.8543,2.8458,2.8721,2.9187,2.9122,2.9376,2.9769,2.9769,2.9697,2.9536,2.0404,2.0429,2.0434,2.0439,2.0444,2.0444,2.0493,2.0497,2.0497,0.0,0.0,0.0,2.0507,2.0056,1.974,1.9697,1.9255,1.8837,1.8468,1.8434,1.8045,1.7171,1.7132,1.6899,1.6394,1.606,1.5885,1.5885,1.5885,1.6142,1.6666,1.7874,1.8714,1.9239,2.0111,2.0508,2.0492,2.0508,2.0508,2.0492,2.0494,2.0528,2.0594,2.1115,2.1006,0.0,0.0,0.0,2.0605,2.0604,2.0602,0.0,0.0,0.0,1.9844,0.0,1.9465,1.9146,1.9653,1.977,1.9865,2.0372,0.0,0.0,2.0503,2.05,2.05,0.0,0.0,0.0,0.0,0.0,0.0,0.0,0.0,0.0,0.0,0.0,0.0,0.0,0.0,0.0,0.0,0.0,0.0,0.0,2.7872,2.8714,2.9428,3.0109,3.0472,3.041,3.0318,3.0245,3.0102,2.9956,2.9839,2.9735,2.9589,2.9433,2.9347,2.9243,2.9067,2.8834,2.881,2.8687,2.8492,2.8432,2.882,2.9482,2.9433,2.981,3.0396,3.0379,3.0305,3.0127,0.0,2.0468,2.0493,2.0493,2.057,2.0633,2.0647,2.0724,2.0787,0.0,2.0791,2.0798,2.0784,2.0784,2.0784,2.0784,2.0696,2.0316,1.9543,1.9395,1.8951,1.8079,1.804,1.8004,1.7907,1.7206,1.6836,1.6836,1.6836,1.6875,1.7015,1.851,1.9266,1.9383,2.0152,2.0494,2.0503,2.0506,2.0506,2.0525,2.0606,2.0675,0.0,0.0,2.175,2.1169,2.2674,2.2207,2.0859,2.0663,2.0602,0.0,0.0,0.0,0.0,0.0,2.0562,2.0519,2.0519,2.0519,2.0497,2.0497,2.0492,0.0,2.0506,2.0503,2.05,0.0,0.0,0.0,0.0,0.0,0.0,0.0,0.0,0.0,0.0,0.0,0.0,0.0,0.0,0.0,0.0,0.0,2.6029,2.6798,2.6874,2.7625,2.9303,3.0014,3.0375,3.041,3.0318,3.0245,3.0102,2.9972,2.9874,2.9808,2.9589,2.9472,2.9392,2.9265,2.9089,2.8905,2.8834,2.8687,2.851,2.8432,2.8892,2.9625,2.9558,2.9988,3.0645,3.0583,3.049,3.0413,2.0476,2.05,2.05,2.05,2.1083,2.1554,2.1554,2.2138,2.2589,2.2589,2.2589,2.2585,2.2585,2.2585,2.2585,2.2585,2.1943,2.1476,2.1305,2.0644,1.9865,1.899,1.8951,1.862,1.7926,1.7751,1.7677,1.7666,1.7666,1.8017,1.8724,1.91,1.9626,2.0247,2.0411,2.0494,2.0494,2.056,2.0584,2.0646,2.1288,2.1544,2.1629,2.212,2.273,2.3377,2.371,2.3301,2.2402,2.1053,2.0601,2.0598,0.0,0.0,0.0,2.0593,0.0,0.0,0.0,0.0,0.0,0.0,0.0,0.0,2.0497,2.0494,2.0494,0.0,0.0,0.0,0.0,0.0,0.0,0.0,0.0,0.0,0.0,0.0,0.0,0.0,0.0,0.0,0.0,0.0,2.5775,2.5937,2.6541,2.7632,2.9303,2.9483,2.9805,3.039,3.0318,3.0245,3.0102,3.0022,2.9907,2.9808,2.9645,2.9511,2.9392,2.9265,2.9112,2.8952,2.8834,2.8712,2.8562,2.8432,2.9233,3.0438,3.0344,3.1062,3.2178,3.2146,3.2082,3.1895,2.1052,2.115,2.1286,2.1714,2.2161,2.2457,2.2442,2.2812,2.3108,2.3093,2.3108,2.3104,2.31,2.3095,2.3095,2.3095,2.2695,2.2442,2.2442,2.1632,2.0951,2.0522,2.0078,1.9633,1.9208,1.8802,1.8593,1.8598,1.8598,1.8812,1.9263,1.9695,2.0104,2.0492,2.0523,2.0547,2.0547,2.0593,2.0851,2.1282,2.1689,0.0,2.1966,2.2964,2.3611,2.4062,2.4648,2.4121,2.3027,2.2146,2.1285,0.0,0.0,2.0944,2.0593,0.0,2.0591,2.0609,0.0,0.0,0.0,2.0547,0.0,0.0,0.0,2.0521,2.0497,2.0497,0.0,0.0,0.0,0.0,0.0,0.0,0.0,0.0,0.0,0.0,0.0,0.0,0.0,0.0,0.0,0.0,2.5687,2.5658,2.6437,2.7245,2.8066,2.8836,2.9409,2.9725,3.0107,3.0245,3.0102,3.0038,2.9924,2.9808,2.9701,2.9569,2.9453,2.9307,2.9175,2.904,2.8858,2.8737,2.8637,2.8458,2.9332,3.0729,3.0558,3.1351,3.2606,3.2606,3.2523,3.2335,2.1917,2.2053,2.2267,2.2987,2.324,2.3342,2.335,2.3486,2.3665,2.3809,2.3977,2.4086,2.4077,2.3921,2.3824,2.3824,2.354,2.335,2.335,2.2523,2.2059,2.2059,2.1227,2.0742,2.0742,1.9951,1.9543,1.9546,1.9546,1.9546,1.9567,2.0211,2.0523,2.0523,2.0572,2.0596,2.0615,2.0776,2.1266,2.193,0.0,2.2379,2.2556,2.4061,2.4511,2.4453,2.5371,2.4727,2.3398,2.3162,2.2204,2.1148,2.1533,2.1278,0.0,0.0,0.0,0.0,0.0,0.0,0.0,0.0,0.0,2.0609,0.0,0.0,0.0,2.0523,0.0,0.0,0.0,0.0,0.0,0.0,0.0,0.0,0.0,0.0,0.0,0.0,0.0,0.0,0.0,0.0,2.5668,2.5609,2.6257,2.6689,2.6791,2.818,2.9003,2.911,2.9876,3.0245,3.0102,3.0038,2.9959,2.9808,2.9719,2.9626,2.9492,2.9349,2.9222,2.9112,2.8905,2.8785,2.8694,2.851,2.9359,3.0769,3.0588,3.1382,3.2639,3.2606,3.2523,3.2422,2.2932,2.2948,2.2987,2.3085,2.3747,2.4253,2.4257,2.492,2.566,2.6361,2.7136,2.7624,2.7624,2.6922,2.6474,2.6474,2.5111,2.4257,2.4257,2.3446,2.2945,2.2945,2.2115,2.165,2.165,2.0811,2.0384,2.0449,2.0449,2.0451,2.0456,2.0557,2.0597,2.0597,2.0599,2.0601,2.0659,2.1422,2.1814,0.0,2.3514,2.412,0.0,2.5194,2.5527,2.5527,2.5644,2.5078,2.4141,0.0,2.2968,2.2577,0.0,2.1205,2.1594,2.0829,0.0,0.0,0.0,0.0,0.0,0.0,2.0598,0.0,0.0,0.0,2.058,2.058,0.0,0.0,0.0,0.0,0.0,0.0,0.0,0.0,0.0,0.0,0.0,0.0,0.0,0.0,0.0,0.0,0.0,2.5609,2.5687,2.6068,2.6749,2.7649,2.8425,2.9087,2.9883,3.0245,3.0102,3.0087,2.9991,2.9808,2.9717,2.9626,2.9492,2.9353,2.9267,2.9178,2.904,2.8923,2.8785,2.8637,2.9467,3.0769,3.0588,3.1431,3.2773,3.2639,3.2539,3.2473,2.3943,2.3845,2.4001,2.4528,2.4918,2.5327,2.5823,2.6619,2.7277,2.7608,2.7978,2.8193,2.8193,2.7881,2.7647,2.7647,2.7004,2.64,0.0,0.0,2.4391,2.3887,2.3018,2.232,2.1813,2.1483,2.1076,2.0591,2.0593,2.0596,2.0597,2.0599,2.0601,2.0601,2.0603,2.0604,2.0662,2.1523,2.2187,0.0,0.0,0.0,0.0,2.5566,2.5703,2.5703,2.5703,2.5469,2.5098,0.0,2.3944,0.0,0.0,0.0,0.0,0.0,0.0,0.0,0.0,0.0,0.0,0.0,0.0,0.0,2.0601,0.0,2.0601,0.0,0.0,0.0,0.0,0.0,0.0,0.0,0.0,0.0,0.0,0.0,0.0,0.0,0.0,0.0,0.0,0.0,0.0,0.0,0.0,2.568,2.603,2.682,2.7576,2.8326,2.9135,2.9729,3.0102,3.0102,2.9991,2.9808,2.9771,2.9682,2.955,2.9433,2.9312,2.9249,2.9067,2.897,2.89,2.8687,2.923,3.0233,3.0503,3.1528,3.2773,3.274,3.2657,3.2539,2.5186,2.4929,2.5024,2.5905,2.6061,2.635,2.7218,2.803,2.8552,2.8552,2.8766,2.8903,2.8903,2.8708,2.8552,2.8552,2.8357,2.7971,0.0,0.0,2.6016,2.5144,2.4274,2.3398,2.2522,2.2328,2.1803,2.0965,2.0968,2.0834,2.0601,2.0601,2.0602,2.0602,2.0604,2.0722,2.1015,2.1875,2.2734,2.3594,2.4434,2.5137,2.5703,2.5703,2.5703,2.5703,2.5703,2.5703,2.5703,2.5703,2.4863,0.0,2.3982,0.0,0.0,0.0,0.0,0.0,2.1461,0.0,0.0,0.0,0.0,0.0,0.0,0.0,0.0,0.0,0.0,0.0,0.0,0.0,0.0,2.0605,0.0,0.0,0.0,0.0,0.0,0.0,0.0,0.0,0.0,0.0,0.0,0.0,2.5531,0.0,2.5464,2.6244,2.7006,2.7777,2.8586,2.9352,3.0102,3.0102,3.001,2.9825,2.9808,2.9737,2.9626,2.9491,2.9373,2.9293,2.9134,2.904,2.8994,2.8737,2.9254,3.0179,3.0582,3.1637,3.2838,3.2805,3.274,3.2639,2.6761,2.6244,2.5924,2.6819,2.6955,2.7248,2.8129,2.8948,2.9452,2.9452,3.0193,0.0,0.0,0.0,0.0,0.0,0.0,2.8285,2.8265,0.0,2.7825,0.0,0.0,2.5219,2.4339,2.3482,2.2664,2.1866,2.1866,2.1439,2.0601,2.0604,2.0604,2.0605,2.0605,2.1074,2.1914,2.2715,2.3555,2.4434,2.5312,2.5684,2.5703,0.0,2.5703,2.5703,2.5703,0.0,0.0,2.5703,2.5664,0.0,0.0,0.0,0.0,0.0,0.0,0.0,0.0,0.0,0.0,2.1854,0.0,0.0,0.0,0.0,2.0604,0.0,0.0,0.0,0.0,0.0,2.0602,2.0602,2.0601,0.0,0.0,0.0,0.0,0.0,0.0,0.0,0.0,0.0,0.0,2.5543,2.5536,0.0,2.5401,2.616,2.6965,2.7762,2.8568,2.9344,3.0102,3.0102,3.0041,2.9895,2.9825,2.9755,2.9683,2.9569,2.9414,2.9293,2.9225,2.9112,2.8994,2.8834,2.9657,3.0957,3.092,3.175,3.2997,3.2838,3.2823,3.2773,2.7795,2.7618,2.7518,2.7808,2.7867,2.814,2.8973,3.0294,0.0,0.0,3.1987,0.0,0.0,3.2264,3.2088,0.0,0.0,3.0567,2.9988,2.9406,0.0,0.0,0.0,2.6156,0.0,2.4419,2.3542,2.2687,2.269,2.2262,2.1463,2.1464,2.1465,2.1465,2.1465,2.1914,2.2754,0.0,0.0,0.0,0.0,2.5703,2.5703,0.0,0.0,2.5703,2.5703,2.5703,0.0,2.5703,2.5703,2.5605,2.5019,2.5019,2.5137,2.4453,2.4531,0.0,0.0,0.0,2.2695,2.2695,0.0,0.0,0.0,0.0,0.0,0.0,0.0,0.0,0.0,2.0601,2.0599,2.0597,2.0555,2.0533,0.0,0.0,0.0,0.0,0.0,0.0,0.0,0.0,0.0,2.5473,2.5503,2.5476,0.0,2.5611,2.6109,2.6918,2.7726,2.849,2.9231,2.9802,3.0041,2.9895,2.9825,2.9754,2.97,2.9608,2.9531,2.9433,2.9312,2.9225,2.9112,2.8994,2.9497,3.0366,3.0803,3.156,3.2433,3.28,3.2902,3.2852,2.8695,2.8754,2.8752,2.8752,2.9259,2.9823,0.0,0.0,0.0,0.0,3.3051,0.0,3.3402,0.0,3.3402,0.0,3.2895,3.2196,3.1323,3.0738,0.0,2.881,2.8225,0.0,0.0,0.0,0.0,2.3569,2.355,2.3142,2.2324,2.2344,2.2363,2.2363,2.2363,2.2812,2.3594,2.416,2.457,0.0,0.0,2.5703,0.0,0.0,2.5703,2.5703,0.0,2.5703,2.5703,2.5703,2.5703,2.5703,2.5703,2.5703,2.5586,2.5039,2.5253,2.5449,2.4334,2.3807,0.0,2.3552,2.3336,0.0,2.2435,0.0,0.0,0.0,0.0,0.0,0.0,0.0,2.0552,2.057,2.0525,2.0497,0.0,2.0497,0.0,0.0,0.0,0.0,0.0,0.0,2.4303,2.542,2.5472,2.5451,0.0,0.0,2.5646,2.6473,2.7249,2.8025,2.8779,2.9635,3.0007,2.9893,2.9842,2.9771,2.9717,2.9645,2.955,2.9492,2.9373,2.9249,2.9178,2.9062,2.9545,3.0487,3.0884,3.1663,3.2559,3.2862,3.2948,3.2916,2.956,2.9752,2.9789,2.9789,3.1114,0.0,0.0,0.0,3.3456,0.0,3.3495,3.3534,3.3534,3.3534,3.3534,3.3534,3.3495,3.3105,3.2285,3.2187,0.0,0.0,2.9669,2.8871,2.7173,0.0,0.0,0.0,2.4488,2.4022,2.3164,2.3223,2.3262,2.3262,2.3262,2.3711,2.4453,2.4453,2.4941,2.5703,2.5703,2.5723,2.5762,2.5762,0.0,2.582,2.5723,2.5703,2.5703,2.5703,2.5703,2.5703,2.5703,2.5702,2.5702,2.5701,2.57,2.57,2.57,2.5094,2.4469,2.4469,0.0,0.0,0.0,0.0,2.3142,0.0,0.0,0.0,0.0,0.0,2.0614,2.0575,2.0528,2.05,2.0503,2.0492,0.0,0.0,0.0,0.0,0.0,2.2997,2.3682,2.5376,2.5432,2.536,0.0,0.0,0.0,2.6412,2.7192,2.7979,2.8722,2.9585,2.9956,2.9888,2.9823,2.9808,2.9808,2.9645,2.9588,2.9492,2.9373,2.927,2.9178,2.9099,2.9917,3.1217,3.1174,3.2035,3.328,3.3091,3.2948,3.2916,3.1401,3.1983,3.2428,0.0,3.2775,3.3066,0.0,0.0,0.0,0.0,3.494,3.5327,3.5327,3.5327,3.5327,3.5327,3.4744,0.0,0.0,0.0,0.0,3.1504,3.0841,3.0001,2.8969,2.7661,0.0,2.6324,0.0,2.492,2.4062,2.4082,2.4082,2.4082,2.4082,2.457,2.5371,2.5371,2.5508,2.5703,2.5703,2.6094,0.0,0.0,2.707,2.746,2.6172,2.5703,2.5703,2.5703,2.5702,2.5702,2.5701,2.5701,2.5701,2.57,2.57,2.5699,2.5697,2.5538,2.5379,2.5375,2.5195,2.4859,0.0,0.0,0.0,0.0,0.0,0.0,0.0,0.0,0.0,2.1565,2.0915,2.0496,2.05,0.0,0.0,2.0425,0.0,0.0,0.0,2.292,2.3608,2.5294,2.5369,2.5322,0.0,0.0,0.0,2.5528,2.6874,2.7679,2.7837,2.9266,2.9956,2.9888,2.9823,2.9808,2.9808,2.9719,2.9626,2.9492,2.9472,2.9351,2.9255,2.9798,3.0527,3.1331,3.1846,3.2581,3.3262,3.3135,3.3055,3.3055,3.2673,3.3374,0.0,3.3976,0.0,0.0,3.4081,0.0,0.0,3.5798,3.6267,0.0,3.7106,3.6794,3.6579,3.6579,3.5779,0.0,3.4725,0.0,0.0,3.2714,3.1836,3.0977,3.0138,2.881,0.0,2.7008,0.0,2.5819,2.4961,2.4961,2.4961,2.4961,2.4961,2.5234,2.5703,2.5703,2.5918,2.6269,2.6269,0.0,0.0,2.7578,2.787,2.8162,2.7186,2.6834,2.6834,2.6834,2.6579,2.6265,2.6264,2.6011,2.5697,2.5694,2.5693,2.5693,2.5707,2.5703,2.5701,2.5696,2.5693,2.557,2.5074,2.4973,2.4813,0.0,0.0,0.0,0.0,0.0,0.0,2.2406,2.191,2.1585,0.0,0.0,0.0,0.0,2.1495,0.0,0.0,2.3114,2.357,2.5224,2.5313,0.0,0.0,0.0,0.0,2.5168,2.6721,2.7542,2.75,2.9137,2.994,2.9888,2.9823,2.9808,2.9808,2.9738,2.9626,2.9492,2.9492,2.9597,2.9795,3.0231,3.0962,3.1931,3.2621,3.3081,3.3364,3.3256,3.3196,3.3086,3.3729,3.4431,0.0,0.0,0.0,0.0,0.0,3.5857,0.0,3.7379,0.0,3.775,3.8514,3.7926,3.7477,3.7477,0.0,3.5857,3.5096,3.492,3.4471,3.3612,3.2831,3.1973,3.0997,3.0177,2.8951,0.0,0.0,2.6716,2.5879,2.5879,2.5801,2.5703,2.5703,2.5762,2.5879,2.5996,2.6484,2.7168,2.7168,2.7695,2.8475,2.8475,2.8532,2.8647,2.8647,2.8491,2.8295,2.8295,2.7807,2.7161,2.7178,2.6649,2.6021,2.5954,2.5913,2.593,2.6002,2.6038,2.6016,2.5938,2.5801,2.5717,2.5835,2.5773,2.5671,2.5615,2.4997,0.0,0.0,0.0,0.0,2.3162,0.0,0.0,0.0,0.0,0.0,0.0,0.0,0.0,0.0,0.0,2.3683,2.5168,2.5293,0.0,0.0,0.0,0.0,0.0,2.6711,0.0,2.7656,0.0,2.9888,2.9907,2.9823,2.9808,2.9771,2.9719,2.9626,2.9511,2.9604,2.9969,3.0506,3.066,3.152,3.2782,3.3332,3.352,3.3491,3.3422,3.3304,3.3147,3.539,3.6249,0.0,0.0,0.0,3.8274,3.7956,3.8049,3.8199,3.8355,3.8375,3.8436,3.8573,3.8456,3.8375,3.8375,3.7575,0.0,0.0,0.0,0.0,3.451,3.4334,3.3495,3.1914,3.1036,3.0121,0.0,0.0,2.763,2.6776,2.6776,2.6386,2.5703,2.5703,2.6094,2.6816,2.7538,0.0,2.8065,2.8064,2.859,2.9372,2.9372,2.9818,3.044,3.044,2.9521,2.8291,2.8291,2.8192,2.8071,2.8062,2.7962,2.7747,2.7251,2.7092,2.7209,2.7638,2.7764,2.7651,2.7199,2.6349,2.5805,2.6525,2.6136,2.5615,2.561,2.5473,2.5374,2.5374,0.0,0.0,0.0,0.0,0.0,0.0,0.0,0.0,0.0,0.0,0.0,0.0,0.0,2.4265,2.5156,0.0,0.0,0.0,0.0,0.0,0.0,0.0,0.0,0.0,0.0,0.0,2.9893,2.9825,2.9771,2.9717,2.9719,2.9626,2.953,3.0202,3.049,3.0598,3.1861,3.282,3.3524,3.3616,3.3633,3.3577,3.3509,3.3491,3.3491,3.7266,0.0,0.0,0.0,0.0,0.0,0.0,3.9637,0.0,3.9273,3.9214,3.939,3.9839,3.9488,3.9214,3.9214,3.8453,3.777,3.7321,3.6911,3.6286,3.5408,3.494,0.0,3.3476,3.2148,3.1077,3.0261,0.0,2.8527,2.7672,2.7672,2.7459,2.705,2.705,2.7284,0.0,0.0,0.0,2.8962,2.8961,2.9506,3.0266,3.0266,3.0517,3.0845,3.0843,3.0313,2.9591,2.9591,2.9296,2.892,2.8912,2.8616,2.8187,2.7904,2.8037,2.8342,2.8591,2.8442,2.8131,2.7878,2.7381,2.6976,2.7087,2.679,2.6435,2.626,2.6217,2.6081,2.5635,2.5175,0.0,0.0,0.0,0.0,0.0,0.0,0.0,0.0,0.0,0.0,0.0,0.0,0.0,0.0,0.0,0.0,0.0,0.0,0.0,0.0,0.0,0.0,0.0,0.0,0.0,2.9842,2.9771,2.9735,2.9699,2.9701,2.9851,3.0146,3.0538,3.1126,3.1885,3.2976,3.3545,3.3753,3.3726,3.3671,3.3643,3.3577,3.3577,3.3577,0.0,3.875,0.0,0.0,3.9609,0.0,4.0155,4.0697,4.0845,4.0174,4.0073,4.0346,4.103,4.0483,4.0073,4.0073,3.9331,3.8551,3.7887,3.7497,3.6989,3.6306,3.5447,3.4881,3.4705,3.3358,3.2151,0.0,0.0,0.0,2.8588,2.8588,2.8471,0.0,0.0,0.0,0.0,0.0,2.9252,2.9877,2.9857,3.0265,3.0886,3.0886,3.0843,3.0799,3.0794,3.081,3.081,3.0807,3.0339,2.977,2.978,2.9308,2.8739,2.8751,2.9074,2.943,2.9445,2.9094,2.8727,2.8727,2.8449,2.8073,2.7725,2.755,2.742,2.7284,2.7147,2.6796,2.5924,2.5759,0.0,0.0,0.0,0.0,0.0,0.0,0.0,0.0,0.0,0.0,0.0,0.0,0.0,0.0,0.0,2.5132,2.507,2.5183,0.0,0.0,0.0,0.0,2.8858,0.0,2.9789,0.0,2.9717,2.9699,2.9718,2.9852,3.0206,3.0725,3.1059,3.1961,3.3239,3.379,3.3921,3.3788,3.3753,3.3726,3.3726,3.3661,3.3633,3.3615,0.0,0.0,0.0,0.0,0.0,0.0,0.0,4.1052,4.1069,4.0982,4.0977,4.101,4.1088,4.103,4.0971,4.0971,4.019,3.9644,3.9566,3.8141,3.7262,3.7184,3.6345,3.5506,3.4725,3.4549,3.3651,0.0,0.0,3.106,0.0,2.9482,0.0,0.0,0.0,0.0,0.0,3.0325,3.0693,3.0771,3.0708,3.0743,3.0801,3.0816,3.0813,3.0794,3.0804,3.0801,3.0798,3.081,3.0751,3.068,3.0689,3.0618,3.057,3.056,3.0545,3.0553,3.0547,3.0516,3.0477,3.0464,2.9278,2.8221,2.866,2.8361,2.8148,2.8601,2.8272,2.7611,2.6743,2.659,2.6322,0.0,0.0,0.0,0.0,0.0,0.0,0.0,0.0,0.0,0.0,0.0,0.0,0.0,0.0,2.5025,2.5012,2.5646,2.6397,2.7282,0.0,2.8865,2.9676,2.977,0.0,2.9717,2.9698,2.97,2.972,3.0395,3.0691,3.0781,3.2247,3.3263,3.3913,3.3961,3.3921,3.3807,3.3788,3.3807,3.378,3.3726,3.3726,3.378,0.0,0.0,0.0,0.0,0.0,0.0,0.0,4.1132,4.1091,4.1108,4.1101,4.1094,4.1111,4.1108,4.1108,4.1108,4.0776,4.0366,3.9839,3.9175,3.8355,3.734,3.697,3.6364,3.5506,3.4979,3.4354,0.0,0.0,0.0,0.0,0.0,0.0,0.0,0.0,3.032,3.0339,3.0689,3.0843,3.0882,3.1382,3.1574,3.1633,3.215,3.2361,3.2361,3.235,3.2366,3.2346,3.2304,3.1631,3.0806,3.0808,3.0799,3.0789,3.0753,3.0716,3.0704,3.0698,3.0697,3.0695,3.07,3.0161,2.966,2.9865,2.9741,2.9461,2.8999,2.8674,2.8367,2.801,2.7663,2.7287,0.0,0.0,0.0,0.0,0.0,0.0,0.0,0.0,2.5113,0.0,0.0,0.0,0.0,0.0,0.0,2.5665,2.6401,2.722,2.8088,0.0,2.8944,2.9735,2.9737,2.9738,2.9719,3.0189,3.0415,3.0452,3.1238,3.1792,3.221,3.3278,3.3876,3.4049,3.4023,3.3947,3.386,3.3834,3.3807,3.3807,3.378,3.378,3.3807,4.1933,0.0,4.1933,0.0,4.1933,4.1933,4.1933,4.1894,4.1854,4.1854,4.1634,4.1372,4.1133,4.1091,4.1108,4.1108,4.1108,4.0834,4.0229,3.9937,3.9273,3.8082,3.7555,0.0,3.6404,3.5525,3.4959,3.4705,3.4081,0.0,0.0,0.0,0.0,0.0,3.1563,3.1563,3.1563,3.156,3.1558,3.1616,3.2235,3.2485,3.2541,3.3173,3.3403,3.3403,3.339,3.3385,3.3361,3.3321,3.2508,3.1539,3.1543,3.1532,3.1526,3.1475,3.1456,3.1436,3.1441,3.1445,3.1363,3.1125,3.0826,3.0585,3.0576,3.0567,3.0336,2.9535,2.9323,2.9292,2.9292,2.8925,2.8478,2.8099,0.0,0.0,0.0,0.0,0.0,0.0,0.0,0.0,0.0,0.0,0.0,0.0,0.0,0.0,2.648,2.7207,0.0,0.0,0.0,0.0,0.0,0.0,2.9814,3.0058,3.064,3.1015,3.1277,3.2058,3.2776,3.3445,3.398,3.4173,3.4099,3.4049,3.3972,3.3895,3.386,3.3834,3.3807,3.3807,3.3815,3.3815,4.3672,4.3672,4.3672,4.3672,4.3672,4.3672,4.3672,4.3672,4.3672,4.367,4.2926,4.2062,4.1197,4.1094,4.1108,4.1108,4.1108,4.1108,4.1088,4.0288,3.98,0.0,0.0,3.7301,3.7282,3.6423,3.5564,3.4705,0.0,0.0,3.3378,0.0,3.3378,3.3378,3.3378,3.3378,3.3375,3.337,3.3363,3.3363,3.3372,3.3388,3.3388,3.3395,3.339,3.341,3.34,3.337,3.3295,3.3295,3.3284,3.3265,3.3265,3.3278,3.3264,3.3264,3.3215,3.3164,3.3164,3.3167,3.2966,3.2095,3.1245,3.0578,3.052,3.0501,3.0491,3.049,3.0477,3.0475,3.0475,3.0364,2.9906,2.8775,0.0,0.0,0.0,0.0,0.0,0.0,0.0,0.0,2.7462,0.0,0.0,0.0,0.0,0.0,0.0,0.0,0.0,2.8495,2.9287,0.0,2.9701,2.9701,3.0096,3.0884,3.0884,3.1314,3.2117,3.2773,3.3483,3.4179,3.4197,3.4173,3.4099,3.4099,3.4023,3.3895,3.3895,3.386,3.3807,3.3807,3.3842,3.3895,4.3691,4.3691,4.3691,4.3691,4.3691,4.3691,4.3691,4.3691,4.3691,4.3691,4.3455,4.318,4.2902,4.1819,4.1108,0.0,4.1108,4.1108,0.0,4.0834,4.0424,3.9839,3.9292,3.8746,3.8199,3.7321,3.6755,3.6462,0.0,0.0,0.0,3.369,3.3398,3.3395,3.3392,3.3409,3.3409,3.3399,3.3395,3.345,3.4042,3.4291,3.435,3.4905,3.5109,3.5098,3.5098,3.5087,3.5068,3.5016,3.5002,3.4994,3.5002,3.4187,3.3223,3.3227,3.3222,3.3197,3.314,3.3122,3.3074,3.2792,3.2512,3.2278,3.2227,3.1325,3.0494,3.0444,3.0402,3.0379,3.0417,3.0362,3.0171,2.9826,0.0,0.0,0.0,0.0,0.0,0.0,0.0,0.0,0.0,2.7907,0.0,0.0,0.0,0.0,0.0,0.0,0.0,0.0,2.957,0.0,3.0509,3.0527,3.0922,3.1729,3.227,3.2919,3.3616,3.3832,3.4003,3.4197,3.4197,3.4197,3.4173,3.4124,3.4074,3.4023,3.3998,3.3947,3.3947,3.3947,3.3947,3.3972,4.4687,4.4687,4.4687,4.4687,4.4687,4.4687,4.4687,4.4687,4.4687,4.4687,4.4394,4.4196,4.4192,4.2915,0.0,4.1615,4.1283,4.1108,4.1108,4.1108,4.0854,4.0307,3.9976,3.9566,3.9058,0.0,0.0,3.7789,3.6911,3.6033,3.5174,3.4625,3.4387,3.4387,3.4378,3.4374,3.4374,3.4343,3.4339,3.4398,3.493,3.5159,3.5217,3.5713,3.5897,3.5905,3.5898,3.5885,3.5864,3.5811,3.5795,3.5799,3.5793,3.5047,3.4145,3.4137,3.4138,3.4139,3.4081,3.4061,3.3963,3.3641,3.3561,3.3442,3.3091,3.2165,3.134,3.1059,3.0618,3.0305,3.0312,3.0299,3.0253,3.0256,0.0,2.9961,2.9394,0.0,0.0,0.0,0.0,0.0,0.0,2.8747,0.0,0.0,0.0,0.0,0.0,0.0,0.0,3.0133,3.0152,0.0,3.1354,3.1354,3.1747,3.2552,3.3309,3.3896,3.4293,3.4269,3.4245,3.4197,3.4197,3.4197,3.4197,3.4148,3.4124,3.4099,3.4049,3.4023,3.3998,3.3998,3.4023,3.4049,4.6308,4.6308,0.0,0.0,4.6308,0.0,4.6308,4.6308,4.6308,4.6308,4.5585,4.5095,4.5091,4.4306,4.3459,4.265,0.0,0.0,0.0,4.1108,4.1108,4.1108,4.0327,0.0,3.9897,3.9097,3.8671,3.8593,3.7789,3.697,3.6166,3.618,3.6176,3.6173,3.6165,3.6181,3.6177,3.6109,3.6085,3.608,3.6089,3.6084,3.6084,3.6086,3.608,3.6073,3.606,3.6039,3.5978,3.5978,3.5965,3.5969,3.5969,3.5922,3.5843,3.5737,3.5708,3.5707,3.5688,3.5646,3.5407,3.4596,3.4369,3.4179,3.3345,3.3083,3.282,3.2256,3.1243,3.0437,3.0352,3.0294,3.0314,3.0371,3.0318,3.0213,3.0007,0.0,0.0,0.0,0.0,0.0,0.0,2.9847,2.9793,0.0,0.0,0.0,0.0,0.0,3.0208,3.0978,3.0977,3.1372,3.218,3.218,3.257,3.3387,3.3985,3.4293,3.4293,3.4221,3.4197,3.4197,3.4197,3.4197,3.4197,3.4197,3.4173,3.4099,3.4099,3.4074,3.4023,3.4023,3.4086,3.4191,0.0,0.0,4.6308,4.6308,4.6308,4.6308,4.6308,4.6308,4.6308,4.6308,4.6113,4.5995,4.5991,4.5206,4.4616,4.4406,4.2982,4.181,4.1147,4.1108,4.1108,4.1108,4.0893,4.0795,4.0795,3.9956,3.9214,3.8593,3.8394,3.8157,3.7917,3.7913,3.7905,3.7917,3.7908,3.7917,3.7917,3.7887,3.7882,3.7882,3.7884,3.7877,3.7877,3.7838,3.7797,3.7809,3.7802,3.7778,3.7714,3.7714,3.7715,3.7705,3.7646,3.7624,3.7373,3.6086,3.5697,3.5695,3.5635,3.5612,3.5531,3.527,3.5213,3.5155,3.4883,3.4293,3.378,3.3623,3.2852,3.2063,3.1594,3.1474,3.1562,3.2019,3.1965,3.1423,3.0167,2.9959,0.0,0.0,2.9912,3.0124,3.0677,3.0715,3.0923,0.0,0.0,0.0,0.0,0.0,3.1616,3.1804,3.1823,3.2197,3.3018,3.3037,3.3365,3.4078,3.4223,3.4269,3.4221,3.4197,3.4197,3.4197,3.4197,3.4197,3.4197,3.4197,3.4197,3.4173,3.4173,3.4173,3.4148,3.4148,3.4581,3.5157,4.6308,4.6308,4.6308,4.6308,4.6308,4.6308,4.6308,4.6308,4.6308,4.6308,4.6308,4.6307,4.6303,4.5889,4.5434,4.5031,4.3762,4.2611,4.1752,4.1693,4.1518,4.1127,4.1108,4.1108,4.1108,4.0639,3.9995,3.9153,3.9149,3.8931,3.851,3.8502,3.8497,3.8507,3.8497,3.8492,3.8492,3.85,3.8494,3.8507,3.8501,3.8468,3.8442,3.84,3.8405,3.8397,3.8372,3.8325,3.8297,3.8287,3.8287,3.8246,3.8205,3.8202,3.8025,3.7116,3.6833,3.6841,3.6767,3.6723,3.6582,3.6163,3.5757,3.5427,3.5412,3.5019,3.4644,3.4649,3.3953,3.3238,3.2882,3.268,3.2686,3.2959,3.2659,3.2188,3.1606,3.1025,0.0,3.1011,3.1012,3.1128,3.1506,3.1525,3.1674,3.2067,0.0,0.0,3.2668,3.2685,3.2645,3.2645,3.2645,3.3037,3.3795,3.3773,3.3952,3.4293,3.4269,3.4245,3.4197,3.4197,3.4197,3.4197,3.4197,3.4197,3.4197,3.4197,3.442,3.4791,3.4791,3.5014,3.533,3.533,3.5627,3.6036,4.6328,4.6308,4.6308,4.6308,4.6308,4.6308,4.6308,4.6308,4.6308,4.6308,4.6308,4.6306,4.6301,4.6297,4.5997,4.5265,4.4524,4.3665,4.2669,4.2591,4.2279,4.1518,4.1361,4.1303,4.1303,4.1166,4.0734,4.0001,3.9997,3.9618,3.8887,3.8897,3.8887,3.8887,3.8895,3.8889,3.8883,3.8883,3.8877,3.8884,3.8877,3.8843,3.879,3.8785,3.8777,3.8769,3.8704,3.8685,3.8675,3.8674,3.8642,3.8601,3.857,3.8574,3.8575,3.8563,3.8563,3.8492,3.8163,3.804,3.7805,3.7084,3.633,3.5744,3.5595,3.5511,3.5446,3.5315,3.469,3.4162,3.411,3.3884,3.3715,3.3648,3.3158,3.2857,3.3124,0.0,3.2182,3.2486,3.2392,3.2317,3.2371,3.2331,3.2349,3.2461,3.248,0.0,0.0,3.3505,3.3462,3.344,3.3462,3.3758,3.4386,3.4316,3.4269,3.4269,3.4221,3.4197,3.4197,3.4327,3.4401,3.4401,3.4513,3.4569,3.4569,3.4569,3.4996,3.5665,3.5665,3.6092,3.6686,3.6686,3.6779,3.6872,4.6445,4.6308,4.6308,4.6308,4.6308,4.6308,4.6308,4.6308,4.6308,4.6308,4.6308,4.6306,4.6301,4.6297,4.6251,4.6105,4.5968,4.5207,4.3606,4.3509,4.343,4.3294,4.2591,4.2201,4.2201,4.1472,4.1035,4.0898,4.0905,4.0838,4.071,4.0705,4.07,4.0701,4.0701,4.0676,4.0604,4.0604,4.0609,4.0607,4.061,4.0602,4.0602,4.0537,4.051,4.051,4.05,4.0469,4.0405,4.0413,4.0421,4.0384,4.034,4.0314,4.0301,4.0232,4.0236,3.9909,3.8411,3.7969,3.7871,3.7755,3.7609,3.7309,3.6511,3.6323,3.6116,3.5379,3.51,3.5026,3.499,3.4864,3.4754,3.4754,3.4622,3.4054,3.273,0.0,3.3998,3.3167,3.2581,3.2484,3.3137,3.3193,3.3475,3.4151,3.4207,3.4242,3.433,3.4308,3.4263,3.4149,3.4195,3.4251,3.4316,3.4245,3.4221,3.4221,3.4197,3.4197,3.4216,3.4959,3.5293,3.533,3.6017,3.6296,3.6296,3.6296,3.6389,3.65,3.65,3.6575,3.6686,3.6686,3.7132,3.7708,4.707,4.6621,4.6308,4.6308,4.6308,4.6308,4.6308,4.6308,4.6308,4.6308,4.6307,4.6303,4.6297,4.6293,4.6306,4.63,4.63,4.5968,4.5148,4.466,4.4192,4.3723,4.3313,4.3095,4.3092,4.2249,4.1792,4.1798,4.132,4.1095,4.1103,4.1103,4.1097,4.111,4.1059,4.1032,4.1006,4.0999,4.0996,4.0999,4.0991,4.0982,4.0945,4.0917,4.0898,4.0897,4.0865,4.0823,4.0788,4.0796,4.0771,4.0746,4.07,4.0673,4.0631,4.0622,4.0573,4.0365,3.9565,3.8981,3.8585,3.8569,3.8191,3.7721,3.7302,3.7171,3.7022,3.6627,3.6171,3.5831,3.5797,3.5361,3.5001,3.4945,3.4926,0.0,0.0,3.4358,3.4585,3.4071,3.3728,3.3688,3.4001,3.4057,3.4207,3.4564,3.4602,3.4561,3.4495,3.4473,3.4386,3.4293,3.4293,3.4269,3.4245,3.4221,3.4439,3.4903,3.4903,3.5126,3.5553,3.5962,3.6147,3.6166,3.6538,3.6686,3.6686,3.6686,3.6946,3.7336,3.7336,3.7596,3.7986,3.7986,3.8228,3.8544,4.7676,4.7051,4.6543,4.6348,4.6308,4.6308,4.6308,4.6308,4.6308,4.6307,4.6303,4.6297,4.6293,4.6306,4.63,4.63,4.63,4.63,4.63,4.5675,4.4992,4.4328,4.4114,4.3911,4.3708,4.3021,4.2676,4.2674,4.2006,4.1688,4.1675,4.1675,4.1669,4.1688,4.1636,4.1602,4.1575,4.1579,4.1583,4.1576,4.1557,4.1538,4.1481,4.1489,4.1468,4.1457,4.1393,4.1369,4.1364,4.1371,4.1312,4.1285,4.1252,4.121,4.1185,4.117,4.112,4.1011,4.0614,3.9986,3.9435,3.9399,3.8889,3.8338,3.8127,3.8035,3.7943,3.7736,3.7146,3.6652,3.6597,3.6027,3.5534,3.5476,0.0,0.0,0.0,3.483,3.4733,3.4689,3.4687,3.4666,3.4583,3.4602,3.4602,3.4602,3.4771,3.482,3.4772,3.4895,3.4936,3.4846,3.463,3.4494,3.4494,3.468,3.5107,3.5776,3.5776,3.6092,3.6705,3.6891,3.6965,3.6983,3.7169,3.7262,3.7262,3.7262,3.7615,3.8172,3.8172,3.8562,3.9101,3.9101,3.9101,3.9101,4.793,4.7558,4.7246,4.6445,4.6308,4.6308,4.6308,4.6308,4.6307,4.6307,4.6301,4.6293,4.6293,4.6306,4.63,4.63,4.63,4.63,4.63,4.6241,4.6183,4.6105,4.5332,4.4528,4.3728,4.3587,4.3512,4.3512,4.3455,4.3429,4.3422,4.3422,4.3415,4.342,4.3413,4.3378,4.3315,4.3315,4.3325,4.3316,4.3246,4.3216,4.3206,4.3222,4.3168,4.3105,4.3124,4.3086,4.3018,4.3018,4.3028,4.3003,4.2934,4.2919,4.2919,4.2929,4.2859,4.248,4.0924,4.0358,4.0229,4.0211,4.0156,3.9909,3.9107,3.886,3.8594,3.785,3.7547,3.7413,3.7413,3.7298,3.7201,3.722,0.0,0.0,3.4903,3.4728,3.4593,3.4612,3.4607,3.4602,3.4602,3.4602,3.4602,3.4602,3.5233,3.5614,3.5624,3.6261,3.6577,3.6545,3.5795,3.5386,3.5386,3.6129,3.6538,3.6593,3.6593,3.663,3.6723,3.7466,3.7801,3.7838,3.8599,3.8915,3.8915,3.8915,3.8952,3.9008,3.9008,3.9045,3.9101,3.9101,3.9101,3.9101,4.8633,4.7969,4.7324,4.6445,4.6308,4.6308,4.6308,4.6307,4.6306,4.6301,4.6295,4.629,4.6306,4.6303,4.63,4.63,4.63,4.63,4.63,4.6296,4.6292,4.6292,4.5948,4.5587,4.5265,4.4707,4.4403,4.4416,4.3858,4.3598,4.3598,4.361,4.3596,4.3607,4.3564,4.3527,4.351,4.3491,4.3491,4.3441,4.341,4.3388,4.3397,4.3342,4.333,4.3298,4.3247,4.3206,4.3197,4.3202,4.3158,4.3127,4.3111,4.3079,4.3032,4.2981,4.2926,4.2736,4.2104,4.1512,4.0978,4.0443,4.0291,4.0196,3.9834,3.9719,3.9605,3.9222,3.8687,3.8306,3.8247,3.7771,3.739,3.7349,0.0,3.6071,3.5002,3.5606,3.6133,3.6148,3.6145,3.6141,3.6141,3.6141,3.6141,3.6073,3.6349,3.647,3.6391,3.6614,3.6731,3.6686,3.6891,3.6742,3.624,3.6538,3.6946,3.7429,3.7429,3.7708,3.8191,3.8488,3.8637,3.8655,3.8971,3.9101,3.9101,3.9101,3.9101,3.9101,3.9101,3.9101,3.9101,3.9101,3.9101,3.9101,4.9473,4.8613,4.7734,4.6855,4.6484,4.6308,4.6307,4.6306,4.6301,4.6295,4.629,4.6306,4.63,4.63,4.63,4.63,4.63,4.63,4.6296,4.6284,4.6275,4.6279,4.6226,4.6195,4.6203,4.5618,4.5313,4.5299,4.4708,4.4409,4.4409,4.4394,4.4398,4.439,4.4344,4.4307,4.4297,4.4287,4.4266,4.4206,4.4184,4.4199,4.4175,4.4111,4.4086,4.4072,4.4018,4.4008,4.3998,4.3987,4.3936,4.3885,4.3869,4.3801,4.373,4.3694,4.3637,4.3541,4.3254,4.2757,4.2126,4.1265,4.1036,4.096,4.0615,4.0557,4.0441,4.0093,3.9539,3.9119,3.9098,3.8563,3.8144,3.8083,3.8118,3.7694,3.6502,3.7224,3.789,3.7882,3.7404,3.7099,3.7099,3.7075,3.7052,3.7004,3.7199,3.7368,3.7508,3.7474,3.7448,3.7448,3.7986,3.8005,3.7448,3.7448,3.7726,3.8284,3.8284,3.8562,3.9101,3.9101,3.9101,3.9101,3.9101,3.9101,3.9101,3.9101,3.9101,3.9101,3.9101,3.9101,3.9101,3.9101,3.9101,3.9101,5.0351,4.9492,4.8633,4.7754,4.6874,4.6307,4.6307,4.6301,4.6293,4.6293,4.6306,4.63,4.63,4.63,4.63,4.63,4.63,4.6296,4.6303,4.624,4.6189,4.6206,4.6195,4.6203,4.6203,4.6209,4.6196,4.6196,4.6201,4.6205,4.6205,4.613,4.6104,4.6095,4.6095,4.6066,4.5997,4.6014,4.5991,4.5991,4.5932,4.5893,4.5893,4.5833,4.5805,4.58,4.58,4.5754,4.5693,4.5693,4.5657,4.5586,4.5513,4.5438,4.54,4.5399,4.5398,4.5207,4.4246,4.3954,4.3702,4.2904,4.2713,4.2463,4.1525,4.1311,4.106,4.0186,3.9973,3.9908,3.9889,3.9826,3.9804,3.9804,3.9739,3.9693,3.9693,3.9637,3.9599,3.9599,3.8131,3.7117,3.7117,3.7047,3.6999,3.6999,3.7648,3.8346,3.9064,3.9101,3.9101,3.9101,3.9101,3.9101,3.9101,3.9101,3.9101,3.9101,3.9101,3.9101,3.9101,3.9101,3.9101,3.9101,3.9101,3.9101,3.9101,3.9101,3.9101,3.9101,3.9101,3.9101,3.9101,3.9101,3.9101,3.9101,5.0351,4.998,4.9335,4.785,4.738,4.7004,4.6397,4.6295,4.629,4.6306,4.6303,4.63,4.63,4.63,4.6296,4.6292,4.6308,4.6279,4.624,4.6209,4.6203,4.6196,4.6209,4.6203,4.6203,4.6203,4.6189,4.6201,4.6193,4.6177,4.6122,4.6104,4.6105,4.6095,4.6037,4.6016,4.6014,4.6003,4.5968,4.5932,4.5906,4.586,4.5833,4.5824,4.5795,4.58,4.5738,4.5726,4.5693,4.564,4.5586,4.5532,4.5438,4.5419,4.5399,4.5338,4.5317,4.526,4.493,4.4832,4.4467,4.3056,4.2652,4.2533,4.2224,4.2123,4.1873,4.1013,4.0821,4.0609,3.994,3.9804,3.9781,3.9746,3.9722,3.9679,3.9631,3.9613,3.9613,3.9613,3.9175,3.8845,3.8796,3.8765,3.8696,3.8555,3.8699,3.8868,3.9082,3.9101,3.9101,3.9101,3.9101,3.9101,3.9101,3.9101,3.9101,3.9101,3.9101,3.9101,3.9101,3.9101,3.9101,3.9101,3.9101,3.9101,3.9101,3.9101,3.9101,3.9101,3.9101,3.9101,3.9101,3.9101,3.9101,3.9101,5.0761,5.0428,4.9861,4.8786,4.8039,4.7428,4.6898,4.6524,4.6306,4.63,4.63,4.63,4.63,4.6296,4.6292,4.6303,4.6275,4.6245,4.6203,4.6196,4.6209,4.6196,4.6189,4.6189,4.6196,4.6189,4.6201,4.6205,4.6169,4.6132,4.6104,4.6076,4.6066,4.6066,4.6016,4.5994,4.5991,4.5968,4.5932,4.5893,4.586,4.5833,4.5805,4.5795,4.5785,4.5754,4.5726,4.5693,4.564,4.5586,4.5725,4.5975,4.6299,4.6373,4.6275,4.5891,4.5753,4.5693,4.5309,4.517,4.4878,4.3869,4.3577,4.3437,4.3069,4.297,4.2724,4.1844,4.1651,4.1453,4.09,4.0571,4.0391,4.0339,3.9932,3.9645,3.962,3.9602,3.9602,3.9602,3.9602,3.9571,3.9495,3.9469,3.9373,3.9183,3.9129,3.9101,3.9101,3.9101,3.9101,3.9101,3.9101,3.9101,3.9101,3.9101,3.9101,3.9101,3.9101,3.9101,3.9101,3.9101,3.9101,3.9101,3.9101,3.9101,3.9101,3.9101,3.9101,3.9101,3.9101,3.9101,3.9101,3.9101,3.9101,3.9101,5.1404,5.0818,5.0251,5.0129,4.8833,4.7774,4.7617,4.6928,4.6397,4.63,4.63,4.63,4.63,4.6288,4.6284,4.6284,4.624,4.6203,4.6203,4.6209,4.6196,4.6196,4.6201,4.6193,4.6196,4.6193,4.6185,4.6185,4.6123,4.6095,4.6095,4.6026,4.5997,4.5997,4.6003,4.5991,4.598,4.5919,4.5893,4.5893,4.5814,4.5805,4.58,4.5877,4.587,4.5808,4.5885,4.5871,4.5817,4.5743,4.6167,4.6853,4.7635,4.7862,4.7646,4.6822,4.6609,4.6431,4.563,4.5331,4.52,4.5143,4.5124,4.4872,4.4028,4.3815,4.3568,4.2673,4.2456,4.237,4.2257,4.1706,4.1312,4.1349,4.0491,3.9846,3.9902,3.9808,3.9733,3.969,3.9633,3.9552,3.9495,3.9418,3.9301,3.9101,3.9101,3.9101,3.9101,3.9101,3.9101,3.9101,3.9101,3.9101,3.9101,3.9101,3.9101,3.9101,3.9101,3.9101,3.9101,3.9101,3.9101,3.9101,3.9101,3.9101,3.9101,3.9101,3.9101,3.9101,3.9101,3.9101,3.9101,3.9101,3.9101,3.9101,5.14,5.126,5.0925,5.022,4.9801,4.9111,4.7803,4.7432,4.7061,4.6397,4.6292,4.6308,4.6308,4.626,4.6226,4.6215,4.6216,4.6203,4.6203,4.6203,4.6189,4.6193,4.6193,4.6185,4.6111,4.6122,4.6113,4.6114,4.6105,4.6066,4.6026,4.6007,4.6005,4.6003,4.6003,4.5968,4.5919,4.5906,4.586,4.5814,4.581,4.5795,4.5858,4.6436,4.6653,4.6716,4.7335,4.7567,4.7548,4.7492,4.7546,4.7635,4.7783,4.7799,4.7739,4.7503,4.7442,4.7381,4.7077,4.6991,4.6795,4.6095,4.5943,4.5716,4.4838,4.4649,4.4378,4.3515,4.3321,4.295,4.1751,4.14,4.1431,4.18,4.1642,4.1642,4.21,4.1405,4.0785,4.0553,3.9939,3.9495,3.9444,3.9275,3.9147,3.9101,3.9101,3.9101,3.9101,3.9101,3.9101,3.9101,3.9101,3.9101,3.9101,3.9101,3.9101,3.9101,3.9101,3.9101,3.9101,3.9101,3.9101,3.9101,3.9101,3.9101,3.9101,3.9101,3.9101,3.9101,3.9101,3.9101,3.9101,3.9101,3.9101,3.9101,5.1394,5.1391,5.1252,5.0796,5.0383,4.9794,4.8935,4.8115,4.7428,4.6936,4.6542,4.6284,4.6255,4.6226,4.6189,4.6196,4.6203,4.6371,4.678,4.6792,4.6953,4.7373,4.7348,4.7339,4.7281,4.7291,4.6892,4.6095,4.6066,4.6037,4.5997,4.6005,4.5994,4.6011,4.6414,4.6552,4.6551,4.6925,4.7071,4.7038,4.7013,4.6997,4.7024,4.7386,4.7505,4.7545,4.7952,4.8068,4.8106,4.8429,4.8499,4.8531,4.8869,4.9003,4.8904,4.8457,4.8295,4.8153,4.7637,4.7473,4.7353,4.691,4.6771,4.643,4.5198,4.4889,4.4732,4.4304,4.414,4.3837,4.3017,4.2867,4.2897,4.316,4.2758,4.2532,4.2859,4.2138,4.1529,4.1346,4.0926,4.0454,3.9981,3.9816,3.9547,3.912,3.9101,3.9101,3.9101,3.9101,3.9101,3.9101,3.9101,3.9101,3.9101,3.9101,3.9101,3.9101,3.9101,3.9101,3.9101,3.9101,3.9101,3.9101,3.9101,3.9101,3.9101,3.9101,3.9101,3.9101,3.9045,3.9045,3.9064,3.9036,3.8989,3.8989,5.1408,5.1408,5.1405,5.1394,5.0809,5.0278,5.0122,4.8912,4.7951,4.7743,4.7138,4.6704,4.6655,4.6638,4.6645,4.6644,4.6624,4.6929,4.765,4.7646,4.794,4.8641,4.8623,4.8603,4.8593,4.8591,4.7911,4.6542,4.6473,4.6443,4.6433,4.643,4.6418,4.6445,4.7101,4.7403,4.7448,4.8116,4.8392,4.8377,4.8327,4.8298,4.8287,4.837,4.8373,4.8336,4.8471,4.849,4.8505,4.9133,4.9296,4.9423,5.0092,5.0302,5.0145,4.9406,4.9143,4.8922,4.8125,4.7865,4.7776,4.7662,4.7605,4.7207,4.5552,4.5142,4.5117,4.5155,4.4855,4.4605,4.4578,4.4541,4.4503,4.4503,4.3743,4.3179,4.3179,4.2618,4.2171,4.2117,4.1958,4.1567,4.0775,4.0634,4.0308,3.9584,3.9398,3.9324,3.9324,3.9175,3.9101,3.9101,3.9101,3.9101,3.9101,3.9101,3.9101,3.9101,3.9101,3.9101,3.9101,3.9101,3.9101,3.9101,3.9101,3.9101,3.9073,3.9073,3.9073,3.9045,3.9007,3.8979,3.8997,3.8939,3.891,3.891,5.1398,5.1398,5.1394,5.1394,5.1297,5.0961,5.023,4.9913,4.9479,4.8728,4.8535,4.847,4.8445,4.8451,4.8463,4.8456,4.8402,4.8405,4.8522,4.8524,4.8555,4.8613,4.8603,4.8593,4.861,4.8599,4.8483,4.8261,4.825,4.8258,4.8242,4.8204,4.8128,4.8075,4.8197,4.8241,4.8251,4.8353,4.8377,4.8311,4.8298,4.8268,4.8293,4.8989,4.9221,4.9317,5.0009,5.0176,5.0087,5.0202,5.0195,5.0168,5.0264,5.0255,5.0169,4.9999,4.9886,4.9815,4.9648,4.9584,4.9386,4.8685,4.8515,4.8147,4.6698,4.6365,4.6308,4.6218,4.5364,4.4578,4.4524,4.4515,4.4496,4.4496,4.4383,4.4289,4.4289,4.3558,4.3016,4.3034,4.2268,4.1669,4.1471,4.1423,4.1386,4.1256,4.0606,4.0215,4.0215,3.951,3.9101,3.9101,3.9101,3.9101,3.9101,3.9101,3.9101,3.9101,3.9101,3.9101,3.9101,3.9101,3.9101,3.9101,3.9101,3.9073,3.9007,3.9007,3.8979,3.8921,3.8939,3.8892,3.8892,3.8892,3.891,3.891,5.1394,5.1394,5.1394,5.1406,5.1406,5.1264,5.0879,5.0411,4.9956,4.9588,4.9088,4.8789,4.8801,4.8794,4.8779,4.8752,4.8716,4.8903,4.9391,4.9391,4.9566,5.0022,5.004,5.0048,5.0056,5.0025,4.9994,4.9994,4.9023,4.8565,4.8599,4.8483,4.8438,4.843,4.8905,4.9122,4.9165,4.9598,4.9776,4.976,4.9674,4.9621,4.9642,4.999,5.0125,5.0164,5.0429,5.0478,5.039,5.0367,5.0325,5.0302,5.0302,5.0236,5.0207,5.0133,5.0057,4.9978,4.9925,4.9898,4.9803,4.9443,4.9367,4.9189,4.8596,4.8407,4.8059,4.7042,4.5632,4.474,4.5322,4.4928,4.4515,4.4515,4.4515,4.4487,4.444,4.4112,4.383,4.3762,4.3308,4.2791,4.2314,4.2259,4.2073,4.1627,4.1256,4.107,4.107,4.0271,3.9825,3.9825,3.9342,3.9101,3.9101,3.9101,3.9101,3.9101,3.9101,3.9101,3.9101,3.9101,3.9073,3.9045,3.9045,3.9007,3.8921,3.8921,3.8939,3.891,3.8881,3.8822,3.878,3.878,3.878,3.878]}]]